GFSSGP_925_spd_000.txt.gz
Wind_Speed
1 2 4 6 6 11 17 17 15 12 12 12 7 8 17 13 11 13 20 17 18 16 14 13 14 17 20 22 23 22 21 21 23 23 23 22 20 17 16 17 16 14 12 10 9 9 8 7 6
3 2 7 4 12 15 11 14 15 15 14 12 10 8 11 16 15 17 20 19 17 17 16 14 16 18 18 19 19 17 19 20 22 21 22 21 17 15 14 14 14 11 10 9 8 8 7 6 5
3 2 5 7 12 15 13 12 14 14 8 6 7 13 8 9 16 16 21 20 18 15 16 15 16 17 19 19 19 19 19 20 21 20 20 18 14 14 13 13 12 10 9 7 6 6 5 3 3
2 4 5 11 18 15 16 13 12 11 11 14 15 14 11 18 8 18 22 19 17 16 15 16 16 17 18 17 18 18 18 20 20 18 18 15 12 10 11 10 9 8 7 6 4 4 3 1 1
4 5 8 12 15 16 14 10 6 12 9 9 14 12 15 9 16 25 22 19 19 17 15 14 16 17 17 17 16 16 16 16 16 16 13 11 10 9 8 7 6 6 4 3 3 2 2 3 2
5 4 9 12 14 13 11 9 12 14 14 16 21 18 8 13 24 22 20 18 17 17 16 14 14 16 16 15 16 15 15 15 16 15 11 9 8 6 5 4 3 2 1 1 2 3 3 3 4
5 3 10 13 12 10 9 5 11 14 13 15 14 10 7 15 22 21 19 17 16 16 15 15 13 13 13 13 14 13 13 13 13 11 9 7 5 4 4 3 3 2 3 4 6 6 5 6 6
4 4 8 7 9 12 10 9 9 13 15 12 10 8 11 16 23 21 19 17 16 15 14 13 13 13 11 10 12 12 13 13 12 10 8 7 5 5 5 5 5 5 5 6 7 9 8 9 8
4 5 7 8 8 10 12 12 8 8 12 5 3 12 25 27 23 21 19 17 15 14 14 13 13 12 11 10 10 10 11 11 11 9 8 6 6 6 7 7 7 9 7 7 8 10 9 9 10
7 5 9 6 7 11 7 8 10 9 11 11 13 19 28 28 25 22 20 19 18 16 15 13 12 12 12 10 9 9 9 10 10 10 9 8 8 8 8 9 10 10 10 9 9 9 9 8 8
1 11 6 6 6 11 12 10 6 6 8 10 16 22 23 25 23 20 18 18 16 15 14 13 12 12 12 10 10 9 9 9 9 10 10 10 8 8 9 8 8 8 8 9 7 8 8 7 8
7 8 10 10 10 11 13 13 15 15 12 15 19 20 20 18 18 18 17 17 16 16 14 13 12 11 11 9 10 9 8 8 9 9 10 10 9 9 9 9 9 10 9 9 9 9 8 9 9
13 12 11 10 10 13 14 15 13 16 16 19 19 17 15 13 15 14 15 15 15 15 14 13 12 12 11 11 9 9 8 9 9 10 10 11 11 10 11 9 10 11 11 11 10 10 10 10 10
10 14 14 12 13 15 16 12 12 12 15 16 15 15 13 12 13 12 13 14 15 14 14 14 13 13 12 11 10 9 10 9 10 11 11 12 13 12 12 11 11 12 12 11 11 13 12 12 11
16 16 11 12 8 15 15 14 15 13 13 14 14 12 11 11 11 11 12 12 13 12 12 13 13 12 13 12 11 11 10 10 11 12 13 15 15 14 14 12 13 13 12 13 13 14 13 14 14
12 14 11 10 13 7 8 12 11 13 12 12 13 11 10 10 11 10 10 9 9 9 10 11 10 10 13 13 11 10 11 13 14 14 14 15 16 17 16 15 15 15 15 16 16 16 15 14 16
13 12 11 13 13 2 9 14 13 12 11 12 11 11 10 10 10 10 9 9 9 9 8 8 8 10 10 10 11 12 12 13 13 14 15 15 17 17 18 20 19 20 19 19 18 19 18 18 17
15 11 12 12 14 8 5 12 14 13 13 13 11 10 10 10 10 10 9 8 8 9 9 7 7 8 8 7 9 9 10 11 12 13 13 16 16 16 14 15 17 18 19 20 18 21 19 20 20
13 16 12 10 5 10 6 12 14 14 12 12 13 12 11 11 10 10 10 10 9 8 8 7 6 5 6 6 7 7 9 9 10 12 13 13 11 11 11 14 15 16 18 19 19 19 20 21 22
12 12 11 6 6 11 8 11 12 12 14 12 12 13 12 12 11 11 12 11 9 7 7 6 6 6 6 6 5 4 5 7 8 7 6 6 7 7 9 11 13 14 17 18 19 20 20 21 19
14 15 12 13 9 11 8 10 12 13 11 11 11 11 11 12 13 12 13 13 11 8 7 6 6 5 4 2 1 2 5 6 7 6 9 7 10 9 9 11 13 15 16 17 17 18 19 21 21
14 10 13 15 14 12 16 10 18 17 16 16 16 14 13 13 12 13 15 13 13 10 8 8 7 6 5 3 1 3 7 8 8 8 10 11 10 11 11 11 12 14 16 16 16 16 17 18 20
6 8 9 12 17 7 13 9 3 16 18 20 18 18 16 15 15 14 16 15 14 13 13 11 9 7 4 2 2 5 4 5 7 8 9 10 9 9 9 9 10 11 13 13 14 16 16 17 20
13 13 7 8 7 10 12 12 12 10 18 19 19 19 18 16 16 16 18 17 15 14 13 11 9 7 4 1 1 2 2 4 6 5 8 8 8 7 6 8 10 11 13 15 15 15 16 19 19
13 15 8 9 8 10 5 7 13 2 5 13 19 21 20 18 17 17 17 19 18 16 14 11 10 7 5 3 0 1 3 4 6 7 9 9 8 7 7 8 9 10 11 13 15 17 17 19 20
17 15 6 7 9 6 3 7 6 2 4 11 11 18 20 19 18 18 20 20 19 17 14 11 10 8 6 3 3 3 4 6 7 6 7 7 7 7 7 7 9 10 11 12 13 14 17 18 20
11 10 5 1 3 8 7 6 9 8 8 9 11 13 21 19 19 20 22 21 20 18 15 13 11 9 6 4 4 5 5 6 6 7 7 7 7 7 7 9 9 9 10 10 11 14 16 17 20
8 11 9 9 6 9 6 6 3 5 7 8 13 15 18 19 20 19 21 21 21 19 16 14 12 10 7 5 6 6 6 5 6 7 8 8 8 9 10 11 10 9 9 9 10 14 14 16 19
8 11 8 5 5 7 6 3 6 2 2 4 9 14 17 21 20 19 20 22 21 19 17 15 12 11 8 6 7 6 6 5 6 7 8 9 9 10 11 12 13 13 13 12 12 13 15 18 21
15 18 16 10 11 6 7 8 4 4 3 3 4 11 16 20 20 18 22 24 22 21 18 15 13 12 9 7 7 7 7 6 7 9 10 11 11 12 13 14 14 15 15 14 13 14 17 21 25

GFSSGP_925_spd_003.txt.gz
Wind_Speed
7 6 10 9 7 12 17 14 15 15 16 12 19 16 18 18 9 12 23 14 16 15 13 12 14 15 17 18 19 19 19 19 20 22 21 20 17 16 14 13 12 11 10 9 9 7 7 6 6
8 8 12 7 12 15 16 19 18 16 14 11 7 21 21 22 22 22 19 20 16 16 15 13 14 16 16 17 17 17 18 18 18 18 16 15 14 14 13 12 12 10 9 8 7 7 6 5 4
8 8 7 11 15 16 17 18 15 11 9 12 18 16 12 16 15 18 24 20 16 13 16 14 14 15 15 15 14 16 17 16 16 16 15 14 11 11 12 11 10 9 8 8 7 6 5 3 2
8 5 6 16 21 20 17 12 14 15 16 18 18 16 21 15 19 24 24 18 17 14 14 14 14 15 14 14 15 15 16 15 14 14 12 11 10 10 10 9 8 8 8 7 6 5 4 3 3
12 9 12 17 19 18 13 9 14 15 12 16 21 21 16 15 24 23 19 19 19 16 15 14 15 16 15 15 15 15 16 15 14 13 11 10 9 8 8 7 6 6 6 5 5 4 4 4 4
12 5 13 14 18 16 13 13 15 14 13 20 22 18 15 19 21 22 19 17 17 19 16 13 13 15 14 14 15 15 15 14 12 11 9 9 8 6 5 4 3 3 3 3 3 4 5 5 6
18 12 15 16 15 15 9 14 15 15 19 19 17 17 12 19 20 18 23 16 19 17 18 14 12 11 11 11 13 14 13 13 11 9 8 7 5 4 3 2 1 1 2 4 4 5 6 7 7
13 8 3 14 14 16 9 13 16 15 16 12 19 10 17 21 21 18 22 12 19 18 14 14 13 12 11 10 11 12 12 12 10 9 7 5 3 4 3 3 3 3 4 5 6 5 6 8 10
10 12 8 17 15 16 12 14 11 14 13 7 2 19 23 26 21 18 18 16 10 14 11 11 10 10 10 11 10 9 9 10 9 6 5 3 6 7 6 4 4 9 10 8 8 8 8 9 10
12 1 15 12 12 14 10 16 14 13 12 11 16 25 26 25 21 18 16 20 15 14 14 16 15 15 11 13 9 9 9 8 8 7 7 5 7 6 8 7 9 11 8 10 8 7 7 6 4
8 16 9 4 13 14 13 10 5 11 20 15 19 22 23 23 20 17 15 14 14 13 12 11 12 11 10 8 9 8 10 10 10 9 8 9 6 7 7 9 6 8 3 10 4 9 10 4 8
7 5 13 10 6 13 17 14 11 15 17 18 21 21 20 19 19 18 16 15 13 13 11 11 9 10 10 9 8 9 9 7 7 10 9 9 7 7 7 7 7 8 7 7 7 11 8 10 9
13 8 12 8 12 12 16 16 15 15 18 21 20 18 17 15 17 17 16 16 15 14 12 11 10 9 8 7 8 7 5 7 9 8 7 8 8 7 7 7 8 9 9 8 10 11 12 12 12
14 10 12 11 13 12 15 16 14 16 19 19 17 17 15 13 14 13 14 15 15 15 14 13 11 11 9 8 6 6 8 5 7 7 8 9 10 9 11 7 9 10 9 8 10 11 11 12 13
14 12 11 10 12 13 14 15 15 17 16 17 16 15 14 13 13 12 14 14 15 15 13 12 12 10 10 10 9 10 10 11 10 11 11 11 12 13 13 12 11 12 11 12 13 13 13 14 15
17 15 15 13 11 19 30 11 15 17 17 16 15 13 12 12 14 14 13 11 13 8 13 12 11 15 13 11 10 10 11 11 12 12 12 11 13 15 16 15 15 15 14 15 15 15 16 16 16
17 12 14 12 12 20 17 13 15 15 16 16 15 14 13 12 13 14 15 15 11 11 10 10 10 9 11 10 11 11 12 13 12 12 12 10 11 14 13 16 17 17 16 17 17 16 16 19 18
16 17 15 13 13 7 17 13 17 14 16 16 15 15 13 14 12 14 15 13 13 13 10 8 9 8 8 5 8 8 10 11 11 12 12 13 14 14 16 16 15 15 16 19 18 18 17 19 20
13 14 14 7 13 12 6 16 15 14 14 15 16 16 14 13 17 16 14 12 12 10 10 8 7 8 9 8 7 7 7 8 10 10 10 10 10 10 10 10 11 13 15 17 16 19 19 20 19
9 13 11 11 9 7 6 14 14 15 14 15 16 16 17 16 16 19 16 15 13 11 11 10 9 8 8 7 5 5 6 7 8 8 8 8 8 8 9 11 14 15 17 18 17 19 19 19 19
15 16 14 8 11 13 12 13 16 16 16 14 16 16 17 18 18 17 18 16 15 13 12 11 9 7 5 4 6 6 7 10 9 5 5 2 7 10 11 11 13 15 16 19 16 16 16 17 19
18 15 12 10 9 13 17 12 18 17 17 19 18 19 17 17 17 18 20 20 17 14 12 10 9 7 4 3 2 2 9 9 6 8 8 10 11 10 11 12 12 12 15 16 14 13 15 13 15
6 13 9 15 13 16 14 13 17 9 18 21 20 20 19 18 18 18 20 22 19 16 14 12 10 8 5 3 2 4 6 7 6 6 7 9 8 8 9 8 10 11 13 14 14 14 15 16 17
11 8 8 11 11 13 15 9 12 18 27 23 22 22 21 20 20 17 22 24 20 18 16 14 12 9 7 5 3 2 3 4 7 6 8 9 9 8 5 6 9 10 11 13 14 14 15 18 18
13 12 9 9 11 13 7 11 7 7 9 7 21 23 23 22 20 19 19 23 22 22 19 16 13 11 8 6 3 3 4 5 7 6 9 8 8 7 6 6 7 9 11 13 13 14 14 16 17
15 14 11 7 10 11 9 8 12 10 8 7 9 22 20 21 19 20 19 24 23 22 21 18 16 12 10 7 5 2 4 7 7 6 6 9 8 9 7 7 10 11 11 12 13 14 15 16 17
15 16 17 13 5 10 4 12 9 9 7 4 9 11 21 22 20 20 22 25 25 24 22 19 17 14 11 8 6 3 5 6 7 7 7 9 7 9 7 9 11 12 11 10 12 14 11 13 16
9 11 10 7 8 10 9 6 5 10 9 9 9 11 13 21 22 20 20 25 26 25 23 20 17 15 11 8 6 5 5 6 6 7 8 9 10 10 11 11 12 13 13 13 12 14 12 14 15
13 11 12 13 7 6 6 4 14 6 7 4 6 6 11 17 19 19 20 27 26 25 24 21 18 15 11 8 7 5 6 6 6 8 8 9 10 11 12 13 14 15 14 15 14 14 14 14 19
20 22 17 10 11 8 9 4 6 5 6 4 3 4 9 14 19 20 22 27 27 27 25 23 19 16 12 10 7 7 7 7 7 8 9 10 11 12 13 15 17 16 15 17 14 16 16 16 17

GFSSGP_925_spd_006.txt.gz
Wind_Speed
11 12 14 14 6 11 14 16 16 15 17 13 25 14 14 11 9 14 21 18 20 17 17 15 17 19 19 20 20 21 21 22 23 23 22 19 17 15 13 13 13 11 11 10 9 8 8 6 6
13 17 14 7 6 15 13 18 18 14 9 22 24 24 26 26 26 22 19 19 17 18 17 16 17 19 19 18 19 19 19 20 21 20 20 18 17 16 14 13 12 10 9 9 8 7 6 5 5
16 20 8 6 11 15 14 15 11 14 12 20 24 22 17 21 19 14 25 22 19 24 17 18 17 18 18 18 18 18 17 17 17 16 16 16 16 15 13 12 10 9 8 8 8 6 4 4 3
20 9 10 14 20 18 18 17 17 20 20 21 19 15 25 33 30 30 25 22 20 19 17 17 16 16 15 15 17 16 16 16 15 15 14 13 14 13 11 10 9 8 7 7 6 5 4 4 4
25 3 6 15 18 17 17 19 16 16 19 21 22 20 24 35 30 27 25 23 20 20 17 17 17 16 16 16 16 15 15 14 14 13 11 12 10 10 9 8 7 6 6 5 4 4 4 4 4
3 5 7 15 18 19 17 15 17 20 23 21 21 21 21 30 27 27 24 23 21 22 18 17 16 15 15 15 15 15 15 14 13 11 9 9 8 7 7 6 5 4 3 2 3 4 5 5 6
7 9 10 21 23 13 7 19 16 19 21 20 20 21 19 22 22 28 23 27 23 21 19 17 16 15 14 13 14 14 13 12 11 8 7 7 6 7 6 5 3 2 1 3 5 5 6 9 8
4 4 11 2 22 11 15 15 22 20 17 23 22 14 17 21 27 28 25 27 24 19 19 18 15 14 14 13 13 12 11 11 10 8 6 6 7 8 3 4 3 2 5 6 6 7 8 10 9
32 8 8 8 16 20 19 16 18 17 15 16 12 21 24 24 25 27 34 22 23 20 14 16 16 12 14 14 12 11 10 9 9 7 6 4 7 8 9 10 7 8 9 9 8 7 7 8 8
7 2 14 10 13 21 26 8 16 12 13 14 19 26 27 23 19 27 17 17 19 19 16 17 13 12 17 14 14 11 11 10 9 8 8 4 7 2 3 5 8 5 7 9 7 7 7 6 2
3 11 7 17 14 25 28 18 11 23 15 17 24 24 22 22 17 14 25 20 18 20 20 18 17 15 13 12 14 16 15 16 12 12 10 7 6 7 5 7 4 4 7 7 3 9 9 7 6
6 13 13 10 20 12 19 26 20 24 13 19 21 22 20 18 16 16 14 16 16 11 17 22 15 14 11 12 12 13 17 13 9 14 9 10 6 3 5 5 6 6 4 8 7 8 10 7 7
9 14 8 12 17 19 20 17 21 22 14 20 20 19 18 16 16 16 14 14 15 13 9 15 14 12 5 6 5 7 9 9 8 10 9 8 7 6 6 8 6 10 11 10 8 6 10 13 11
11 11 10 14 12 12 15 16 17 16 18 19 18 17 16 15 16 16 14 16 14 12 11 12 11 11 10 6 5 4 3 4 7 5 7 9 7 5 8 8 7 10 9 11 9 6 12 13 13
9 10 9 11 16 13 19 16 15 16 16 17 17 15 14 13 15 15 14 15 15 14 15 15 11 11 11 10 8 7 7 7 9 11 11 8 9 9 12 13 15 14 10 13 14 13 13 13 16
13 14 11 16 19 5 8 11 14 16 16 16 16 15 14 12 14 13 14 14 16 14 13 11 11 14 15 14 12 9 9 11 9 11 14 14 15 14 13 17 17 13 16 16 15 16 16 16 17
14 13 14 13 20 12 4 11 15 17 16 14 14 14 14 13 16 20 17 14 13 15 14 13 13 13 13 11 10 9 11 11 12 12 15 8 8 7 11 15 14 16 17 16 16 18 17 19 20
17 18 20 13 13 15 14 11 14 17 17 14 14 13 14 15 14 20 20 20 19 19 16 17 13 10 12 8 7 9 9 11 11 10 11 12 11 14 13 15 15 14 15 18 19 19 20 19 18
15 12 17 14 22 25 13 16 18 17 17 15 16 14 15 15 19 20 25 25 23 21 18 13 13 7 7 5 6 6 7 9 10 12 12 11 10 8 8 8 9 10 14 15 15 16 14 17 16
19 9 11 15 17 11 17 17 17 16 17 18 17 16 16 16 16 17 18 15 17 20 21 16 13 10 10 8 8 8 7 9 11 11 11 8 7 5 8 9 11 14 16 16 15 17 14 14 17
15 10 10 14 12 4 8 20 11 14 15 18 17 18 17 17 19 16 20 20 20 17 20 17 15 13 11 8 8 7 7 9 10 4 1 4 2 7 9 8 10 13 15 14 14 12 13 12 14
18 12 18 16 13 11 15 13 18 22 17 16 19 19 19 19 19 18 20 21 21 22 19 21 16 13 10 7 3 3 3 8 4 4 4 11 11 9 11 10 10 10 12 14 14 10 12 13 12
13 16 17 12 12 14 14 9 15 16 17 17 20 21 20 22 21 21 21 23 22 25 22 20 17 13 13 8 3 1 4 8 7 5 7 9 11 8 6 7 6 9 11 14 16 13 13 13 13
18 9 14 8 11 14 17 12 6 10 18 18 10 21 20 21 20 19 27 28 22 25 22 21 19 15 12 10 7 3 1 2 4 6 6 10 6 8 5 3 6 8 10 12 16 15 15 14 14
14 12 8 10 11 13 16 15 11 19 19 20 17 29 20 19 18 16 19 25 25 26 22 21 20 18 15 12 8 4 2 2 4 6 8 5 9 5 5 6 6 8 11 12 13 14 15 14 12
13 16 10 13 11 13 13 9 16 14 19 23 26 29 21 21 18 18 14 25 27 25 23 23 22 20 17 14 10 5 3 4 4 2 0 3 7 7 9 7 6 10 11 12 11 15 13 12 11
16 17 18 18 14 7 6 9 10 8 7 4 7 9 17 14 19 21 19 27 27 26 26 23 23 20 19 17 13 8 7 5 5 2 2 5 4 5 5 6 9 13 15 14 13 14 16 9 9
17 17 13 12 10 11 8 10 10 15 9 10 8 5 6 20 20 21 19 28 29 27 26 25 23 21 20 18 15 13 10 7 7 5 5 6 8 8 9 10 11 13 16 16 15 16 16 14 12
15 12 9 13 11 9 10 4 13 11 9 7 7 7 4 9 10 15 14 27 30 29 28 26 23 21 20 18 16 10 7 8 9 7 7 8 9 9 11 12 13 16 18 18 15 15 16 15 11
20 17 11 9 9 8 10 4 13 11 11 9 6 1 6 2 11 15 14 25 28 27 28 27 25 23 20 18 15 12 9 8 8 8 8 8 9 10 11 13 15 17 18 18 16 15 15 15 14

GFSSGP_925_spd_009.txt.gz
Wind_Speed
5 5 4 2 2 2 10 17 12 16 11 8 19 4 6 4 2 10 22 29 23 23 22 23 24 25 25 25 24 24 24 24 25 23 21 20 18 17 16 15 14 13 11 11 9 10 10 10 11
7 9 9 3 2 9 5 9 12 17 18 19 12 17 20 19 18 18 18 25 24 25 24 24 23 25 24 24 24 25 24 25 23 21 20 18 16 15 15 14 13 11 10 9 9 9 9 8 8
6 8 4 4 3 9 6 8 18 25 26 22 14 18 8 17 14 11 27 25 29 24 25 25 23 24 24 23 23 24 25 23 22 21 20 19 17 15 14 12 10 9 8 8 8 7 7 6 5
1 4 3 2 10 15 12 16 21 23 21 20 18 11 8 21 14 28 30 31 25 24 24 23 23 24 24 23 22 21 22 20 19 18 18 16 15 13 12 10 8 7 7 6 6 6 6 5 4
5 3 4 7 15 13 11 16 19 19 20 23 24 16 11 28 32 29 28 27 24 24 23 21 20 19 21 22 20 20 19 18 16 16 15 14 13 10 9 7 6 5 4 5 4 3 3 3 3
6 3 3 9 9 5 13 21 23 22 20 23 24 20 12 31 30 29 25 25 21 24 23 20 18 18 18 18 17 18 17 17 16 14 12 11 9 7 6 4 3 1 1 0 2 3 3 4 4
9 4 4 6 5 5 4 22 19 18 19 16 20 19 13 23 28 30 28 30 24 20 21 21 19 18 18 17 16 16 16 15 13 11 10 9 7 5 3 1 2 1 4 5 5 7 5 5 6
6 4 4 16 6 5 3 13 23 19 20 19 20 13 18 25 34 28 28 29 27 21 21 19 18 17 16 16 15 13 12 12 11 10 8 6 4 5 7 5 5 5 8 9 8 8 7 7 6
3 2 9 14 3 3 15 16 11 22 22 19 8 17 19 37 37 31 30 27 26 24 20 17 17 16 16 15 14 12 11 11 10 8 7 5 4 8 3 2 5 5 9 10 7 7 5 6 5
5 4 13 15 13 17 13 12 6 7 19 20 19 17 31 33 35 28 23 21 24 25 21 18 19 18 17 15 14 13 12 12 10 9 7 3 3 6 5 3 5 6 6 7 6 5 5 8 4
13 9 21 14 14 15 9 8 6 8 13 22 23 19 17 27 27 26 25 28 29 27 24 22 20 18 18 15 12 13 12 13 10 9 7 6 6 5 5 6 2 5 8 10 5 5 5 9 8
9 19 17 15 20 8 6 7 5 7 4 22 20 17 7 11 18 19 21 22 24 26 26 22 21 18 16 13 13 14 14 14 12 13 13 9 9 6 4 3 4 5 3 4 7 8 8 10 10
8 11 19 23 19 17 18 11 6 6 3 20 19 14 10 7 11 22 24 30 20 21 27 25 19 15 14 11 4 14 17 15 17 14 13 12 9 8 7 7 7 7 8 8 9 7 11 11 11
3 9 19 15 19 19 21 7 8 6 7 19 18 13 11 10 13 16 25 23 17 17 25 24 21 19 14 11 7 8 4 5 9 11 11 11 11 9 7 8 9 8 10 9 11 13 15 16 12
7 8 13 15 20 20 22 14 11 14 15 15 15 14 12 12 20 17 24 24 22 14 27 22 15 10 10 14 11 11 9 4 5 11 12 12 12 12 10 11 12 13 14 13 12 11 14 15 17
6 8 6 10 12 13 13 14 15 15 15 14 15 15 13 10 18 23 24 25 23 21 17 14 12 15 12 11 12 12 14 10 5 7 10 10 12 13 12 11 12 13 13 14 16 15 15 17 17
6 6 14 6 6 6 7 16 19 18 17 17 17 15 13 11 15 23 23 26 24 19 16 15 13 14 14 9 9 10 9 8 9 10 10 8 4 10 9 10 12 11 14 16 15 15 15 17 19
8 6 16 12 9 7 9 10 19 19 18 17 15 15 14 13 14 25 26 25 22 17 19 17 15 14 16 10 9 9 10 12 13 12 12 11 9 7 9 11 11 10 12 14 15 16 15 15 15
11 10 10 7 9 8 8 15 17 16 14 9 10 12 14 13 21 27 26 26 24 21 20 18 17 10 17 14 12 10 12 12 11 12 14 10 5 7 5 6 5 6 9 10 11 14 15 11 16
10 12 12 14 17 9 9 12 12 9 4 16 12 12 14 10 18 23 25 27 27 28 26 24 18 19 17 12 10 9 7 8 11 9 10 4 3 1 4 5 4 8 11 15 15 13 9 14 14
11 6 13 13 17 13 11 3 4 12 13 16 17 16 11 15 18 16 21 24 25 29 28 25 21 17 14 11 10 8 6 7 7 4 11 8 2 3 5 6 5 7 9 11 14 14 11 11 16
7 5 5 4 17 9 12 6 7 20 15 17 18 18 14 18 16 14 19 20 28 33 30 27 22 17 15 12 13 14 10 5 2 7 7 5 4 3 4 4 2 2 7 9 10 13 12 11 13
7 8 6 8 5 5 11 5 9 18 13 10 13 19 17 21 21 19 21 25 29 35 32 28 23 19 18 18 11 11 8 6 8 6 4 7 5 5 6 3 4 5 8 8 9 12 11 11 10
6 4 5 7 1 2 7 8 6 15 19 17 14 18 20 23 23 22 32 32 32 34 34 30 26 21 22 17 12 8 5 4 3 0 2 1 5 5 5 3 4 4 6 8 10 11 12 12 10
5 4 2 3 1 7 8 7 8 20 19 21 13 14 11 24 24 23 23 27 33 31 35 35 29 24 20 16 13 10 10 8 4 5 4 4 2 3 1 4 3 4 5 6 8 10 11 10 7
8 9 6 7 4 10 12 8 6 22 22 20 16 16 15 10 20 23 21 29 36 35 37 37 36 27 21 19 17 13 11 8 9 8 11 7 4 2 3 1 2 4 6 8 10 9 9 10 5
10 6 10 3 4 3 4 6 6 13 15 17 17 13 16 16 12 17 23 31 35 35 37 43 38 31 25 21 19 15 10 11 9 7 7 5 3 4 2 2 4 5 7 9 10 10 10 8 6
11 8 4 3 2 6 6 2 3 6 10 10 14 14 14 14 17 19 17 27 32 34 38 42 38 35 31 25 22 16 15 14 10 8 7 6 5 5 6 7 7 8 10 12 14 13 13 14 13
2 5 4 7 6 5 2 3 4 9 10 10 9 14 15 16 14 16 17 29 33 33 36 38 39 36 32 28 25 18 19 17 13 12 8 7 7 6 7 8 10 11 13 14 15 13 12 13 11
9 9 10 5 6 2 5 5 12 11 9 10 8 9 8 11 17 21 23 24 27 32 33 36 35 37 34 28 26 20 19 14 16 15 11 10 9 8 9 10 11 12 15 15 15 17 16 14 14

GFSSGP_925_spd_012.txt.gz
Wind_Speed
11 10 11 5 2 3 5 6 3 8 2 5 6 7 12 8 4 8 20 27 24 25 24 26 24 25 24 26 24 24 26 26 28 27 23 22 21 20 18 16 14 12 11 10 10 11 10 10 8
8 5 1 1 4 4 4 12 10 10 7 7 9 11 12 7 9 13 17 26 26 26 26 25 25 25 26 24 25 25 25 24 23 21 20 20 19 17 15 14 12 11 10 9 9 9 8 7 7
13 12 1 3 2 11 9 13 12 14 13 10 7 12 6 9 15 17 27 29 26 27 26 25 26 26 25 25 26 27 24 22 20 19 19 18 16 16 14 12 11 10 9 8 7 7 6 4 5
8 2 2 2 5 15 18 17 19 16 13 7 11 10 6 13 12 18 30 28 28 27 26 25 24 24 24 25 26 26 23 21 20 19 18 18 16 14 13 11 10 9 8 6 5 5 4 3 4
6 2 4 3 5 18 19 23 20 19 11 15 11 10 6 16 28 35 32 29 30 28 25 24 24 24 24 24 24 23 21 19 18 17 16 15 14 12 11 10 9 7 6 5 3 2 2 3 2
4 2 5 4 6 13 17 20 20 18 19 18 15 12 5 24 27 28 28 27 28 29 27 24 22 23 24 21 21 21 19 17 16 15 14 13 11 9 8 6 5 4 3 1 3 4 4 4 3
7 4 3 3 14 16 18 20 17 20 15 9 12 11 9 18 26 28 25 26 26 25 25 22 21 22 21 21 19 18 17 16 14 12 11 10 8 6 4 2 2 2 1 3 5 6 6 6 5
5 4 1 1 4 8 15 6 18 23 11 17 16 8 11 15 26 27 26 27 26 25 24 23 23 21 22 19 19 18 17 15 11 11 10 8 6 5 4 2 3 4 3 4 5 4 4 5 5
4 5 4 4 2 1 9 22 12 11 20 10 6 12 22 31 27 27 24 23 25 23 22 22 22 20 21 21 19 18 16 14 11 10 9 8 6 4 3 4 5 5 3 4 4 4 2 4 3
4 4 8 3 4 4 11 21 15 13 17 15 16 19 30 32 28 27 23 20 23 25 23 21 20 21 20 19 19 17 16 14 11 10 8 6 4 3 3 3 5 5 3 5 4 4 5 4 4
7 3 9 4 6 7 9 11 5 20 15 24 24 27 26 28 27 26 25 29 31 27 25 23 22 20 18 18 16 16 15 13 12 10 10 6 5 4 5 3 3 4 6 7 3 4 5 4 4
6 1 9 9 8 6 9 6 4 10 13 19 24 25 24 20 22 24 24 23 25 29 25 25 22 20 17 15 15 15 15 15 13 12 10 9 8 6 5 3 3 3 3 4 4 2 3 6 6
8 13 15 15 10 8 8 6 8 12 18 18 24 22 22 18 22 25 30 29 28 29 27 26 23 21 18 18 15 14 15 17 15 15 11 12 11 9 8 7 6 7 7 6 5 6 8 9 13
15 20 20 16 9 6 13 6 8 15 19 18 16 17 16 16 21 20 23 25 29 27 28 28 28 24 20 18 12 15 13 19 19 18 16 16 17 15 12 11 9 8 9 9 10 11 12 9 10
24 16 14 13 13 10 17 9 12 16 19 18 13 9 8 14 22 22 28 29 31 30 30 31 27 23 21 19 16 15 9 9 9 18 18 16 18 16 15 12 10 10 10 12 14 13 14 14 12
10 15 8 7 18 10 10 6 9 18 18 15 15 14 11 8 20 28 33 30 25 31 31 30 26 23 20 17 16 15 14 12 9 6 16 16 16 16 16 12 10 10 12 12 12 12 11 11 13
5 9 16 8 6 10 6 9 14 16 18 17 17 16 15 12 15 25 33 32 29 29 30 28 27 21 18 14 12 11 12 14 15 10 6 7 9 13 13 9 12 11 10 11 11 12 12 13 13
5 9 17 14 11 3 11 9 20 17 16 18 17 15 13 13 16 25 32 33 29 28 27 23 21 17 17 12 10 10 10 11 12 11 11 9 8 8 7 6 5 3 5 7 8 10 10 11 10
4 11 13 13 11 10 18 13 20 19 17 18 17 15 14 15 20 25 32 33 32 29 25 24 21 18 17 17 13 12 13 13 13 13 13 11 6 5 4 1 0 1 3 4 7 7 8 6 10
4 7 13 3 12 7 13 17 20 20 22 19 18 17 17 12 11 15 23 28 32 29 25 24 23 21 21 19 16 12 11 10 10 7 8 6 8 7 6 4 4 2 2 6 7 7 6 4 10
5 10 13 9 7 7 12 1 6 13 16 10 18 21 20 19 17 14 17 24 29 28 26 25 23 22 23 18 15 12 10 8 7 7 9 12 8 3 2 3 3 1 3 6 5 7 8 8 8
8 11 18 9 15 7 8 7 7 14 15 9 13 18 18 20 21 17 19 21 26 32 28 26 24 23 21 19 18 15 12 10 5 14 12 9 6 5 3 4 2 2 2 3 3 5 5 5 7
12 9 11 12 16 7 5 4 18 7 14 14 12 20 19 22 23 21 24 30 32 33 33 31 29 24 21 20 17 17 13 10 13 15 11 7 6 5 7 6 7 3 2 2 3 5 5 4 4
14 4 7 5 5 2 11 12 4 10 26 18 12 19 19 21 24 23 33 33 34 36 37 36 32 27 23 20 18 17 17 16 15 13 11 10 6 4 7 8 3 2 2 2 3 5 6 4 4
5 6 1 2 0 7 8 10 14 21 24 23 22 23 21 23 22 21 21 26 31 35 36 41 38 33 28 26 22 19 15 13 12 10 10 9 8 10 9 6 3 2 1 1 4 4 5 4 3
8 10 6 7 3 6 7 6 10 17 26 25 20 26 23 24 23 24 23 30 35 39 38 36 42 39 35 32 25 20 16 14 10 10 8 9 10 9 7 7 4 2 2 4 6 7 6 5 4
9 4 9 7 1 3 4 8 8 6 17 19 17 21 22 24 23 23 25 31 33 36 39 41 42 43 41 34 26 22 20 17 14 13 12 12 9 9 9 8 7 6 5 4 5 5 6 7 6
13 7 3 3 6 4 5 5 6 5 13 14 16 18 17 22 22 21 20 28 34 38 41 40 42 42 41 32 27 25 20 17 16 15 14 12 11 10 9 8 7 7 7 8 8 9 9 9 10
1 3 3 6 5 6 3 6 7 9 16 18 16 18 14 19 22 21 17 32 37 36 37 38 35 36 41 36 32 30 23 20 18 16 13 11 11 10 9 9 10 10 9 10 11 12 11 12 11
9 10 8 6 5 2 5 6 4 11 16 16 12 12 9 15 15 19 19 30 32 34 33 35 34 36 45 39 37 31 25 24 23 21 15 12 12 11 11 12 12 11 12 12 12 13 13 15 13

GFSSGP_925_spd_015.txt.gz
Wind_Speed
18 18 17 2 1 4 0 2 2 3 4 0 5 7 9 10 2 4 10 15 20 20 21 24 24 22 21 22 22 22 24 26 27 25 22 22 20 18 16 13 12 11 10 10 8 7 7 7 7
22 18 5 2 4 3 3 2 4 3 6 10 10 7 10 6 5 11 13 21 23 23 23 24 24 24 23 23 23 23 22 24 22 21 21 20 19 17 15 12 11 10 9 7 7 6 5 5 5
19 6 3 3 3 5 4 2 5 8 10 4 6 9 4 3 10 15 14 24 24 23 23 23 23 23 22 22 23 23 24 24 21 20 19 17 16 14 12 10 10 8 7 6 5 4 4 3 3
9 2 2 4 4 3 6 6 5 8 3 9 13 9 5 10 10 12 28 27 25 23 23 21 22 21 21 22 24 23 20 18 17 17 15 14 13 12 9 9 8 7 5 4 4 2 3 2 2
3 2 4 4 2 3 5 11 12 7 4 12 7 6 5 4 14 28 26 26 26 24 22 21 21 21 21 23 22 19 17 16 16 16 14 13 12 10 9 8 6 5 4 3 2 3 3 4 3
2 3 6 3 3 4 6 9 12 8 10 11 12 8 3 20 26 24 25 27 25 25 23 21 21 21 22 21 19 19 16 16 15 14 13 12 10 9 8 6 4 3 2 1 3 5 5 5 5
4 5 4 5 6 8 8 9 7 13 11 9 11 6 6 14 22 25 26 26 25 24 23 21 21 20 20 19 19 17 16 15 15 13 12 11 10 8 6 4 3 2 1 4 5 6 6 5 5
4 5 4 2 9 5 9 5 7 10 5 14 11 5 10 14 25 24 25 26 26 25 23 21 21 20 20 20 18 18 16 15 13 12 12 10 8 6 4 2 2 3 4 5 6 6 5 6 5
3 5 3 6 7 6 10 5 7 7 12 5 5 7 18 27 25 23 20 21 23 23 22 21 22 21 20 20 18 17 16 15 12 11 11 9 7 5 2 3 4 4 3 4 4 4 6 7 6
5 3 6 8 6 12 10 15 10 8 12 8 15 16 25 28 26 23 20 20 22 23 24 24 23 23 21 20 18 17 16 15 13 12 11 9 6 4 4 4 4 3 4 5 5 4 5 5 6
4 6 6 7 7 16 16 12 4 17 7 20 22 21 23 24 24 23 23 29 33 30 26 25 24 23 23 21 20 18 18 16 15 13 12 9 7 4 4 5 3 2 3 3 4 3 4 5 7
4 5 7 7 8 8 15 9 7 10 6 17 22 22 22 18 19 21 22 22 22 27 28 26 25 24 23 20 19 18 17 16 16 15 12 12 11 8 6 6 5 3 3 4 4 2 2 4 6
7 6 8 8 10 10 7 4 6 6 14 16 19 20 21 17 23 25 27 27 27 27 28 27 26 24 23 20 17 17 16 16 15 14 14 14 13 12 10 9 6 6 7 5 3 4 5 8 8
7 3 8 7 8 4 11 8 7 10 17 19 20 20 18 18 22 19 18 21 29 30 29 28 26 23 22 19 17 16 15 15 16 17 17 15 15 16 13 11 9 8 8 6 8 8 9 10 10
12 5 7 4 3 6 13 4 8 18 20 20 20 18 18 16 22 23 26 25 30 32 30 29 27 24 23 20 18 15 16 15 14 15 19 20 21 20 15 15 11 7 7 10 10 9 10 9 7
9 5 6 4 6 8 6 5 12 16 21 20 18 17 16 16 23 27 28 32 33 31 29 31 29 27 25 24 22 17 17 14 13 11 11 18 18 15 17 14 11 7 10 10 8 9 8 8 10
5 13 5 6 8 4 2 5 15 16 17 17 17 19 16 16 18 25 29 35 35 35 34 32 31 29 28 25 23 20 19 18 17 13 10 8 11 13 17 13 11 9 8 7 6 6 6 7 8
11 8 8 11 16 6 6 6 18 18 17 17 15 13 13 14 17 27 28 32 35 35 33 32 33 31 28 23 20 16 15 16 14 13 13 10 10 8 7 8 9 4 1 1 2 4 5 6 6
10 8 17 10 8 5 8 8 20 20 17 16 15 14 14 14 16 24 29 30 33 33 33 34 33 31 25 23 19 15 14 13 12 11 11 11 9 7 6 7 6 5 3 3 5 3 3 2 5
8 9 13 2 9 5 7 8 18 20 21 20 20 17 18 14 10 17 23 26 30 34 34 32 31 29 26 24 21 14 9 10 11 9 7 7 8 9 10 9 7 6 3 3 3 1 1 1 3
5 8 10 8 10 5 9 4 12 13 10 15 16 18 16 17 17 15 20 26 30 31 34 31 32 27 25 24 19 14 9 8 7 9 9 11 11 9 9 8 7 4 3 2 1 1 2 1 0
5 8 8 10 17 8 8 5 8 13 15 14 16 17 17 16 16 15 20 24 29 36 35 33 30 28 27 25 22 19 16 12 10 10 7 14 10 8 7 6 4 6 4 4 1 1 2 2 1
9 9 9 9 15 5 5 4 6 13 10 21 20 19 19 18 19 18 21 31 36 36 37 32 30 29 28 28 25 21 18 13 10 13 14 13 11 10 9 9 7 7 5 4 2 1 1 1 1
2 4 8 6 5 5 12 8 5 10 27 26 17 18 21 20 20 19 29 27 28 31 37 35 34 32 30 29 26 24 21 16 16 19 17 13 12 10 11 11 9 7 4 3 2 1 0 1 2
5 7 2 3 2 6 9 7 11 18 24 28 26 21 21 21 21 20 19 23 26 33 39 41 39 38 35 32 29 26 22 20 20 22 18 15 13 12 12 11 8 5 4 3 3 4 4 3 4
7 10 6 7 5 6 7 7 12 18 20 24 20 20 16 19 20 21 22 28 32 32 32 34 39 41 40 35 32 26 23 22 21 20 18 16 16 14 13 11 9 7 6 5 5 7 8 8 8
4 4 9 5 1 3 5 6 8 7 11 19 23 15 18 19 21 22 21 30 32 33 35 40 37 36 40 39 33 28 23 21 19 19 16 15 14 13 14 12 10 9 9 8 7 8 8 10 9
13 7 1 2 6 5 4 3 5 6 6 12 15 17 20 20 19 19 19 27 33 36 38 36 37 36 39 41 35 31 26 23 21 20 19 18 16 15 14 13 13 11 10 10 10 10 11 12 13
3 3 3 5 4 7 4 7 9 8 8 14 18 22 21 19 19 18 18 30 35 35 34 35 34 36 41 44 40 33 27 23 22 21 19 19 18 17 16 14 13 12 11 10 12 13 13 12 14
7 10 9 7 6 1 4 7 3 9 9 14 16 16 14 16 17 19 19 28 28 32 32 33 32 36 43 46 42 36 30 26 25 23 21 20 20 18 17 15 14 13 12 11 13 13 13 14 16

GFSSGP_925_spd_018.txt.gz
Wind_Speed
18 15 6 4 2 4 3 3 2 4 2 1 3 4 9 7 2 4 8 9 16 17 17 18 17 17 19 19 20 21 20 20 21 20 21 20 15 14 12 10 9 8 7 7 8 8 7 5 4
19 15 3 2 3 3 2 3 6 3 4 7 8 6 8 5 5 9 11 15 18 18 18 19 18 19 20 20 21 23 21 21 22 21 19 16 14 13 11 9 8 7 6 6 7 6 5 4 4
21 6 2 1 3 1 1 3 8 9 7 3 5 5 4 3 6 6 14 18 20 19 19 20 19 20 20 20 21 22 23 21 19 19 17 15 13 11 9 7 6 6 5 6 5 5 4 3 4
7 2 2 4 3 2 1 7 11 8 4 7 9 7 5 10 4 9 24 21 21 20 20 19 19 19 18 18 20 20 22 18 18 16 14 12 10 9 7 6 5 4 4 5 4 4 4 4 4
4 2 3 4 4 4 4 5 7 5 4 7 2 5 6 3 12 23 22 22 23 21 19 19 19 18 18 19 19 19 17 15 15 13 11 11 10 8 6 5 3 3 3 3 4 5 6 5 5
1 1 5 2 2 3 4 6 4 7 7 8 8 6 3 15 23 22 22 21 21 21 20 18 17 17 18 18 18 16 15 14 14 13 11 10 9 7 5 3 1 1 2 4 5 7 8 7 6
3 3 4 4 3 1 2 5 4 4 9 6 8 5 6 10 22 22 22 22 21 20 20 18 17 16 18 17 17 15 14 14 13 12 11 9 7 6 3 1 1 2 4 6 8 7 8 7 7
4 4 4 2 5 3 4 2 5 6 3 8 9 6 9 11 23 22 23 21 20 19 18 18 19 18 18 18 15 13 12 12 11 11 9 7 6 4 2 1 3 4 5 7 7 7 5 6 6
4 4 3 6 8 4 6 4 4 5 10 2 4 5 12 25 24 23 21 19 19 19 18 18 18 18 18 17 14 13 12 12 10 9 9 8 7 6 5 4 4 5 4 4 6 6 6 6 6
3 4 9 8 7 7 10 8 6 5 8 3 8 17 24 25 24 21 19 17 17 20 20 19 20 19 18 17 16 15 14 13 11 11 10 8 8 7 5 5 4 4 4 4 5 6 6 6 7
0 4 6 6 8 15 8 8 2 12 3 5 18 20 20 22 20 19 20 22 25 26 23 23 22 21 20 19 19 17 16 15 13 12 11 10 9 7 6 7 5 4 4 3 2 4 5 5 7
2 4 6 6 8 11 12 8 6 7 5 9 18 20 19 17 17 19 20 21 24 24 26 25 24 23 22 20 20 18 18 17 16 15 13 13 11 10 8 7 6 5 4 6 6 5 4 5 8
4 4 5 7 8 9 11 6 4 6 10 14 17 18 18 15 20 21 20 19 23 26 26 25 24 23 22 21 18 18 18 17 15 16 15 15 14 13 11 8 8 6 7 6 5 5 6 8 9
1 5 8 7 7 5 8 4 8 6 14 15 17 18 16 15 21 17 17 18 24 27 28 25 25 24 23 22 19 18 17 16 15 14 16 16 16 16 13 12 10 9 8 7 8 9 9 9 10
8 6 8 4 4 4 10 2 7 11 17 18 17 15 15 14 18 22 25 26 30 32 28 27 26 24 23 21 19 18 17 15 15 15 18 16 15 17 15 14 13 10 8 9 8 8 8 7 5
5 5 5 4 6 7 6 6 4 15 18 17 16 14 14 14 21 22 22 26 30 30 30 29 26 25 24 23 22 20 18 18 15 12 14 13 15 16 13 17 12 9 9 8 7 8 7 7 7
5 6 4 5 7 7 3 4 8 15 16 17 16 15 15 13 16 23 26 31 30 34 33 31 30 27 25 25 24 21 18 17 15 14 13 11 9 10 12 13 10 8 7 6 4 5 6 6 8
6 7 1 6 7 9 6 4 12 15 15 17 16 15 15 14 17 26 27 31 32 33 33 32 32 30 27 27 25 22 20 19 19 18 17 13 10 10 8 6 7 7 5 4 4 6 7 7 7
8 7 12 3 1 2 6 4 15 16 14 14 15 15 15 15 21 25 27 30 31 31 33 34 32 31 30 27 25 22 22 19 17 15 13 12 11 10 8 8 6 6 5 3 3 5 4 3 5
9 8 11 1 4 2 1 4 9 15 19 17 16 14 16 16 8 15 22 25 31 36 35 35 34 33 32 29 28 23 19 15 13 12 12 12 11 12 10 11 9 8 5 3 5 4 4 3 3
7 17 7 18 7 3 5 4 7 10 11 10 13 15 13 14 11 11 17 25 29 31 36 36 35 34 34 30 28 21 12 9 10 13 12 11 12 13 12 13 9 8 6 4 5 4 3 2 2
7 8 14 10 12 8 7 5 7 14 16 15 18 16 16 14 11 10 18 22 27 36 38 38 35 35 35 33 31 27 21 16 14 13 12 13 14 13 13 11 8 7 7 5 5 3 3 3 2
8 8 10 12 10 6 2 2 7 13 13 21 21 21 19 19 17 16 18 28 33 35 39 38 36 36 36 35 32 28 23 17 13 14 13 15 16 14 14 12 9 11 8 7 5 4 3 3 2
10 8 7 5 4 2 9 10 6 7 21 25 17 22 21 20 18 18 27 26 27 29 37 40 39 38 36 35 32 30 26 21 17 16 18 19 17 16 15 15 13 11 9 8 6 6 3 3 4
6 7 1 3 1 5 6 5 13 10 14 23 22 22 21 20 19 17 16 22 27 32 38 39 42 42 40 38 34 32 29 24 21 21 22 20 18 16 17 17 16 12 9 8 7 6 5 5 5
7 9 6 7 6 5 3 9 14 21 16 13 12 14 15 17 19 19 19 27 29 32 34 34 37 40 41 39 35 33 28 25 22 20 23 21 19 17 16 17 15 11 9 8 8 7 8 9 8
5 4 7 7 2 3 5 8 7 7 9 9 16 10 17 19 20 22 20 29 32 32 37 42 40 39 41 42 39 35 31 26 24 21 22 21 19 18 17 17 14 13 11 10 9 8 8 8 9
8 8 4 2 5 4 4 4 6 5 11 11 8 16 19 18 18 18 19 28 33 37 40 37 40 42 42 43 43 38 33 29 25 23 23 20 19 18 18 16 15 14 12 11 11 10 9 10 11
3 3 5 5 4 7 4 6 9 11 12 12 15 17 17 18 19 20 18 29 35 34 32 35 35 38 39 44 43 40 37 32 28 26 23 21 19 18 17 16 15 15 14 12 12 11 10 11 12
11 10 9 6 5 3 4 7 5 11 8 6 12 13 9 12 15 17 17 25 27 31 31 35 35 35 42 43 44 43 40 35 31 28 24 21 20 19 18 17 17 16 15 13 12 11 11 12 13

GFSSGP_925_spd_021.txt.gz
Wind_Speed
10 7 1 2 1 5 7 5 3 8 4 3 5 3 9 8 3 9 9 8 15 16 16 17 18 19 17 17 17 19 19 19 20 19 17 15 13 10 9 9 8 8 8 8 8 8 8 9 9
10 5 1 0 3 6 3 3 8 5 8 11 9 5 6 5 5 12 11 12 16 15 14 14 17 17 17 18 18 18 18 17 19 18 17 12 11 10 8 7 6 7 7 7 7 7 8 8 8
11 4 2 2 3 5 5 6 8 12 7 4 5 8 4 4 9 13 14 16 16 15 15 15 17 18 18 19 19 18 19 17 17 17 14 11 11 9 6 5 6 5 6 6 6 7 8 7 7
5 1 2 3 7 7 4 12 15 11 7 6 10 10 6 10 5 10 19 19 18 17 16 17 18 18 19 20 20 19 19 17 16 15 13 11 9 7 5 5 5 5 5 5 6 7 8 7 7
3 1 1 4 6 6 11 13 12 7 5 7 3 7 8 5 14 21 19 18 18 18 16 16 18 18 18 18 19 19 15 15 15 13 11 9 7 5 5 4 3 4 4 5 7 8 8 8 7
3 1 2 4 5 7 8 11 7 5 8 9 12 11 5 11 18 18 18 18 17 17 16 15 16 17 17 17 17 18 14 14 13 10 10 9 7 6 4 2 2 3 4 6 7 9 8 8 8
2 1 3 5 5 6 6 11 7 8 7 7 12 9 6 12 17 17 17 17 17 16 16 15 15 16 17 17 15 14 13 12 12 11 9 8 6 4 2 1 1 3 4 6 8 7 7 7 7
2 1 5 3 6 5 9 7 8 8 5 10 12 6 8 16 18 18 16 16 15 15 14 14 14 16 15 14 14 13 12 12 10 9 8 6 4 3 0 1 4 5 5 5 6 5 6 6 6
4 2 5 7 9 6 12 7 7 5 12 4 5 8 14 23 21 19 17 15 14 14 14 15 15 15 15 14 12 11 11 11 9 8 7 5 4 4 4 5 5 6 5 6 6 5 5 5 5
5 3 11 9 9 9 12 10 10 5 14 6 7 14 25 24 22 22 20 18 17 17 15 15 15 15 14 12 11 10 9 8 7 7 7 6 6 6 6 6 4 5 4 7 6 5 4 5 4
4 3 6 9 12 15 14 10 8 9 13 10 12 20 24 23 22 21 20 18 18 17 15 16 15 15 15 13 12 10 10 9 8 9 9 8 7 7 6 6 5 5 5 5 5 6 3 3 4
5 4 7 9 13 16 17 13 8 14 2 11 18 23 22 19 19 20 20 20 19 18 17 16 16 15 15 13 13 12 11 11 10 10 11 10 8 9 7 7 6 5 5 6 6 5 6 4 6
4 4 5 4 14 15 16 14 8 13 4 14 21 23 21 19 21 20 18 18 18 20 19 18 17 17 16 15 13 13 13 13 13 11 12 12 11 10 9 8 8 7 7 6 6 6 7 8 7
5 5 8 9 14 16 16 10 11 10 12 18 22 21 19 19 20 17 17 18 20 19 20 19 19 19 17 17 16 14 14 14 14 13 13 15 13 12 13 11 9 8 8 7 7 7 8 7 8
12 9 10 11 14 8 15 9 13 13 16 18 20 19 18 19 20 22 23 22 22 22 20 21 21 20 20 20 18 16 15 14 14 15 15 15 15 16 14 13 12 10 9 9 9 10 7 8 7
5 6 7 8 13 9 16 13 13 17 19 19 19 18 18 18 23 22 22 22 20 20 22 21 19 20 21 21 19 16 14 13 14 14 14 15 15 17 15 13 10 12 10 7 8 7 6 6 5
3 7 10 10 11 9 14 6 13 18 18 18 19 19 17 17 20 23 24 23 22 22 21 22 22 21 23 23 19 17 15 15 13 14 13 12 11 12 14 11 9 10 9 8 4 4 5 7 8
12 8 8 8 13 9 13 9 6 15 19 19 19 19 18 18 20 24 24 24 22 22 22 21 21 20 22 18 18 15 15 14 13 15 15 14 13 12 10 7 8 8 7 4 4 5 6 6 7
15 15 16 9 10 11 14 12 7 14 17 18 18 19 19 20 24 26 26 25 23 22 22 24 23 25 20 18 15 15 17 16 15 16 18 17 15 15 11 9 8 9 7 4 4 5 5 5 6
15 15 14 7 11 12 11 14 10 15 21 20 20 20 20 20 19 23 25 25 26 26 28 25 27 27 28 21 17 14 13 13 13 12 13 14 13 13 12 11 9 9 6 3 4 3 5 4 3
12 17 14 14 12 4 6 15 15 13 18 18 20 20 20 21 20 19 25 27 28 28 27 28 31 32 32 25 16 13 13 11 10 13 12 13 14 14 13 13 11 9 5 3 2 3 3 5 2
17 15 16 16 12 13 12 11 11 16 18 21 22 21 22 21 20 19 23 28 29 30 29 30 32 33 33 29 21 19 18 17 14 11 10 11 13 13 13 13 13 9 7 6 3 2 2 2 3
12 12 18 17 18 9 9 7 14 8 16 23 25 25 25 23 22 22 23 28 30 30 29 29 33 35 34 29 27 22 21 17 11 9 10 12 14 14 15 14 13 10 9 7 5 4 4 3 2
10 12 6 5 9 9 17 14 13 9 15 22 22 25 25 24 24 23 30 29 28 28 29 29 32 37 35 30 29 28 23 18 13 11 11 10 12 14 15 15 13 10 9 8 6 7 5 4 3
14 16 7 8 7 9 12 12 17 12 19 22 19 25 27 26 23 23 22 25 28 31 32 31 32 35 34 31 30 30 26 22 21 17 15 15 14 14 16 16 14 12 12 9 9 9 7 6 5
21 20 11 17 10 10 4 11 13 17 23 13 16 14 20 24 23 24 21 28 30 32 32 32 33 34 35 34 32 28 26 23 26 21 17 18 16 14 15 17 16 15 12 11 10 7 6 7 7
15 13 17 9 1 7 7 6 10 13 15 16 21 16 19 23 25 28 25 32 32 31 34 37 35 34 36 31 29 29 28 26 25 24 21 19 19 15 17 16 17 16 14 11 9 7 7 8 9
16 15 10 8 17 15 8 5 7 6 13 16 15 17 20 22 23 25 24 30 32 34 38 34 35 40 39 31 30 27 27 30 24 19 18 19 19 17 15 16 16 16 14 13 12 10 10 10 10
8 9 5 7 9 15 15 13 8 13 13 12 16 17 19 19 23 23 22 30 33 34 30 33 34 34 32 36 34 30 26 24 25 22 20 16 16 15 16 16 17 16 15 14 13 12 11 11 11
24 20 18 11 12 6 11 14 5 14 14 11 14 13 10 15 19 20 21 27 29 30 30 33 35 36 39 36 32 31 26 30 28 20 17 17 13 13 16 18 19 18 15 13 13 12 12 13 13

GFSSGP_925_spd_024.txt.gz
Wind_Speed
19 13 7 9 6 5 12 8 11 7 6 11 8 4 9 13 12 11 21 20 18 19 20 19 19 20 19 17 16 16 17 17 17 14 13 12 11 12 11 10 10 11 11 10 11 10 10 10 10
13 9 8 5 4 5 8 7 9 9 11 12 10 7 6 12 12 18 17 20 20 20 18 18 18 17 16 16 16 16 17 17 15 13 12 10 9 9 9 8 10 10 9 9 9 10 9 9 9
12 9 5 3 5 7 9 7 10 11 9 5 5 9 5 9 16 13 20 19 17 14 15 14 15 16 16 17 16 16 16 16 14 14 11 9 8 7 7 7 9 9 8 8 8 8 8 7 7
9 6 5 1 10 6 9 9 12 11 8 4 10 11 10 13 11 13 19 17 15 14 14 14 14 15 16 16 16 16 15 15 14 13 10 9 8 6 6 7 7 7 7 7 7 7 7 7 7
6 4 3 9 10 8 10 10 10 8 7 8 10 11 13 9 14 20 18 17 17 17 15 14 14 15 16 17 16 17 15 14 13 11 9 8 6 5 6 6 5 6 6 6 7 7 8 7 7
5 4 5 10 12 9 8 8 7 7 9 9 17 17 9 16 20 19 19 18 18 18 16 15 15 14 15 16 16 16 14 13 12 10 8 7 5 4 4 4 3 3 4 5 6 7 7 7 7
6 7 8 10 11 10 10 8 5 8 10 9 15 13 12 18 19 20 19 18 18 18 17 16 15 15 15 15 14 12 12 11 10 8 7 6 4 3 2 1 2 3 4 5 6 6 6 7 6
5 5 5 6 7 12 10 8 8 8 8 13 10 7 14 21 22 21 19 18 17 17 15 16 16 15 14 13 12 11 10 10 9 8 7 5 3 1 2 3 4 5 5 5 5 5 5 5 5
5 7 4 5 5 10 13 9 8 7 12 8 5 9 22 25 24 22 20 18 17 16 16 16 16 16 14 13 12 11 10 10 9 6 6 3 3 2 3 5 5 5 5 5 4 5 4 3 4
9 8 3 5 7 13 14 9 11 9 13 11 9 15 25 26 24 23 21 20 19 17 15 16 16 16 15 13 11 10 9 8 8 7 6 5 4 4 4 5 5 5 5 3 3 4 2 2 3
9 10 4 5 7 16 15 10 10 8 13 13 13 19 24 25 23 22 20 19 19 19 18 17 16 16 15 13 12 11 10 9 8 8 7 6 5 4 4 4 4 3 5 4 4 3 2 2 4
9 3 1 7 9 14 15 13 9 10 7 12 13 21 23 21 21 21 20 20 20 19 17 17 17 16 16 13 13 12 11 10 9 8 8 7 6 6 5 4 3 3 4 5 5 4 4 4 5
12 5 4 4 11 11 13 12 10 12 3 12 16 22 22 19 22 21 20 19 19 19 18 18 18 17 16 14 13 12 11 11 10 9 9 9 8 7 7 5 5 5 6 6 5 5 7 8 8
10 5 2 6 12 12 13 13 11 12 7 16 19 22 21 20 22 20 19 19 20 19 19 18 19 18 17 16 14 13 12 11 12 11 11 11 10 9 7 8 8 6 7 6 5 6 8 7 8
7 9 6 8 12 10 12 13 13 15 13 16 19 19 19 19 23 22 22 21 21 21 19 19 19 19 18 17 16 14 13 13 12 12 11 12 12 13 10 9 9 9 7 7 4 7 7 8 8
13 11 10 11 14 9 15 14 16 17 16 17 19 18 18 19 22 22 21 21 20 20 21 20 19 19 19 18 16 15 14 13 13 12 12 11 12 12 11 8 9 9 9 8 6 6 7 8 9
13 14 15 11 15 10 15 7 16 16 17 17 18 19 18 17 20 22 22 21 20 20 20 20 20 19 20 18 16 15 14 13 12 12 12 11 10 9 9 9 11 9 9 7 6 6 7 10 10
17 18 16 13 16 12 16 9 4 15 18 17 18 18 18 19 20 23 23 23 21 19 19 19 20 19 18 16 16 14 14 13 13 13 12 10 10 10 9 8 9 7 8 6 3 6 9 8 7
15 15 15 14 14 16 15 14 11 11 16 17 18 19 20 20 22 24 25 24 22 21 20 21 21 20 18 17 16 16 15 13 12 13 12 12 12 13 12 11 9 7 8 3 3 7 6 8 5
18 18 17 13 9 15 13 15 13 13 16 18 19 20 20 20 19 23 25 26 26 24 24 23 24 22 21 18 16 14 12 13 12 11 11 11 10 11 10 10 7 5 3 2 4 4 7 4 4
21 20 18 14 12 15 9 14 15 16 17 16 20 20 22 21 21 21 26 27 27 27 26 26 26 25 23 22 17 13 12 11 11 12 11 10 10 10 8 7 6 5 4 5 3 4 4 5 4
23 21 18 16 14 13 14 11 13 16 18 19 20 21 22 23 22 21 24 28 29 29 27 27 27 26 26 24 22 19 16 15 11 9 8 8 8 7 7 7 6 6 5 3 3 3 3 3 4
23 17 17 18 18 17 14 9 13 5 14 18 22 23 23 23 23 23 23 30 31 30 29 28 28 28 27 26 25 22 20 17 13 10 7 9 9 10 9 8 7 6 5 4 3 3 2 2 4
20 12 15 18 16 19 21 14 14 13 15 16 16 22 24 25 23 22 28 29 30 31 30 29 29 30 29 27 26 25 22 19 15 13 12 11 10 10 11 12 11 9 6 6 4 4 4 3 3
21 18 12 15 15 15 20 16 16 9 12 14 14 19 23 23 23 23 23 25 30 32 32 31 29 30 30 29 28 27 26 22 19 16 14 11 10 10 10 11 11 9 8 6 4 6 5 4 5
28 26 15 25 16 14 18 16 19 19 20 20 15 11 17 23 23 25 25 29 32 33 33 31 30 31 32 31 30 27 25 23 20 17 14 13 11 10 10 12 11 10 10 9 7 7 8 7 7
28 27 25 23 20 17 18 15 22 14 17 18 16 14 15 20 24 27 26 33 34 34 34 35 33 33 33 33 29 28 25 23 20 17 16 15 13 10 12 13 11 11 11 10 9 9 9 9 8
28 23 24 21 25 23 21 21 13 17 19 19 17 14 17 18 21 23 25 32 36 36 36 35 35 35 33 32 31 28 26 24 22 22 19 16 16 16 16 14 12 12 12 11 12 11 11 10 9
21 20 25 23 22 18 18 18 16 14 13 12 12 13 13 14 18 21 23 33 36 35 35 35 34 33 31 34 34 30 28 26 25 25 23 22 17 18 20 17 11 13 14 14 14 13 12 12 10
25 25 27 18 25 20 21 17 18 20 18 21 21 15 10 10 12 17 20 26 32 35 34 33 34 34 35 35 33 32 30 29 30 28 27 22 21 19 21 18 16 21 18 16 16 15 13 13 12

GFSSGP_925_spd_027.txt.gz
Wind_Speed
20 17 17 11 4 3 5 7 13 5 8 12 6 9 13 8 10 10 16 18 16 20 21 19 21 18 19 16 15 16 15 17 15 15 14 13 13 13 11 12 12 12 11 12 12 11 11 11 11
19 17 19 5 3 3 10 15 10 12 16 13 10 7 17 23 23 21 21 20 22 22 21 19 19 17 16 15 14 15 15 16 14 14 11 11 11 11 10 10 11 10 11 11 11 10 10 9 9
18 15 10 6 7 8 12 11 14 15 11 11 8 11 10 19 22 19 26 24 20 20 20 18 16 14 15 15 16 16 15 14 13 12 10 9 9 9 9 9 9 9 10 10 10 8 8 7 7
13 9 9 8 11 11 14 13 13 12 10 8 17 15 21 21 24 30 26 24 20 18 18 17 15 15 16 16 16 15 14 13 13 10 9 9 8 8 8 7 8 8 8 8 8 8 7 6 5
17 10 10 9 8 14 12 11 11 7 11 12 21 21 17 17 27 27 24 19 24 18 18 16 17 17 16 15 15 14 14 13 12 8 8 7 6 7 6 6 6 6 7 7 7 8 7 6 5
10 8 2 10 11 8 11 4 10 13 12 9 20 19 12 21 22 22 23 21 20 21 20 17 17 17 16 15 15 13 12 11 9 8 6 6 5 5 4 4 4 5 5 6 6 6 7 7 6
13 9 9 13 10 10 9 4 6 12 12 17 17 19 16 20 23 22 22 19 18 20 19 16 15 15 15 14 13 11 10 9 8 7 6 5 5 4 2 2 3 4 4 4 5 5 6 6 6
12 13 5 10 13 11 10 5 11 11 13 17 18 12 19 22 23 22 21 22 18 17 16 16 15 15 14 12 11 9 9 9 7 7 6 5 3 2 4 3 3 5 4 3 2 3 3 1 3
10 4 12 6 10 15 10 11 7 10 12 10 6 19 23 26 24 27 23 23 25 18 20 18 16 15 14 13 11 9 9 9 8 6 5 2 7 4 5 1 4 3 4 3 2 2 2 4 3
13 4 8 6 13 16 10 11 11 12 14 13 10 22 26 25 22 22 20 26 21 18 11 17 18 17 15 15 12 10 9 8 7 7 7 5 3 3 4 3 3 1 3 2 2 4 4 6 8
15 8 10 8 7 14 11 13 10 13 12 16 17 22 23 25 22 21 20 20 19 20 18 23 18 16 15 14 10 11 10 11 9 7 7 6 3 6 6 7 1 6 4 7 3 3 3 9 6
16 13 7 9 6 11 12 14 10 10 12 16 17 22 22 20 19 21 20 20 20 20 18 18 17 16 14 12 12 12 11 10 9 9 9 6 6 5 6 4 3 1 5 3 5 1 4 7 6
14 8 4 6 8 12 14 11 13 9 8 16 17 22 22 19 21 22 21 21 20 20 19 18 18 17 15 11 12 11 10 10 10 7 8 8 9 3 6 1 5 6 5 6 7 4 6 7 6
11 12 1 4 12 9 10 14 12 13 9 17 18 22 21 21 22 21 21 21 21 21 20 19 19 18 16 16 10 11 9 9 10 9 9 8 9 6 3 6 9 8 6 5 5 5 7 7 7
16 5 8 8 13 12 11 15 14 17 13 17 18 19 20 20 23 21 21 21 21 21 21 20 19 18 17 16 14 13 12 12 11 11 9 9 8 8 8 10 10 9 6 5 5 5 8 10 11
15 15 14 15 13 12 18 18 18 18 16 18 19 18 18 19 22 22 22 22 22 21 21 20 20 20 18 17 15 15 14 12 13 10 6 9 9 10 9 9 10 9 9 3 7 7 7 9 11
17 16 19 15 15 13 18 12 19 19 16 17 17 18 18 18 20 23 23 22 22 21 21 21 20 19 19 18 16 15 14 13 11 7 10 9 9 10 9 11 11 5 9 6 7 9 8 10 11
21 21 20 19 17 12 14 7 18 16 18 17 17 18 18 19 20 24 24 24 22 22 21 22 21 19 18 17 17 15 13 10 13 13 13 10 8 10 11 11 7 5 8 6 2 5 9 8 5
22 20 11 15 23 18 17 13 13 16 15 17 19 19 20 20 20 24 25 25 24 23 22 22 21 20 19 19 18 17 17 16 13 14 12 8 10 11 12 13 9 6 8 2 2 7 11 7 6
27 22 18 14 20 19 18 18 15 20 15 16 18 21 20 21 20 22 25 26 27 26 25 24 23 21 22 21 19 16 14 16 16 15 11 10 7 11 10 10 8 5 8 3 1 3 7 7 3
26 25 17 17 20 17 18 19 18 17 18 17 17 18 22 22 22 22 24 28 29 29 28 27 26 25 24 23 19 14 11 10 7 10 12 13 11 9 9 8 8 5 3 2 2 1 3 6 3
25 25 19 19 16 13 19 15 21 20 21 20 19 19 20 23 22 22 24 29 31 31 30 28 29 28 27 25 22 20 18 17 16 13 8 5 7 9 9 7 7 5 4 1 1 1 3 2 4
25 25 22 22 18 23 23 17 12 21 24 19 20 21 21 22 23 24 24 32 33 32 32 31 30 29 28 28 27 20 21 16 13 10 6 6 7 9 8 8 8 6 5 4 1 1 2 1 4
23 24 24 23 19 16 19 18 19 17 19 20 23 21 21 21 23 23 28 30 33 33 33 32 32 30 31 28 29 25 19 21 15 14 10 9 10 11 12 11 9 8 6 4 4 3 3 2 3
29 25 16 17 17 19 26 20 20 16 15 18 19 19 21 20 21 22 23 23 30 33 34 32 32 32 31 31 28 28 25 20 18 12 15 12 13 12 14 13 12 10 7 5 4 4 2 3 3
31 28 20 26 18 20 25 23 21 18 9 16 12 14 21 21 21 22 23 25 29 32 33 33 32 32 32 32 30 28 27 26 25 22 19 16 14 13 17 15 12 10 8 8 7 6 5 6 5
30 29 27 27 24 20 20 23 19 7 19 16 16 15 14 20 22 25 24 29 31 31 33 35 32 33 32 32 30 29 28 28 27 24 24 16 14 13 15 15 16 15 9 8 8 7 7 6 7
34 24 27 23 28 26 25 23 16 20 17 18 16 16 16 16 20 21 23 28 32 34 34 34 35 33 33 32 32 32 30 29 26 23 21 21 18 16 18 19 23 19 23 20 18 10 11 10 10
22 28 25 26 24 21 19 19 19 19 18 22 22 20 18 19 19 20 22 30 34 35 35 36 36 34 33 33 34 33 32 30 28 27 26 24 21 21 22 24 24 24 22 19 19 18 12 12 11
28 29 31 18 28 20 22 19 14 17 15 13 17 15 11 16 16 21 22 23 32 34 37 38 38 37 35 34 34 34 33 33 32 31 29 28 26 27 28 26 25 24 21 20 21 16 13 14 13

GFSSGP_925_spd_030.txt.gz
Wind_Speed
17 15 10 2 2 4 1 7 9 5 11 10 15 7 8 5 4 12 16 15 19 20 21 20 21 19 19 21 19 21 20 18 17 16 16 16 15 14 15 13 12 12 12 11 11 10 10 11 10
21 17 8 3 4 3 9 17 11 8 14 16 18 20 22 23 20 19 18 22 24 24 21 19 20 19 18 18 18 19 17 16 16 14 15 13 12 12 12 11 10 11 10 10 10 9 9 9 8
23 23 7 5 1 1 11 18 12 15 14 16 7 10 11 19 20 21 24 26 25 25 22 22 19 17 17 16 16 17 16 15 14 13 11 10 11 11 10 10 9 9 9 8 9 9 8 7 6
16 9 6 11 15 10 19 8 13 17 19 22 23 17 21 25 23 29 28 24 24 22 20 20 17 16 16 16 16 16 15 14 13 11 10 9 9 9 9 8 8 7 7 7 8 7 6 5 5
24 8 12 1 14 15 11 17 16 12 24 22 24 24 21 29 34 31 26 24 23 22 19 17 16 16 16 15 15 14 13 13 11 9 9 8 8 7 6 6 5 5 6 6 7 6 6 4 3
10 5 11 6 7 17 11 11 12 17 21 24 24 18 13 35 30 25 22 24 22 22 19 17 18 17 16 15 14 14 13 12 9 8 7 6 6 5 5 4 4 4 4 5 5 5 5 5 4
16 12 18 11 11 11 6 17 6 17 21 22 22 20 16 29 28 27 26 24 27 26 21 18 17 16 16 16 15 13 12 11 9 8 6 5 5 4 4 3 3 4 4 3 3 3 3 3 2
15 9 18 1 14 14 6 19 17 18 17 23 25 19 14 22 34 30 26 20 31 24 21 22 18 17 16 15 13 12 11 10 7 6 6 6 5 5 4 3 3 3 2 2 1 1 1 0 0
7 5 7 9 17 16 9 12 19 16 15 17 15 21 28 29 34 25 22 18 23 21 21 19 19 18 19 15 11 10 9 8 6 6 6 5 6 8 6 4 3 2 2 2 2 2 3 5 10
10 5 6 18 12 15 12 11 13 12 14 16 22 24 29 31 26 27 23 18 18 21 21 19 20 18 18 16 12 9 8 8 7 7 8 5 7 6 9 6 4 6 7 10 4 9 8 4 8
5 5 24 29 17 16 13 14 11 17 14 12 25 24 22 27 27 34 26 26 24 23 20 22 23 20 19 19 16 16 14 16 10 13 7 5 4 2 8 9 3 4 3 8 6 7 4 3 2
13 19 23 2 8 16 15 15 9 11 16 19 21 22 21 19 17 21 29 27 28 23 24 25 24 20 16 20 13 19 20 14 16 14 11 7 4 3 2 6 6 2 8 2 6 5 7 11 11
16 24 29 9 5 11 19 13 11 9 20 21 23 23 22 19 20 22 22 23 29 25 24 27 26 22 16 11 12 14 12 12 10 15 10 9 8 5 2 3 6 8 7 3 5 5 7 9 8
18 21 18 6 10 11 14 16 13 11 19 21 23 23 21 21 22 21 21 23 24 22 18 24 22 20 17 13 7 6 6 5 9 6 15 10 8 1 1 3 6 10 6 5 4 6 7 10 8
21 19 14 7 10 9 7 14 12 18 14 19 22 21 21 20 24 21 21 22 22 22 22 22 21 20 21 16 11 6 8 8 7 9 9 7 5 5 4 5 10 7 4 8 4 4 8 12 15
22 20 14 16 14 11 15 4 8 19 16 19 21 20 19 20 23 23 22 24 25 24 23 20 20 25 23 18 15 14 12 13 12 11 13 12 9 10 6 6 7 8 5 5 4 2 7 13 10
20 16 17 9 13 16 11 13 19 11 17 19 19 20 19 18 19 24 25 24 26 24 24 24 22 22 25 21 17 16 16 14 9 14 10 6 12 10 8 9 6 9 6 6 0 2 6 11 9
22 19 20 17 18 18 21 13 17 27 17 19 19 19 18 19 19 25 26 26 25 26 25 26 23 20 28 24 21 16 16 9 12 8 11 13 11 8 8 9 9 9 4 2 2 3 6 6 11
24 20 24 14 18 19 19 17 16 29 21 19 20 18 20 20 19 25 27 27 25 26 26 27 24 25 22 20 21 19 16 17 16 20 11 13 9 11 9 12 11 10 6 4 3 1 6 6 2
28 26 24 22 26 27 17 25 32 33 21 20 21 20 19 20 19 20 26 25 28 27 29 27 27 23 24 21 22 21 24 23 26 20 19 18 13 10 8 8 6 9 5 6 4 4 6 10 5
27 26 22 10 24 23 16 18 22 23 22 19 20 23 21 20 20 20 21 27 28 29 29 30 29 25 26 22 23 23 11 10 13 23 16 15 14 11 12 6 6 6 5 11 5 4 3 8 4
26 26 26 14 17 13 20 14 17 21 23 22 20 19 23 22 21 20 21 26 27 29 30 32 31 28 27 31 21 22 15 12 12 9 13 14 12 11 10 11 11 8 3 7 5 6 1 3 9
25 26 24 22 17 18 18 13 14 18 20 24 22 21 20 24 23 22 23 30 31 30 33 33 34 32 28 30 25 20 19 22 18 18 16 12 13 11 10 12 10 9 6 9 4 3 1 1 6
26 25 25 22 18 14 16 13 25 19 19 7 22 22 21 21 23 22 26 33 35 34 34 35 37 36 34 31 32 26 24 26 17 14 15 13 13 15 12 13 16 14 11 8 8 6 5 3 2
28 25 15 17 17 17 23 22 14 12 15 5 12 20 23 22 21 22 23 21 33 36 35 35 38 36 36 32 31 35 29 26 26 13 14 17 18 22 22 19 19 18 17 14 14 13 9 6 3
25 26 16 20 18 19 23 20 14 23 19 12 24 26 24 22 18 21 22 21 30 36 36 35 39 37 37 37 33 33 36 25 25 21 18 23 17 22 26 25 21 20 17 16 18 18 17 13 9
26 26 26 25 23 17 18 17 21 17 16 27 31 9 6 10 18 21 22 25 27 33 37 38 35 39 38 36 36 34 34 33 28 24 26 18 20 16 26 28 24 21 21 20 18 16 16 14 13
28 18 24 20 26 25 20 20 12 19 20 15 17 18 19 20 26 21 19 22 29 32 35 37 36 38 39 38 37 38 35 33 31 30 28 28 21 19 25 27 26 25 24 22 20 18 16 14 12
20 23 24 21 21 17 17 16 16 18 22 19 22 18 19 13 18 22 22 26 32 32 35 36 37 34 38 38 38 36 35 34 34 30 32 31 31 26 27 27 26 26 24 23 25 20 18 19 16
30 29 28 18 22 18 19 16 16 7 21 20 18 16 14 14 17 18 22 20 29 32 35 37 36 37 38 39 37 38 35 35 34 36 31 32 33 27 28 29 28 30 26 26 26 24 19 21 20

GFSSGP_925_spd_033.txt.gz
Wind_Speed
14 14 10 4 2 2 3 4 2 13 8 3 8 9 11 5 4 7 18 21 23 24 23 23 23 22 22 25 25 23 21 20 18 19 19 18 17 16 15 14 13 12 11 11 9 8 8 8 8
18 15 5 1 1 2 2 5 5 14 13 12 21 17 13 9 11 15 17 24 26 26 23 23 22 21 21 24 23 21 19 18 17 18 17 15 15 13 13 12 12 10 10 8 7 7 6 6 7
19 10 2 1 1 4 5 9 7 15 20 15 9 13 8 11 16 18 26 30 29 25 24 23 21 20 19 21 20 19 18 16 15 16 15 13 12 12 10 11 10 9 8 7 6 5 5 5 5
15 4 1 4 7 5 7 11 15 20 21 20 19 13 10 18 14 21 32 31 31 27 25 23 21 19 19 19 19 17 17 15 14 13 12 11 11 9 9 9 7 6 6 6 5 5 4 5 5
5 3 5 6 10 8 5 15 19 23 20 21 24 18 10 24 28 30 30 32 31 26 25 23 21 19 19 19 18 16 15 14 12 12 11 10 9 8 8 6 5 5 6 5 5 5 5 5 5
5 2 3 3 9 14 10 21 20 23 22 21 25 16 7 27 28 29 31 29 28 27 24 21 21 21 18 18 17 15 15 13 11 10 9 8 7 6 6 5 4 4 3 4 5 5 6 7 7
9 4 5 13 7 11 19 17 20 24 25 18 22 18 14 23 29 30 32 32 26 24 22 22 21 20 18 17 17 15 14 12 10 9 7 6 6 4 4 3 4 3 3 4 5 4 5 6 7
5 5 10 6 11 14 13 8 20 24 19 22 27 10 19 22 32 28 28 31 31 26 24 23 21 21 20 19 16 15 14 12 10 8 7 6 5 5 4 3 3 5 5 5 4 6 6 7 7
7 2 9 8 7 8 11 13 17 21 29 19 9 18 28 35 32 28 25 27 29 26 25 22 22 21 20 18 16 15 14 12 9 8 7 5 5 5 5 1 3 4 5 6 7 7 5 6 4
5 3 8 11 0 1 20 24 19 20 21 8 23 23 35 37 29 25 27 25 28 29 28 23 23 22 20 18 16 14 13 11 8 8 6 2 4 9 8 3 3 4 1 1 3 3 4 6 9
10 8 11 11 18 8 12 14 17 20 16 23 25 24 30 30 28 29 30 26 29 31 30 28 24 23 23 21 17 14 13 13 12 9 5 2 5 2 10 5 4 5 3 7 3 5 4 3 6
6 16 10 7 12 13 12 12 17 15 18 26 26 29 24 22 19 24 23 24 32 30 30 32 27 28 26 24 17 17 16 17 15 13 10 10 4 1 9 8 2 1 5 1 8 2 5 5 2
6 7 9 19 20 11 12 12 14 16 27 26 23 20 23 20 27 31 32 29 35 34 32 32 30 31 28 23 21 19 17 20 20 17 16 11 5 2 1 3 3 3 4 3 5 2 3 3 6
11 11 12 10 15 10 10 9 12 20 26 24 22 17 10 12 28 29 28 31 33 32 30 34 33 30 24 23 18 9 8 22 15 23 15 12 9 8 4 2 1 4 4 3 3 4 2 5 7
6 10 13 17 12 15 15 9 10 21 24 25 21 17 12 9 18 21 35 35 36 33 32 36 36 31 29 22 14 10 8 6 8 13 15 14 11 7 4 5 4 3 1 5 4 0 7 9 7
14 9 8 10 10 15 13 3 16 15 23 22 23 19 17 15 17 25 32 36 36 29 35 38 36 32 26 26 17 12 12 9 6 7 12 14 12 8 5 5 2 2 4 1 3 2 5 5 8
8 10 10 3 3 5 8 6 11 5 17 21 21 19 17 15 16 25 30 35 38 35 33 38 31 29 25 23 20 14 15 11 10 12 14 17 12 9 7 6 4 5 4 2 1 2 4 7 9
10 8 11 7 10 7 9 7 11 8 7 20 20 19 17 16 16 26 29 34 37 36 33 33 29 32 29 27 24 19 16 16 13 8 10 16 13 11 7 8 6 6 5 4 4 3 2 6 7
14 15 13 5 11 7 4 12 16 10 6 11 21 20 18 18 14 26 31 33 35 38 36 37 31 28 34 33 27 23 22 18 14 16 13 18 16 13 11 9 9 5 9 6 7 2 4 5 1
21 18 19 12 7 9 16 16 16 15 17 13 19 21 21 19 18 20 27 31 35 37 39 40 36 31 35 33 30 27 24 23 23 23 17 16 16 13 11 12 9 8 8 10 8 1 5 6 2
23 20 15 10 5 7 7 11 11 12 13 14 15 23 22 22 21 18 23 29 32 36 40 41 39 34 31 31 28 25 22 25 24 24 19 19 20 15 14 12 11 12 11 12 7 6 3 3 2
20 21 21 15 15 8 13 8 15 15 19 16 19 22 22 22 21 21 22 27 34 35 42 43 41 37 33 32 29 28 24 19 21 25 26 27 22 19 17 14 15 12 10 16 12 10 7 4 4
23 13 18 18 7 14 12 3 8 18 17 21 22 23 23 23 24 23 22 35 35 38 40 43 44 40 36 34 30 30 29 27 19 17 19 30 25 22 17 16 17 15 12 14 14 11 8 8 3
15 15 20 15 6 4 16 9 8 9 23 23 19 22 27 24 23 22 34 36 34 37 40 41 44 42 41 38 37 32 29 27 26 19 19 26 28 23 19 17 19 17 15 16 12 9 10 12 7
20 15 12 10 10 5 20 15 13 13 10 26 23 19 19 25 23 23 23 24 34 35 38 40 43 40 43 42 39 41 29 28 25 20 28 29 28 23 20 23 22 21 17 14 12 11 10 11 10
18 17 13 10 11 9 7 10 10 16 14 17 23 17 10 7 23 24 23 27 36 37 40 40 42 40 42 44 43 44 40 30 33 29 21 27 25 23 26 24 23 23 21 17 16 14 13 11 11
8 20 14 6 10 6 7 9 6 19 7 12 16 15 10 13 12 23 23 27 36 39 40 43 43 42 42 43 43 43 44 40 33 30 26 22 25 26 28 30 29 28 24 22 21 18 16 16 14
18 6 14 12 15 18 15 9 7 18 14 14 12 10 6 7 14 18 22 24 37 44 43 42 45 47 46 44 41 40 43 41 39 33 29 31 22 23 30 36 34 31 27 25 25 22 20 18 19
8 17 10 7 14 9 8 14 6 10 20 19 20 19 19 20 21 23 24 31 36 41 41 41 42 43 43 43 41 38 36 41 40 40 34 31 31 24 25 38 37 33 29 28 28 26 22 24 22
24 14 11 9 5 5 10 15 8 7 23 27 24 18 19 25 29 29 21 23 30 38 41 43 40 43 44 44 41 40 37 35 37 38 39 40 36 33 30 35 37 35 33 31 31 29 26 26 26

GFSSGP_925_spd_036.txt.gz
Wind_Speed
16 16 7 1 1 1 3 2 4 3 2 4 8 9 10 11 3 5 22 20 30 24 24 25 25 25 24 25 24 22 21 21 21 20 20 19 18 17 14 12 11 10 10 9 9 10 9 9 10
20 15 3 2 2 1 2 4 3 4 11 16 14 10 10 6 7 13 16 26 27 28 25 24 24 24 24 24 23 21 19 20 19 18 18 17 16 14 13 11 10 9 9 9 9 8 8 8 8
18 4 2 1 1 3 2 6 11 13 13 5 6 12 5 4 13 16 23 30 29 27 26 24 24 23 23 23 22 20 18 18 17 16 15 15 14 12 11 10 9 9 9 9 8 7 7 7 7
7 1 2 2 5 5 3 14 16 14 8 11 15 11 7 11 14 15 31 32 30 27 26 23 22 22 21 21 20 18 17 16 15 14 13 13 11 10 10 9 8 8 8 8 6 6 6 7 7
5 3 3 4 4 2 8 14 16 13 8 15 9 10 7 11 22 32 34 30 31 28 26 23 22 21 21 21 18 17 16 14 14 13 12 11 10 9 7 7 7 7 6 6 7 7 8 7 7
2 4 4 4 4 7 6 18 14 15 16 18 15 11 4 21 28 28 28 31 29 30 26 24 22 21 21 20 18 17 16 14 13 12 10 9 8 7 6 5 5 5 5 6 7 7 8 8 9
7 1 4 9 12 13 19 18 16 17 15 7 13 9 8 17 25 30 32 30 28 28 26 24 22 21 19 18 18 17 15 13 12 11 9 8 7 6 5 5 4 4 5 4 5 5 6 6 8
6 3 4 7 10 10 17 10 16 23 8 16 13 7 13 22 30 30 30 29 29 27 24 24 24 20 20 20 18 17 15 13 12 10 9 8 7 6 4 2 3 3 3 4 4 4 4 5 8
7 4 4 7 3 11 21 15 14 9 18 8 4 12 25 33 31 26 26 24 27 26 25 25 25 22 21 21 18 17 15 14 12 10 9 7 6 4 4 2 1 2 3 4 5 4 3 5 5
5 3 6 9 5 8 21 26 17 12 18 7 17 19 29 31 29 26 25 23 23 26 27 27 26 25 23 21 19 18 16 14 11 10 10 6 5 4 4 5 3 2 0 2 1 1 2 5 6
4 6 5 11 3 5 19 23 16 25 15 23 25 23 23 26 24 26 24 27 27 31 30 28 27 26 25 23 20 18 17 14 13 14 10 7 4 3 7 4 6 4 3 2 3 1 3 3 4
5 8 9 9 15 3 13 18 18 23 14 25 27 28 24 20 19 27 29 28 26 30 31 29 28 28 26 23 22 21 20 18 18 16 13 9 4 7 7 6 3 5 2 2 3 3 2 4 2
6 6 15 16 13 8 8 19 20 15 24 21 25 25 24 22 26 30 35 34 33 32 32 32 31 31 28 25 22 21 20 20 18 16 14 11 9 6 8 4 2 3 3 3 3 1 1 2 3
8 9 15 20 15 7 11 14 9 19 24 24 27 26 22 24 27 27 27 30 32 34 34 33 33 31 29 27 24 21 19 20 18 17 16 17 15 10 9 7 6 1 3 1 1 0 1 3 3
13 7 15 14 19 8 10 6 16 25 28 27 27 24 21 22 30 28 31 32 36 34 37 37 35 33 32 31 24 17 17 21 23 20 20 19 17 13 9 7 4 3 4 3 3 3 0 4 3
3 2 4 14 15 4 6 11 21 27 27 27 27 22 20 21 28 30 33 33 34 34 36 37 38 36 33 31 25 20 14 10 13 16 19 22 18 13 10 5 6 5 5 4 3 4 1 1 1
2 4 7 5 12 6 4 5 22 25 24 23 22 21 16 16 23 28 34 37 36 36 40 39 37 38 36 32 28 23 16 14 8 10 12 23 18 13 9 7 6 7 6 6 3 3 1 2 4
6 3 2 4 17 29 11 5 22 22 23 24 22 21 18 15 18 29 37 38 37 38 41 42 41 39 38 34 30 25 20 18 11 9 11 22 21 15 11 9 8 7 8 7 5 7 3 2 1
5 7 7 4 7 18 17 14 23 23 19 21 21 21 20 21 19 24 36 38 35 36 40 41 40 42 41 33 27 25 22 22 17 15 14 20 20 16 15 11 10 6 9 9 8 7 4 2 1
12 14 13 5 3 2 11 16 19 17 24 25 22 20 21 20 18 21 32 37 39 37 40 41 45 44 43 36 31 26 25 25 22 19 19 16 14 18 18 14 13 11 11 10 10 5 6 5 3
13 17 8 6 3 4 7 2 6 6 3 10 18 22 21 23 21 19 24 35 39 38 40 44 45 45 43 39 34 29 26 26 25 22 20 20 19 18 19 16 13 12 13 12 11 8 7 6 3
14 15 9 7 5 9 8 5 8 15 12 14 18 20 21 23 23 20 24 30 37 40 43 45 45 45 41 41 38 35 29 26 30 28 25 22 22 22 18 16 15 13 13 16 13 9 6 8 7
14 10 9 9 6 3 3 3 6 10 19 13 18 21 24 24 24 23 24 37 42 41 42 45 47 46 43 42 41 39 34 30 25 23 24 26 27 24 21 18 17 16 15 19 15 12 10 9 7
11 8 6 4 4 10 13 13 6 9 10 20 18 22 23 22 22 23 35 37 36 39 40 40 42 44 46 44 43 42 38 34 29 24 21 23 27 27 25 23 21 18 17 20 17 14 11 10 9
11 6 5 5 6 10 11 11 12 19 13 21 25 24 21 24 23 22 22 23 32 34 37 38 41 40 45 46 46 44 41 35 32 33 28 23 27 29 28 28 27 23 20 18 18 15 12 13 11
10 16 9 8 4 5 6 9 10 12 15 25 27 27 22 26 24 25 24 28 35 36 39 40 41 41 43 45 44 45 42 37 34 33 33 26 30 34 32 30 30 26 23 20 19 15 13 11 13
10 11 11 7 3 2 4 7 8 12 8 18 26 22 24 27 26 27 26 32 38 37 42 45 43 44 43 44 44 45 44 40 37 34 25 29 34 34 32 31 32 28 27 24 22 19 17 15 14
19 7 5 1 12 15 5 7 6 8 14 17 24 24 26 26 27 24 23 27 36 41 43 45 45 46 46 45 42 43 45 45 41 37 33 32 34 34 34 34 33 32 31 28 25 22 19 17 17
8 11 3 6 9 13 8 15 8 10 12 14 21 29 26 22 23 25 21 30 36 36 36 41 42 43 41 41 40 39 40 43 46 43 39 36 34 36 35 37 38 36 35 32 28 26 22 21 20
21 16 13 11 8 5 16 19 3 10 10 16 19 22 22 17 19 24 27 26 29 38 38 39 41 42 44 44 42 41 39 41 43 44 45 41 38 36 37 37 42 40 39 36 33 30 27 25 25

GFSSGP_925_spd_039.txt.gz
Wind_Speed
14 14 9 2 1 1 3 3 2 2 2 3 3 5 10 7 2 4 25 15 25 23 24 25 24 25 23 23 24 23 22 20 20 19 18 17 15 14 13 13 11 11 10 9 8 9 11 10 9
18 10 2 1 1 2 3 2 1 4 7 11 10 7 5 5 5 11 13 29 25 25 24 24 24 25 23 23 23 21 20 19 18 17 16 15 14 13 11 11 10 9 9 8 7 7 8 9 8
18 1 1 1 1 3 3 3 4 9 11 5 5 7 4 3 11 13 19 32 28 26 22 23 23 24 21 21 21 20 18 17 16 16 14 13 12 11 10 9 9 8 8 6 6 7 7 8 7
8 1 1 2 4 4 3 6 6 9 5 8 13 7 5 10 13 11 34 30 30 26 24 21 21 22 20 20 19 18 17 16 15 14 13 12 11 10 9 8 7 7 7 6 6 6 6 7 6
4 2 4 7 5 3 2 6 7 5 5 9 4 6 7 5 11 32 30 29 30 27 23 22 22 22 20 19 18 16 15 14 13 12 12 10 9 8 8 7 5 5 6 6 6 7 7 7 8
3 3 1 4 7 4 6 9 5 7 9 12 12 7 4 20 27 24 28 29 29 28 23 22 22 22 20 18 17 15 14 13 12 11 10 9 7 7 7 5 4 5 5 5 6 7 8 7 6
5 3 5 6 8 5 6 7 9 12 12 8 10 5 6 13 21 27 25 28 28 26 25 23 22 21 19 18 17 16 15 13 12 11 10 9 7 6 6 5 4 4 4 4 4 6 6 5 3
3 2 3 6 4 6 12 8 11 10 4 13 13 7 9 19 27 23 26 27 26 26 25 25 22 21 21 19 17 17 15 13 12 11 10 8 7 5 4 3 3 3 4 3 2 4 5 3 1
1 3 4 5 8 4 14 7 9 4 12 4 4 8 19 29 28 25 22 24 26 26 25 24 24 23 22 20 18 17 15 14 13 11 9 8 6 3 3 3 3 2 3 4 4 3 3 2 4
3 4 8 5 4 12 17 14 13 6 10 3 10 17 28 30 28 23 21 21 24 25 26 26 24 24 23 22 20 19 17 16 14 12 10 8 5 3 3 2 1 0 1 2 2 1 1 1 3
5 5 3 4 7 13 17 11 5 17 8 9 22 22 22 26 24 23 22 24 28 30 29 29 27 25 25 24 22 20 19 17 14 12 11 8 6 5 5 4 5 3 2 1 3 1 1 3 2
4 11 7 2 2 17 17 10 7 17 6 18 24 27 22 21 20 24 24 25 24 28 32 31 30 28 27 24 23 22 20 18 16 15 12 9 7 6 5 6 4 4 3 1 1 4 1 2 1
5 12 6 8 1 8 15 17 12 19 11 17 18 21 23 21 25 28 27 26 28 30 33 33 32 31 28 26 24 23 21 19 18 15 14 12 9 8 8 7 6 5 5 4 1 3 2 3 2
7 18 15 9 8 8 17 18 11 17 18 19 22 22 21 22 26 26 25 27 28 33 35 34 34 33 30 29 25 23 21 20 17 17 16 15 13 10 12 9 5 4 6 4 2 3 3 3 4
15 3 9 13 7 8 12 7 17 14 20 22 23 21 21 22 27 28 31 30 32 34 36 35 36 34 33 31 26 23 21 19 19 19 17 17 16 14 12 10 9 5 5 4 4 4 2 1 2
3 5 4 11 15 11 11 9 16 21 22 22 22 19 19 20 27 30 33 33 35 36 34 36 36 35 34 33 28 24 20 20 21 22 21 21 17 16 13 11 10 9 8 7 5 5 4 3 4
5 4 6 2 10 7 11 6 9 23 22 21 20 20 19 17 20 29 32 33 35 36 35 37 36 35 34 33 31 24 20 15 12 12 18 21 21 19 14 10 8 8 8 8 5 5 4 2 2
5 3 2 5 5 13 7 5 19 22 21 23 22 20 19 18 22 32 34 32 34 35 37 40 39 37 35 34 31 27 24 20 16 13 15 17 23 22 16 11 11 9 9 8 9 8 5 2 2
6 3 4 4 8 1 13 6 21 22 18 19 20 19 20 21 23 33 33 34 32 32 36 38 37 40 39 36 32 31 29 24 20 15 14 15 23 22 18 12 13 11 11 12 9 7 6 5 4
6 6 6 5 6 9 10 9 19 23 26 24 23 22 23 18 16 24 31 34 35 39 41 39 41 42 43 40 38 35 34 30 26 22 17 16 21 22 20 17 15 13 12 11 10 9 5 5 2
6 10 5 7 0 2 5 3 12 17 5 13 17 20 22 23 20 18 25 33 36 36 40 44 46 44 44 43 40 34 30 28 26 24 21 20 21 23 22 19 16 16 15 13 14 10 8 7 4
10 5 6 8 5 5 6 5 14 17 18 16 17 19 19 20 19 17 21 30 35 38 40 42 44 44 44 45 39 34 28 25 28 28 25 24 23 23 23 20 19 17 16 16 15 11 8 9 7
9 6 7 6 5 1 5 2 7 18 16 21 21 24 22 22 21 22 21 35 42 39 39 42 44 44 42 47 42 39 31 32 27 27 26 26 24 22 23 21 21 19 17 17 16 13 10 9 10
5 3 2 0 3 7 12 8 9 10 26 23 20 24 27 25 24 23 33 33 33 37 36 38 40 45 44 47 46 42 37 36 32 27 28 29 27 28 26 25 23 21 20 18 18 16 12 9 10
6 7 4 3 4 11 10 7 15 9 15 21 24 25 26 26 25 24 22 21 31 36 39 38 39 39 43 45 44 45 42 41 38 33 29 24 23 26 31 29 27 25 22 19 20 18 15 12 12
10 14 6 8 4 7 5 10 13 16 13 19 18 23 24 25 24 25 25 26 33 37 39 40 39 40 39 42 43 44 44 42 42 37 34 31 26 25 27 32 30 28 25 22 21 20 16 13 14
8 12 12 3 2 3 5 8 6 9 11 12 13 13 19 24 24 25 24 30 34 36 41 42 41 42 40 43 42 42 45 41 42 41 36 36 33 29 29 32 32 30 28 25 22 23 19 16 14
14 8 4 2 11 14 5 7 6 10 17 12 11 16 19 22 22 23 23 26 34 37 39 40 42 44 46 45 44 45 45 44 44 42 39 38 34 34 31 35 33 32 32 29 26 25 21 19 17
3 9 4 7 6 10 2 10 9 9 11 13 15 18 22 22 24 23 22 28 35 37 37 40 38 38 39 42 41 38 38 41 42 45 42 40 35 35 33 35 35 35 35 33 30 29 25 23 20
19 14 12 5 10 6 11 10 3 17 14 10 11 13 19 23 21 20 20 21 27 30 30 37 40 39 41 40 40 41 41 41 42 45 45 43 40 36 37 36 37 36 37 37 35 33 30 28 26

GFSSGP_925_spd_042.txt.gz
Wind_Speed
14 12 5 1 1 0 3 1 2 5 3 1 4 3 8 5 2 3 17 14 23 24 22 22 22 21 21 21 21 21 20 20 19 19 18 16 14 13 11 10 9 9 10 9 10 10 8 8 8
17 12 2 1 1 2 2 1 3 2 7 11 9 7 5 4 4 9 10 24 27 25 24 22 24 22 20 20 20 19 18 18 17 17 16 14 13 12 10 9 8 8 8 8 8 8 7 7 7
16 3 2 1 1 1 3 2 6 11 9 4 5 6 3 4 9 13 13 27 26 25 23 23 25 22 20 20 18 18 17 16 16 15 14 13 11 10 9 8 7 8 9 7 7 6 6 6 5
8 1 1 0 3 3 3 4 7 7 6 7 12 8 5 11 12 10 33 26 27 23 22 23 23 21 19 18 18 17 16 15 14 13 12 11 10 8 8 7 7 8 7 6 5 6 6 5 5
2 1 2 3 4 4 3 6 7 5 4 5 2 5 7 4 9 28 28 27 28 24 22 22 22 21 19 17 16 16 15 13 13 12 11 9 8 7 6 6 6 7 6 6 7 7 6 6 6
2 1 2 2 4 4 4 4 4 6 6 9 9 7 3 18 27 26 26 29 26 25 22 21 21 20 18 16 15 14 13 12 11 10 9 8 7 6 5 5 5 5 5 6 7 7 7 5 5
4 1 4 0 6 4 3 5 5 6 8 6 10 5 5 14 24 26 26 27 26 23 22 21 21 19 17 15 14 13 12 11 10 9 8 8 6 5 5 5 4 4 4 4 5 6 5 4 4
3 2 1 3 3 3 7 4 8 7 3 7 10 7 9 18 26 26 26 26 25 22 22 21 21 20 18 16 14 13 11 11 9 8 7 6 5 4 3 4 4 4 3 3 5 4 4 3 4
3 2 4 3 5 3 11 4 4 6 10 4 4 5 14 29 28 24 23 23 24 22 22 20 21 21 20 18 15 13 11 11 9 8 7 5 4 3 3 3 3 4 4 4 4 4 3 4 4
3 3 6 5 5 5 13 8 8 4 10 3 8 18 27 31 26 24 23 22 23 24 24 24 22 22 21 19 17 16 14 12 11 9 8 6 4 2 1 0 1 1 1 2 1 2 2 2 4
5 5 3 4 5 8 15 8 4 9 5 6 19 23 22 26 23 22 22 24 29 29 26 27 26 24 23 22 20 18 16 14 12 10 9 7 5 4 3 3 4 2 2 2 1 1 1 1 2
3 10 7 7 3 9 13 10 5 14 4 9 21 26 23 20 20 23 23 24 25 28 30 29 28 26 25 23 21 19 18 16 14 13 10 8 6 3 2 3 2 2 2 3 2 2 1 1 1
6 5 4 9 6 10 10 15 8 16 6 18 18 21 22 19 22 24 25 25 27 29 33 31 30 28 26 25 22 21 20 18 15 13 12 10 8 6 5 5 4 3 3 3 3 1 2 1 2
7 7 9 7 6 6 13 8 8 7 14 17 19 19 18 20 24 23 24 24 27 33 34 33 33 30 27 26 24 23 20 18 16 15 13 13 11 8 7 8 7 4 5 3 2 3 2 3 4
5 7 6 5 5 7 6 3 12 10 17 20 18 16 17 16 24 24 27 26 31 34 35 35 35 32 30 28 26 23 21 19 18 17 16 15 13 11 7 10 10 6 4 6 5 3 3 3 0
2 4 0 7 6 7 11 13 16 17 19 19 19 16 17 16 22 26 27 29 29 30 32 35 35 34 32 30 28 24 22 19 18 18 18 17 14 13 13 12 11 9 8 7 5 4 4 3 4
4 4 5 6 7 4 12 7 12 19 20 19 19 17 16 15 19 25 28 30 31 34 34 34 34 35 34 32 29 26 22 20 19 19 20 19 18 17 15 14 11 10 10 9 8 4 3 2 3
5 4 4 5 3 7 8 11 11 21 21 22 20 18 17 17 21 28 29 29 31 35 35 34 34 34 33 33 31 28 25 22 18 14 13 15 17 19 17 16 12 10 10 11 9 5 3 1 1
6 4 6 4 3 5 9 5 9 17 16 17 18 18 18 21 21 25 27 29 29 31 34 36 36 35 34 35 33 31 29 25 22 19 14 15 15 19 19 18 12 14 11 9 6 6 5 3 1
6 3 5 5 7 3 5 9 8 17 22 22 20 20 21 16 15 21 26 28 29 36 40 40 41 40 39 39 38 32 32 30 28 24 20 17 17 17 22 21 15 13 12 9 8 7 5 3 2
6 12 5 5 6 2 5 4 8 10 5 11 15 17 16 18 18 17 24 31 32 33 37 42 46 44 43 41 34 31 28 29 29 28 25 21 18 17 22 18 18 15 13 13 11 10 7 5 4
9 7 6 8 1 4 5 5 5 13 19 17 15 19 20 19 17 16 20 29 35 37 38 39 40 41 44 42 35 35 29 26 31 34 31 25 23 21 21 22 21 17 14 14 13 12 9 7 7
8 7 9 6 5 1 3 1 6 11 13 19 19 20 21 22 21 20 21 34 39 39 39 42 42 42 42 44 41 40 31 35 35 32 27 27 26 23 23 22 21 19 17 16 15 15 13 10 11
9 6 6 5 4 7 10 8 5 8 20 20 20 22 22 22 22 22 29 35 32 33 33 34 37 43 43 43 45 40 36 34 35 29 26 27 28 26 25 24 22 21 19 18 17 16 14 12 11
8 6 1 1 2 11 10 7 15 11 18 24 26 27 24 24 24 23 22 21 30 32 35 36 38 39 43 45 44 43 43 41 40 37 30 28 29 28 27 26 24 24 21 20 19 19 17 15 13
9 10 6 7 5 11 6 10 8 13 12 18 21 24 21 21 22 24 25 28 31 35 36 37 38 38 40 44 45 46 44 42 43 40 36 32 32 30 26 27 29 28 25 22 21 21 19 17 14
6 9 10 5 2 2 5 6 6 5 12 13 19 17 19 21 21 25 25 32 34 35 40 41 39 41 40 44 45 43 44 41 41 41 39 35 34 30 26 25 28 30 28 25 22 24 22 19 16
10 11 4 1 6 6 5 4 6 10 12 14 9 17 19 17 21 22 22 27 35 38 41 41 42 41 44 42 42 43 48 48 47 44 42 42 38 34 32 28 26 30 31 28 26 26 24 22 19
4 5 3 6 6 6 1 6 8 10 15 19 19 17 17 17 19 21 21 30 36 36 35 40 40 39 40 41 41 40 40 41 46 45 45 43 41 36 36 33 30 31 33 31 31 30 28 25 23
20 14 7 8 7 5 4 8 4 10 11 11 10 13 9 12 17 20 21 23 28 33 33 36 36 38 42 42 41 43 44 43 43 46 47 44 42 39 38 37 35 35 37 35 35 35 33 30 27

GFSSGP_925_spd_045.txt.gz
Wind_Speed
14 13 9 4 2 2 1 4 1 7 4 2 6 2 5 6 3 4 17 19 26 23 19 19 20 21 22 24 24 23 22 20 18 16 15 14 12 12 11 10 10 10 10 10 10 9 8 8 7
14 11 2 1 2 0 3 2 6 2 6 12 10 7 5 4 5 12 14 23 24 21 19 17 20 20 20 22 21 19 18 18 17 15 14 13 11 10 11 10 9 8 9 9 9 9 7 7 6
14 3 1 2 1 3 3 3 11 11 11 5 5 7 3 4 12 14 20 26 23 21 19 18 20 20 19 19 18 18 17 16 15 14 12 11 10 10 10 9 9 9 9 8 8 6 5 6 5
7 3 2 2 4 3 3 7 13 12 7 4 10 9 6 3 16 12 25 26 24 21 19 20 20 18 17 17 17 15 15 15 14 12 11 10 9 9 9 8 8 9 9 8 7 5 4 5 5
2 1 2 2 3 2 4 10 11 6 5 8 5 7 7 6 12 27 25 25 25 22 20 20 20 18 16 16 15 13 13 12 12 11 10 9 8 8 7 7 9 10 9 8 7 6 5 6 5
2 0 3 1 2 2 2 10 8 5 8 9 13 12 6 13 25 27 25 24 23 22 22 20 20 18 17 15 13 12 11 10 10 9 8 8 7 7 7 6 7 8 7 6 7 7 6 5 6
3 2 1 2 4 2 4 10 6 8 10 7 12 8 5 15 28 24 25 23 21 21 21 20 18 16 15 13 12 11 9 9 8 8 7 7 6 6 6 6 6 5 5 5 5 5 5 5 5
2 2 3 2 3 0 8 8 8 8 5 13 12 7 9 17 29 25 24 22 21 20 20 20 19 16 14 12 11 10 9 8 7 7 6 6 5 4 4 5 4 5 5 5 4 4 4 5 7
0 2 2 3 4 2 12 6 5 5 14 4 5 8 18 29 27 26 25 22 20 19 20 20 19 17 15 13 11 10 8 8 7 6 5 3 2 1 1 2 4 4 6 4 3 4 5 6 6
3 2 5 4 4 4 11 11 12 6 14 6 10 15 30 31 28 27 25 25 24 22 21 20 20 18 16 13 11 10 9 7 6 5 5 3 2 2 1 1 1 2 3 1 1 2 4 5 5
6 4 2 4 7 5 10 10 10 11 12 10 18 23 27 30 28 26 24 25 27 24 22 22 20 18 17 14 13 11 10 8 7 8 7 6 4 4 3 3 2 1 1 3 2 1 2 3 3
5 11 8 3 2 3 12 9 9 11 3 11 18 26 27 24 25 28 27 26 25 24 24 22 20 18 17 15 14 12 12 10 8 8 9 7 4 3 3 2 1 1 1 1 3 2 2 2 3
11 5 4 11 11 8 10 13 10 12 5 15 22 25 24 22 27 27 26 25 25 25 24 22 21 19 18 17 15 14 13 11 10 11 10 8 5 4 3 3 3 2 3 2 2 2 1 1 1
6 12 10 8 11 6 12 9 7 9 15 18 24 26 23 23 28 26 26 26 27 26 25 22 21 20 19 19 18 15 13 12 13 11 11 11 8 6 5 5 5 6 5 3 2 2 1 1 1
10 9 6 11 10 6 9 8 13 12 17 21 21 23 22 21 26 27 29 28 28 26 24 23 22 21 20 20 19 17 15 13 13 13 13 13 11 8 7 5 6 6 6 5 4 3 2 2 1
4 5 7 6 12 8 15 12 16 19 20 21 21 20 21 22 27 27 26 27 27 26 25 23 22 22 22 21 20 18 15 14 13 13 13 14 13 11 10 8 7 7 7 6 5 3 3 1 2
2 7 9 4 14 7 15 13 14 23 20 21 21 21 21 20 24 28 28 28 27 27 25 25 23 24 23 22 20 20 18 17 14 13 13 14 15 15 13 11 9 9 8 6 5 1 1 2 3
8 8 5 9 6 11 16 17 5 22 23 23 23 21 21 22 25 30 29 29 28 26 24 23 24 25 24 21 21 17 17 17 15 15 16 16 17 16 16 15 12 10 7 7 5 3 1 0 1
9 7 13 9 6 6 13 16 13 19 21 21 22 22 22 24 24 27 28 27 27 26 26 26 26 27 25 24 22 20 20 18 17 17 16 13 14 15 16 15 13 11 9 7 5 3 3 1 1
17 17 17 9 6 4 7 11 10 18 24 24 24 23 24 20 21 25 29 30 30 31 31 29 29 29 30 26 26 21 22 19 19 17 18 16 14 15 15 18 14 12 9 8 5 6 3 2 2
23 23 18 8 4 5 8 12 6 13 15 18 21 21 18 23 24 22 27 33 33 32 33 34 36 36 34 29 22 19 15 16 16 19 19 20 19 18 16 17 17 14 11 8 7 7 6 3 3
23 20 21 17 9 10 4 13 8 13 18 21 21 22 24 23 23 21 25 31 35 35 33 32 32 34 35 36 27 27 26 24 24 22 21 21 23 21 18 18 16 16 11 10 9 9 8 5 4
17 14 17 19 14 12 15 9 16 8 15 22 23 25 25 26 25 25 26 35 37 35 33 32 32 33 33 35 33 30 28 25 21 20 21 25 22 25 22 20 17 17 15 13 11 11 11 8 5
11 10 8 3 9 16 22 14 16 12 19 18 22 24 24 25 25 25 34 34 33 33 32 31 32 35 34 35 39 35 32 29 23 22 21 21 21 22 25 20 19 18 16 16 13 13 13 11 8
20 17 8 10 11 14 14 13 19 9 17 19 21 25 26 27 25 25 24 26 31 33 36 35 35 35 36 37 36 39 37 33 30 28 24 21 19 20 21 23 22 19 20 18 16 15 15 15 12
28 23 9 15 16 14 7 15 13 17 20 17 19 21 22 23 23 25 24 27 31 35 37 37 37 37 38 40 40 41 39 35 34 30 28 25 23 22 23 25 24 23 21 21 19 17 17 17 15
19 25 23 12 1 5 12 15 12 11 17 22 19 18 19 23 25 27 27 32 33 33 37 40 39 39 38 40 40 38 38 37 33 33 32 28 26 22 25 26 25 25 25 24 22 19 20 20 18
14 19 10 13 14 15 8 10 14 18 20 19 20 20 20 21 22 25 24 29 36 36 38 39 41 40 43 42 40 39 40 40 40 33 33 32 31 32 23 26 25 24 24 25 26 21 21 22 19
11 20 13 12 12 10 9 11 7 16 19 22 23 22 22 21 22 23 22 30 36 36 33 38 39 39 37 39 40 39 39 39 37 35 36 37 38 38 35 32 28 26 24 25 27 26 22 25 22
24 19 26 12 12 15 8 8 2 12 11 15 19 19 19 18 20 18 21 24 28 33 34 38 39 38 41 41 39 40 38 38 38 39 39 40 39 41 41 39 33 28 26 25 28 28 23 26 24

GFSSGP_925_spd_048.txt.gz
Wind_Speed
15 14 11 7 3 4 0 4 2 8 5 4 11 2 9 11 5 8 29 22 23 22 24 20 22 21 22 22 22 22 20 18 15 15 14 13 12 13 11 11 11 11 11 11 10 9 8 8 9
15 10 5 4 4 2 5 3 5 6 8 10 10 7 8 6 4 12 19 31 26 23 21 21 23 22 21 22 22 20 17 16 15 14 14 13 12 11 11 11 11 10 9 9 9 8 7 7 7
14 6 4 3 3 3 4 4 6 9 10 6 4 6 4 5 14 21 25 29 25 22 19 22 23 23 21 20 19 17 16 15 14 13 13 12 12 11 11 11 9 8 8 8 8 7 6 6 6
12 5 4 4 5 7 7 6 9 10 6 3 8 10 8 7 17 19 33 29 27 22 23 22 22 21 19 18 17 16 15 14 13 12 11 11 10 10 10 10 9 8 8 7 7 7 7 6 5
6 4 5 6 6 4 6 9 6 4 3 7 5 7 9 11 17 33 29 28 26 25 23 21 21 20 18 17 16 15 15 14 13 11 10 9 8 9 10 10 9 8 8 9 8 8 8 6 5
5 3 6 2 6 4 8 10 5 5 8 7 8 14 5 16 28 28 29 27 26 25 25 21 19 18 17 15 15 14 12 12 12 10 9 8 8 8 9 8 8 7 7 8 9 8 8 6 5
7 5 3 1 5 6 9 8 4 7 9 9 16 11 10 20 27 27 28 26 25 25 24 21 18 16 15 14 13 12 11 10 9 9 8 8 8 8 7 7 7 6 6 5 6 7 6 6 6
3 4 7 4 5 11 10 7 7 8 7 14 12 7 14 25 29 28 26 25 24 25 23 21 18 16 14 12 11 10 10 9 8 8 7 7 8 8 8 8 6 6 6 5 5 5 5 6 7
4 6 7 4 4 10 12 10 7 7 12 7 5 9 24 31 28 28 28 24 20 24 23 22 20 17 14 12 10 9 9 9 8 7 7 6 5 5 5 5 6 4 5 4 4 5 5 6 7
8 8 2 5 1 5 11 8 11 9 13 11 8 17 31 33 27 28 28 25 24 25 24 22 20 18 15 12 11 10 8 8 7 6 5 4 3 2 2 3 3 3 2 1 1 3 6 3 7
8 5 1 3 3 3 11 9 8 9 11 13 15 23 28 31 27 27 27 26 27 26 24 23 20 18 16 13 11 10 9 8 7 6 4 3 1 1 0 1 3 2 1 2 1 1 3 4 4
8 10 5 4 5 1 5 8 9 10 6 14 17 25 28 26 25 28 27 26 25 25 24 22 20 18 16 13 12 10 10 9 8 7 5 3 2 2 1 1 2 1 2 3 2 3 3 2 3
16 8 7 9 8 6 6 9 7 10 6 16 20 24 25 24 27 27 26 26 25 25 24 22 20 19 17 14 12 11 10 10 9 7 6 4 3 2 1 1 1 1 1 1 2 1 1 1 2
9 14 9 8 8 5 9 8 9 10 9 17 21 24 24 24 27 26 26 26 26 24 24 22 21 20 17 15 13 12 11 10 9 8 7 6 5 3 1 1 1 0 1 3 4 4 1 1 2
12 10 11 12 11 7 8 11 12 15 15 18 21 21 23 23 28 27 28 26 26 25 24 23 22 21 19 17 15 13 12 11 11 10 9 8 7 5 2 0 2 1 1 2 2 2 1 3 1
14 15 14 16 14 8 14 11 16 17 17 19 21 21 22 23 27 28 28 27 27 25 24 23 22 22 20 18 16 15 13 13 12 11 9 9 9 7 5 3 2 1 1 0 1 1 4 1 1
13 14 19 11 16 9 15 9 16 19 19 19 21 22 21 22 25 29 29 28 27 27 25 24 23 22 21 19 17 16 15 14 13 12 11 10 10 10 9 6 3 2 2 1 1 2 3 2 1
17 18 16 16 15 13 15 15 6 19 19 19 20 21 22 23 25 29 30 29 28 27 26 24 24 23 22 19 18 17 17 16 15 14 13 10 11 11 11 10 7 4 1 2 1 2 0 1 2
13 12 18 15 9 13 16 15 12 14 18 19 20 21 22 23 24 29 30 29 28 27 28 27 27 26 24 23 21 20 20 18 17 16 14 11 10 11 11 10 8 7 4 3 2 3 4 1 1
22 17 19 13 7 9 16 15 13 13 19 20 20 21 22 21 22 27 31 31 32 31 31 29 29 27 28 24 24 21 20 19 19 17 15 13 10 10 10 11 9 8 4 4 5 4 2 1 1
23 23 18 15 11 14 13 15 15 11 15 18 20 21 20 22 23 24 29 34 33 33 32 31 29 28 27 25 22 19 18 18 19 19 18 16 14 12 12 11 12 9 6 5 4 5 4 1 1
25 24 18 16 12 13 15 15 19 20 17 18 20 20 23 24 24 23 26 32 34 35 34 33 30 28 26 26 24 25 25 21 22 20 19 18 17 15 14 12 9 12 9 7 5 5 6 4 3
21 17 18 21 18 17 21 10 16 12 18 19 20 22 23 25 25 25 26 36 38 36 35 33 31 30 29 28 29 26 25 25 19 20 17 19 18 18 17 15 13 13 12 10 7 7 7 6 5
11 18 15 15 17 19 24 20 17 17 18 18 20 21 23 23 25 25 33 34 34 35 33 32 32 33 32 31 31 28 26 26 22 20 18 17 17 19 19 18 16 15 14 11 10 10 9 8 6
23 20 11 14 17 20 19 21 20 9 17 20 19 21 23 23 24 25 25 26 33 35 36 35 34 33 34 34 32 34 32 28 26 21 21 18 18 18 18 19 20 18 16 13 12 12 11 11 10
29 25 13 20 15 18 18 17 22 22 21 7 18 18 20 22 22 24 27 31 34 37 37 36 34 34 34 35 36 35 34 32 30 27 26 22 21 19 17 19 21 20 17 15 15 13 12 12 12
25 27 25 17 9 9 15 19 16 13 18 23 20 17 20 20 22 24 26 34 36 36 36 39 39 37 36 38 37 36 35 35 32 30 27 27 23 21 19 20 22 21 19 18 16 16 15 15 15
19 24 22 17 22 20 13 18 13 18 23 19 22 23 19 20 22 23 23 31 37 39 40 40 40 39 42 41 38 36 36 35 36 31 31 28 27 27 22 22 23 22 21 20 20 19 18 18 17
22 18 23 17 17 13 14 13 16 17 17 22 21 20 21 21 20 22 23 30 35 36 37 39 39 40 39 38 39 36 37 37 36 36 35 34 31 28 28 26 24 24 23 22 23 22 21 21 20
27 24 27 14 23 20 15 10 8 5 12 18 18 19 20 18 18 18 19 23 28 33 36 39 40 40 40 39 38 39 38 37 37 38 38 36 35 33 32 29 28 27 26 25 25 25 25 25 24

GFSSGP_925_spd_051.txt.gz
Wind_Speed
16 13 11 4 4 7 3 3 7 8 6 14 7 5 15 16 7 9 30 25 27 22 19 16 19 19 19 19 19 19 17 15 14 13 13 13 13 13 13 13 13 13 12 11 10 10 9 9 9
14 11 6 4 5 1 4 6 6 7 12 13 10 11 10 7 14 24 21 22 25 23 21 19 20 20 20 19 19 18 16 15 14 14 13 13 13 12 12 11 11 11 11 11 10 9 8 8 8
13 12 3 4 6 2 2 8 10 12 8 8 7 12 7 7 22 30 30 26 24 22 21 21 21 21 20 19 18 17 16 15 14 13 13 12 12 12 11 10 9 10 10 9 9 8 8 7 7
11 4 6 2 10 11 6 12 9 10 8 7 9 12 12 13 25 21 37 30 26 23 23 22 21 20 19 17 16 15 15 14 13 12 12 12 11 10 10 10 10 10 9 9 8 8 7 6 6
8 5 4 5 16 11 10 10 6 10 5 10 14 10 11 7 19 41 34 28 28 26 24 22 22 20 18 17 16 15 14 13 12 11 11 11 10 10 10 10 11 10 10 10 10 9 8 8 7
5 8 9 4 16 12 10 6 7 13 6 10 14 16 9 16 37 36 29 28 28 29 27 23 21 20 18 16 15 15 13 12 11 11 10 9 9 9 9 9 10 9 9 9 10 9 8 6 6
14 11 16 19 4 16 9 6 9 10 7 11 14 11 14 25 31 32 29 26 28 29 27 23 20 19 17 15 14 13 12 11 10 9 8 8 9 9 9 8 8 7 7 7 7 8 7 6 6
9 7 20 5 10 11 12 10 9 10 16 13 18 9 19 28 31 31 26 23 25 29 25 23 20 19 16 14 13 12 11 10 9 8 8 9 11 11 10 10 7 7 6 6 6 6 5 7 7
10 11 8 7 13 7 11 13 9 12 13 8 3 20 28 32 30 29 26 23 18 27 26 23 21 18 17 15 12 12 11 10 9 7 8 6 8 6 10 6 5 6 6 6 5 4 6 7 6
14 11 12 12 21 8 12 15 11 11 12 11 14 26 33 31 28 27 24 23 18 28 26 24 22 19 17 16 13 11 9 8 8 9 4 4 4 6 6 5 5 4 3 3 3 6 8 11 6
18 6 27 10 1 21 13 17 10 14 11 13 18 25 28 31 26 27 26 24 24 27 27 25 21 19 17 15 13 12 10 11 7 5 5 3 4 5 1 8 5 4 3 2 4 1 8 9 6
18 11 9 5 6 5 10 16 14 5 14 15 19 25 26 27 24 29 29 29 28 26 25 24 21 18 16 13 13 12 11 9 10 9 6 3 3 4 2 5 7 4 2 1 3 2 6 2 5
18 16 12 5 8 7 3 10 10 12 9 17 20 24 26 24 28 31 31 30 28 26 24 23 21 18 16 12 13 11 10 10 8 7 7 3 3 3 2 1 3 4 2 5 4 4 2 6 2
13 17 11 13 13 11 13 11 14 17 13 18 20 23 23 24 28 28 27 28 28 27 25 23 21 19 17 16 11 11 11 10 8 8 7 6 5 2 3 3 2 3 7 6 4 4 1 1 1
16 13 16 15 12 12 17 18 18 20 17 19 21 21 22 23 27 26 27 26 27 26 25 24 22 21 19 17 14 13 12 10 10 8 7 6 5 4 2 1 3 4 3 3 3 1 3 4 2
17 18 17 20 19 16 17 14 16 20 19 20 21 21 21 23 26 27 28 27 28 26 26 24 23 23 20 18 16 14 13 12 10 9 9 9 7 5 5 3 2 2 2 2 1 1 4 3 3
17 17 21 19 21 17 18 9 20 21 19 19 20 20 21 22 24 28 30 29 29 27 26 26 23 23 21 19 16 15 14 13 11 11 10 11 9 8 8 6 4 1 2 4 3 2 6 6 2
22 22 20 20 21 20 17 10 9 20 19 20 19 20 20 23 24 30 30 30 29 29 27 26 24 22 22 19 18 17 16 15 14 13 13 10 10 9 9 9 4 1 2 2 2 4 2 3 4
22 22 22 20 13 20 18 14 20 18 19 20 22 21 22 23 23 30 30 31 29 29 28 28 26 24 22 22 21 19 19 17 16 15 14 13 11 11 10 10 7 7 5 2 2 4 5 7 4
27 22 22 14 18 19 18 18 19 19 20 18 21 22 22 21 22 26 31 32 32 31 31 28 28 25 26 23 21 20 18 17 16 16 16 15 12 12 12 10 7 9 7 6 5 4 9 2 1
27 25 19 19 17 13 10 16 16 19 17 18 20 21 21 23 23 24 27 33 34 34 32 31 30 29 28 25 22 18 16 16 17 18 18 17 15 14 13 10 8 6 7 11 8 7 7 6 4
28 26 22 20 19 17 22 15 20 18 17 17 21 22 24 23 24 24 26 32 35 35 34 32 32 30 29 28 23 24 22 20 21 19 19 17 18 17 15 13 11 10 11 9 6 6 6 4 5
26 23 23 21 18 18 20 18 16 24 23 22 22 24 23 25 25 26 26 35 37 36 36 34 32 31 29 29 29 25 25 23 18 20 18 20 18 20 18 16 14 12 11 11 7 4 7 7 7
21 21 20 23 19 19 24 20 16 14 19 23 23 22 22 24 24 25 32 34 34 36 36 35 33 32 32 30 33 27 26 26 23 20 20 18 19 20 20 19 17 15 14 12 9 10 9 9 7
23 20 14 17 18 17 25 23 19 16 20 19 20 23 22 22 24 24 25 24 32 34 35 34 35 35 35 34 31 34 29 27 24 20 22 19 19 19 22 25 20 19 17 14 14 12 11 11 10
26 25 16 22 19 18 24 25 23 24 20 12 21 21 24 24 22 24 25 28 33 35 37 37 36 36 36 35 35 33 33 30 30 27 23 23 21 18 15 24 19 21 20 19 16 15 13 13 12
24 27 26 23 23 17 21 21 25 21 24 20 13 20 23 24 24 25 26 31 35 35 36 38 36 38 38 39 37 36 35 35 33 32 31 27 21 21 16 18 18 21 22 20 18 18 16 13 14
30 22 24 18 24 19 20 15 16 21 16 19 24 17 21 22 25 23 24 29 34 38 39 40 40 38 42 41 40 39 38 38 36 32 31 29 29 24 17 21 20 22 24 23 22 20 19 17 17
25 24 28 21 19 17 12 11 14 15 19 22 20 23 21 21 24 24 22 32 36 36 37 38 39 40 39 40 40 39 39 38 35 35 33 33 28 26 28 20 24 24 25 25 25 24 20 22 20
28 30 27 18 24 18 13 8 9 5 9 15 20 18 23 21 21 23 24 25 31 35 38 39 40 40 40 40 39 39 37 37 37 36 36 34 34 31 29 31 26 28 28 28 27 26 25 23 24

GFSSGP_925_spd_054.txt.gz
Wind_Speed
14 12 9 2 3 5 2 6 5 1 9 16 10 12 13 11 2 5 21 21 20 19 15 15 18 19 18 19 19 16 14 16 14 14 14 14 14 14 15 15 14 13 13 12 12 12 11 10 9
15 13 5 3 3 3 4 12 3 11 11 20 17 16 13 11 10 17 16 29 21 21 17 15 18 19 19 19 19 16 15 14 14 14 13 12 12 13 13 12 12 12 12 12 11 10 10 9 8
14 13 2 3 2 3 4 11 11 14 15 15 8 12 7 8 19 19 29 35 23 22 19 18 19 20 20 19 18 16 15 15 14 13 12 12 12 12 11 11 11 11 11 10 10 9 9 8 7
10 3 5 3 9 12 7 8 15 14 20 22 16 12 12 20 21 23 32 26 27 21 18 20 20 20 20 19 17 16 15 14 13 13 12 11 12 11 11 11 11 10 10 9 8 8 8 7 6
2 4 3 1 7 8 20 15 9 13 18 18 19 15 11 21 31 35 30 29 26 23 21 19 20 20 19 17 17 15 14 14 12 12 11 10 11 11 11 11 11 10 10 9 9 9 8 7 6
4 4 3 5 7 16 8 11 17 19 21 19 20 21 8 23 39 29 30 28 27 27 24 20 20 19 18 17 15 15 14 13 12 11 10 10 10 10 11 11 10 10 10 10 9 8 8 7 6
13 9 8 11 9 14 6 13 8 13 13 20 20 14 14 23 38 33 30 25 29 26 25 22 18 17 18 16 15 14 13 12 11 11 10 10 10 10 10 10 10 9 9 8 8 7 6 7 8
12 12 24 12 10 4 4 10 11 17 19 20 24 10 17 28 35 33 28 31 29 29 25 23 20 18 17 15 14 13 12 11 11 11 11 10 10 10 10 10 9 9 7 7 7 7 7 5 6
18 9 12 13 7 12 16 15 19 18 20 16 10 26 31 35 33 30 26 29 20 30 26 23 21 19 18 16 13 12 11 10 10 11 11 12 7 7 7 8 7 8 6 5 6 7 4 4 3
14 8 7 21 4 4 9 13 14 12 15 17 26 32 37 35 31 24 23 25 24 32 28 25 22 20 19 15 13 11 10 10 8 6 2 8 10 11 8 5 7 7 6 4 3 7 3 2 5
21 2 11 7 4 16 8 4 13 15 14 26 28 30 28 29 27 26 21 24 21 31 29 28 26 22 19 21 16 16 13 14 8 11 12 5 10 9 7 5 6 6 4 6 5 2 10 7 5
16 12 19 18 13 7 3 13 14 14 18 24 27 29 28 28 17 25 23 23 22 28 28 29 28 21 18 17 16 17 15 16 15 7 4 4 3 4 3 4 4 4 4 9 5 5 7 8 4
21 24 27 29 27 21 27 15 8 17 21 24 28 27 28 25 26 26 26 27 23 25 26 29 28 24 14 15 15 16 13 10 13 10 5 4 2 4 4 4 9 1 3 2 4 5 10 7 3
17 19 20 12 7 24 21 17 9 12 21 24 26 27 26 26 29 31 33 29 24 24 25 29 26 25 17 12 9 5 12 11 8 8 11 6 4 6 2 6 4 8 6 11 4 1 7 4 1
20 14 17 15 14 12 17 10 12 6 22 23 24 25 24 26 34 32 37 36 35 28 27 29 25 23 20 15 8 9 9 10 9 5 8 6 6 4 3 2 3 9 4 7 5 3 3 4 1
19 16 15 21 22 21 19 16 12 18 20 21 23 23 23 24 29 35 33 35 34 30 29 26 24 25 23 18 14 13 11 11 11 11 10 10 9 5 3 2 4 4 2 6 3 3 6 5 5
19 17 23 22 18 18 19 18 21 5 16 20 20 22 21 20 23 28 29 28 29 30 30 25 25 28 27 21 17 17 14 12 11 10 11 13 11 7 4 3 2 1 2 7 5 3 3 6 1
19 21 20 21 18 24 22 16 19 15 21 26 22 21 21 22 22 27 28 29 29 27 29 30 26 23 29 23 21 18 15 14 13 11 11 17 11 9 7 7 8 6 4 6 4 2 3 3 2
20 22 23 21 21 24 21 20 24 13 4 16 23 23 23 22 22 28 29 29 30 28 29 32 26 25 30 25 23 18 19 16 16 14 13 14 9 11 9 8 11 8 4 8 3 3 1 2 3
27 25 23 21 12 6 20 25 25 23 31 35 21 18 23 22 21 22 29 31 31 33 33 33 30 31 28 26 24 22 19 19 19 18 16 15 12 13 11 8 4 8 6 7 6 4 2 7 4
28 27 24 21 17 11 22 10 27 28 25 28 25 29 23 23 23 21 24 29 32 34 35 34 33 29 29 25 23 21 19 19 21 20 20 20 18 14 14 11 11 8 7 10 8 7 5 2 5
27 28 27 24 18 14 20 9 26 16 20 23 25 22 24 24 22 23 23 28 32 33 35 36 35 32 31 30 26 24 21 19 20 21 20 22 22 18 16 15 11 10 8 10 11 10 5 7 9
26 25 25 25 19 17 20 16 14 20 18 21 22 25 23 26 26 26 24 33 35 35 35 36 35 35 31 35 28 30 25 23 20 21 22 24 25 23 20 17 17 14 12 12 9 12 8 7 5
24 22 24 23 18 17 22 18 19 16 20 20 21 22 26 25 26 25 32 33 32 33 35 35 36 36 35 33 39 28 30 25 24 22 21 21 21 26 23 20 18 17 12 12 11 8 9 10 6
24 23 14 17 17 17 21 20 14 16 23 18 21 21 21 25 24 24 25 24 32 32 34 35 36 35 36 34 35 40 27 34 29 26 25 20 22 24 28 26 22 20 19 16 13 13 11 11 10
28 26 14 24 17 18 22 21 19 21 17 20 21 24 22 20 23 25 25 25 33 36 39 38 40 39 38 39 36 36 35 26 35 31 22 25 20 23 24 30 29 25 22 20 16 15 15 14 14
26 25 24 20 21 17 18 22 24 25 23 19 12 22 24 22 21 24 25 29 35 35 37 41 41 42 42 41 38 36 37 36 30 33 29 21 26 22 14 27 29 26 24 21 23 18 18 17 19
30 21 21 17 22 22 19 22 18 23 20 26 20 17 18 23 22 24 23 26 34 39 40 41 40 43 43 42 41 40 38 40 37 29 34 32 24 21 13 25 29 27 25 24 23 21 21 22 20
21 22 25 20 16 15 15 14 16 24 25 20 19 19 16 21 23 21 22 29 36 39 38 39 39 38 39 40 39 39 39 37 37 36 32 35 32 32 26 17 27 27 25 26 26 25 23 25 23
27 28 26 12 20 16 14 10 14 11 23 18 15 20 19 16 21 21 21 24 31 33 37 39 40 39 41 41 38 37 35 36 36 37 34 33 32 29 33 29 23 27 28 29 30 29 27 22 26

GFSSGP_925_spd_057.txt.gz
Wind_Speed
12 11 6 2 2 2 4 3 3 5 2 7 12 10 9 4 2 5 26 27 28 21 20 21 22 22 23 22 18 18 17 16 15 15 16 16 15 15 16 15 15 15 14 13 13 12 10 11 11
14 11 3 2 2 2 2 3 12 6 19 17 16 12 8 5 7 16 20 32 26 23 21 23 22 22 22 20 16 17 15 16 15 14 13 13 13 13 14 14 14 14 13 12 12 10 10 10 11
14 12 1 2 2 3 3 6 7 12 18 12 7 7 6 5 16 23 31 36 27 25 23 23 22 21 21 20 17 16 15 15 13 13 14 13 12 12 12 12 13 12 12 11 10 9 9 9 10
12 1 3 1 2 9 6 12 13 17 15 13 15 10 9 14 21 16 42 33 31 26 24 23 22 21 21 19 17 16 15 13 13 13 13 12 11 11 12 11 11 11 11 11 10 9 8 8 9
10 2 2 3 3 5 11 16 14 15 11 16 8 8 12 8 21 45 36 26 30 25 25 23 23 22 21 19 17 16 14 12 13 12 11 11 11 11 11 11 11 10 10 9 9 8 8 8 8
3 3 3 3 8 14 17 14 15 18 18 19 16 14 6 31 36 29 25 32 28 25 26 23 22 21 20 19 16 15 14 12 12 11 10 10 10 11 11 10 10 10 10 10 10 9 7 7 9
5 3 6 4 6 11 16 11 17 20 18 15 20 9 14 25 27 29 29 30 27 26 26 24 21 19 19 18 16 14 13 12 11 11 10 10 9 9 10 10 10 9 9 8 7 7 8 9 8
7 4 3 6 10 6 4 7 24 22 17 21 13 8 17 22 37 28 32 32 32 29 26 24 22 21 19 18 16 14 13 11 10 10 9 10 8 7 8 8 8 7 7 6 5 5 6 7 8
19 8 8 1 2 8 9 6 16 17 24 9 10 23 28 32 32 31 28 30 33 30 26 24 23 20 18 17 15 14 12 12 11 10 10 9 9 9 7 7 7 8 9 6 4 1 4 7 8
14 5 5 8 8 4 15 8 17 14 20 19 22 24 35 34 30 26 22 22 29 32 29 25 23 20 18 16 16 14 13 13 13 11 9 7 6 6 7 5 5 6 8 5 1 4 2 4 7
15 10 2 6 10 13 7 7 6 22 20 28 28 28 26 30 26 23 25 25 30 35 32 27 26 24 22 20 15 14 14 14 11 9 10 8 7 8 7 6 6 8 9 1 6 7 7 3 5
14 7 7 9 9 5 5 2 15 18 17 27 30 26 23 20 16 21 24 27 29 33 35 31 30 26 26 23 17 16 15 15 14 8 9 8 8 10 10 8 6 6 9 6 5 3 2 4 3
16 13 15 11 11 10 14 2 4 28 29 27 27 24 21 18 23 21 25 25 39 34 34 37 33 30 28 25 18 17 18 19 18 13 8 6 2 6 10 7 9 9 4 7 7 5 4 2 2
15 18 20 16 11 6 10 10 5 24 28 27 27 24 20 18 24 23 22 25 30 31 32 39 36 31 24 22 20 14 20 18 22 15 10 11 7 11 9 6 7 4 4 14 5 5 4 4 3
20 16 17 15 16 1 12 5 8 8 26 27 25 24 22 18 21 24 25 26 25 28 32 42 38 32 28 22 13 8 13 14 16 15 13 8 6 6 6 10 5 7 1 4 6 4 6 5 3
20 19 16 12 23 13 17 5 12 3 6 21 24 23 23 23 27 30 31 29 29 28 35 42 36 33 30 25 16 13 10 10 11 12 12 6 11 7 7 7 13 8 7 5 5 5 5 5 3
11 13 10 7 11 12 19 12 18 15 11 9 21 21 22 23 30 34 35 35 36 36 39 37 36 33 30 29 21 18 14 10 12 16 16 11 12 12 7 2 7 5 7 6 6 4 4 6 5
11 8 9 15 18 21 14 15 20 20 18 10 6 5 21 23 26 37 40 38 37 32 43 40 35 34 30 28 25 20 19 13 13 10 14 16 13 13 9 5 6 8 8 7 6 5 2 4 7
14 17 12 14 17 14 10 19 25 18 18 19 15 11 13 23 25 36 40 42 38 35 41 42 34 37 33 31 29 24 23 17 17 14 8 20 15 12 11 7 8 10 7 12 7 5 3 4 4
19 20 17 15 18 12 19 23 21 23 13 19 21 14 16 21 19 23 32 37 39 38 42 38 37 36 37 34 32 28 24 21 19 18 14 17 16 14 13 11 9 12 9 11 7 6 4 3 3
19 19 19 14 13 10 16 9 14 8 7 13 15 20 22 25 23 20 24 32 36 37 42 43 38 35 39 36 32 27 21 22 23 23 21 18 20 13 13 12 11 11 11 14 10 9 7 6 7
18 21 21 21 11 5 11 8 12 17 17 16 22 24 21 24 24 21 23 29 35 37 42 44 42 38 37 36 33 31 27 22 23 28 24 21 22 19 17 16 15 12 13 11 11 11 11 8 5
18 11 19 21 15 9 7 6 11 25 23 21 27 27 25 23 27 26 26 37 37 39 40 43 45 41 37 37 36 33 31 28 25 20 26 24 24 24 21 20 16 17 16 11 15 12 12 9 5
16 15 17 18 14 13 9 11 7 22 24 25 29 29 30 28 28 27 37 36 36 37 38 40 43 41 41 40 36 38 34 31 25 25 24 26 26 27 24 22 21 19 16 16 16 12 16 13 9
19 12 7 9 9 11 10 6 8 10 11 30 34 34 33 31 28 27 26 26 33 37 38 39 42 40 41 44 44 35 38 35 33 29 24 25 26 28 30 27 24 23 20 16 14 17 15 13 13
19 20 7 11 6 10 8 8 8 11 2 14 30 37 32 31 28 28 28 32 37 39 41 41 43 42 43 43 45 46 38 33 36 31 32 26 25 29 28 30 30 28 25 21 19 19 18 15 14
12 19 11 4 6 2 5 8 12 18 10 8 11 29 31 30 30 29 29 34 39 38 42 43 43 44 45 45 42 41 44 39 33 39 32 26 27 24 30 31 34 32 29 26 23 21 21 19 16
19 11 13 9 9 11 9 9 14 13 17 10 12 20 25 28 29 27 27 31 40 43 44 46 43 43 44 43 39 40 42 45 39 33 37 36 27 25 28 21 36 36 34 30 27 26 21 21 20
12 12 15 6 5 6 5 11 11 17 21 18 16 12 21 19 27 26 25 35 41 43 39 42 42 41 39 39 41 37 36 38 40 35 34 38 36 29 18 19 29 36 36 33 28 26 26 24 24
18 19 11 11 13 4 4 10 5 10 26 22 14 13 15 19 27 26 26 30 35 37 38 39 40 42 43 43 36 37 33 32 34 36 36 33 37 39 34 22 25 32 35 32 33 29 29 28 28

GFSSGP_925_spd_060.txt.gz
Wind_Speed
12 12 8 3 1 1 1 3 3 2 3 8 14 4 8 7 1 3 24 21 27 25 24 23 25 23 20 20 19 18 17 16 16 15 15 16 16 15 14 14 14 13 13 13 12 11 11 13 12
15 11 3 1 1 1 1 2 11 5 6 16 10 8 6 4 4 12 16 32 28 26 25 26 25 24 20 19 18 17 16 16 15 14 13 14 14 13 13 13 12 12 12 10 9 10 11 12 12
15 7 0 2 1 2 2 7 7 10 12 7 6 7 5 4 13 21 26 33 29 27 27 24 26 24 20 17 17 17 16 14 13 14 14 13 13 12 12 12 12 11 10 9 8 9 10 12 12
7 1 2 2 3 2 3 4 2 14 5 7 13 9 6 6 22 17 37 32 31 30 28 24 24 22 20 18 17 16 15 13 14 14 13 12 12 12 11 11 11 10 9 8 7 6 8 10 11
1 2 2 2 3 5 8 8 12 9 4 7 4 7 9 10 13 38 32 31 31 30 27 25 23 23 20 18 17 16 13 13 13 12 13 12 13 12 11 11 10 10 9 7 6 5 5 8 10
3 2 0 3 2 4 10 10 9 7 8 12 12 11 3 12 32 29 25 34 31 31 29 25 23 22 20 17 17 15 12 12 12 11 12 13 13 12 12 10 10 10 9 8 7 5 4 5 9
3 3 1 3 7 6 12 1 12 10 10 7 13 6 5 21 29 31 24 31 30 30 30 27 23 20 18 17 15 14 12 12 11 10 11 12 12 12 11 10 9 9 8 6 7 6 5 4 9
2 2 5 4 4 5 5 4 13 15 6 15 13 8 13 26 28 23 32 31 30 29 28 26 23 21 20 17 14 12 12 11 10 10 11 11 10 10 9 10 9 8 7 6 6 7 6 5 5
3 3 5 5 2 4 6 13 10 5 14 4 8 10 31 32 30 30 29 28 29 27 28 25 24 21 20 17 14 13 12 12 11 11 11 11 10 10 8 7 7 7 6 6 4 4 6 8 5
7 4 7 7 8 4 9 12 9 8 9 10 15 24 31 31 24 27 25 24 25 29 27 26 24 22 20 17 16 14 13 13 12 12 11 8 8 6 5 5 5 4 5 5 5 3 5 7 7
9 6 6 7 11 6 4 9 10 17 7 21 28 29 23 26 21 25 24 27 27 33 29 27 25 22 21 19 17 15 15 15 13 11 11 9 8 7 6 5 7 6 6 3 3 2 7 8 8
6 9 15 9 7 5 5 3 11 12 8 19 30 31 25 22 20 24 22 28 28 31 31 28 25 24 21 19 19 18 19 17 15 12 9 9 9 8 7 8 8 7 4 4 6 7 8 6 6
12 17 10 11 6 4 3 7 14 8 20 21 24 25 25 20 22 24 23 28 29 28 33 31 27 26 24 21 21 21 19 18 15 15 11 9 9 10 9 9 7 7 5 6 6 5 6 4 0
5 16 12 5 7 2 9 5 6 13 22 25 26 22 22 23 23 26 26 29 30 31 34 33 31 29 27 24 22 21 19 16 15 16 14 9 8 9 9 10 13 6 6 9 5 5 4 4 3
17 15 10 12 10 3 13 7 8 18 19 26 23 20 17 16 24 22 30 30 36 33 36 36 35 32 30 27 23 17 18 21 20 18 15 12 10 9 10 8 9 6 3 6 5 4 5 2 3
6 11 13 16 10 10 7 1 9 20 22 23 24 20 18 18 23 22 26 27 34 31 34 39 37 36 31 28 22 15 10 19 17 20 18 13 12 11 10 12 9 9 8 7 5 5 4 3 2
2 7 7 14 19 14 7 12 11 18 20 21 22 23 21 18 20 25 28 29 34 34 37 41 36 38 35 31 26 19 13 12 16 16 18 15 15 13 12 9 11 7 8 6 8 5 5 4 5
5 4 6 10 5 18 8 13 13 13 20 21 21 21 23 21 22 30 33 30 34 30 38 45 39 42 38 32 27 23 17 15 9 18 18 18 19 15 13 8 9 10 9 10 8 6 3 4 3
6 7 10 8 16 25 23 22 20 19 11 20 22 21 22 25 27 32 33 33 35 27 39 41 41 43 38 33 30 28 24 20 15 13 16 20 18 16 14 11 12 11 9 8 6 6 5 5 2
13 14 16 14 10 10 20 23 25 23 22 17 23 23 25 22 22 28 34 34 38 31 39 40 43 46 41 36 34 33 31 25 20 16 14 16 21 17 15 13 12 13 8 7 9 8 6 4 5
16 16 14 13 6 7 14 5 11 12 9 11 17 19 20 22 23 23 30 37 38 34 40 40 46 47 43 38 33 31 28 26 23 21 19 15 22 20 18 13 12 12 14 12 11 10 8 7 5
16 16 15 16 5 4 12 5 12 16 21 17 16 17 18 20 23 23 28 36 40 39 39 41 47 47 45 40 36 34 29 24 31 27 22 19 22 23 23 14 14 11 12 14 13 11 11 6 6
15 10 12 13 5 4 11 1 7 18 20 23 23 21 19 19 20 25 26 42 46 42 40 42 45 47 45 43 39 38 30 33 27 28 25 24 21 27 23 18 16 16 14 14 13 11 12 10 9
11 9 11 3 4 8 10 9 5 15 29 25 21 22 21 21 21 24 33 37 39 41 42 41 41 45 45 45 42 40 37 34 32 26 25 29 25 26 26 22 20 18 19 17 14 14 13 12 11
15 6 6 4 6 9 10 6 14 24 29 25 29 24 23 21 20 22 23 27 36 40 42 41 41 38 42 45 43 43 41 36 34 32 30 25 29 29 29 27 25 24 22 20 18 17 14 16 15
12 17 9 12 5 9 4 9 12 13 26 26 26 27 25 25 21 21 25 31 35 39 41 42 42 41 43 46 44 44 42 39 37 35 30 30 29 29 28 31 30 29 26 23 19 19 19 18 17
9 16 14 4 2 1 4 7 7 9 12 14 26 26 25 29 26 25 25 34 36 38 42 45 43 44 42 43 43 45 46 44 41 39 36 33 25 28 27 30 33 31 30 27 23 22 23 20 19
24 7 6 3 16 10 5 6 12 9 11 9 16 27 29 28 28 24 24 32 39 40 44 44 45 46 44 43 41 40 41 44 41 39 38 35 32 27 27 30 31 34 33 30 29 27 25 24 23
15 16 5 6 5 10 4 10 8 10 11 11 15 25 26 28 27 27 25 35 41 40 40 41 41 42 40 40 39 38 38 42 43 41 39 40 36 31 27 31 28 31 35 35 33 32 29 28 27
7 10 13 9 11 3 5 14 6 12 12 10 14 25 29 28 30 28 26 32 35 38 39 39 40 40 42 43 40 38 37 36 37 40 43 38 39 38 37 28 24 31 32 36 37 35 33 32 32

GFSSGP_925_spd_063.txt.gz
Wind_Speed
12 12 8 2 1 1 2 2 3 3 5 6 19 6 8 4 3 3 16 20 27 27 25 22 19 19 17 17 17 16 16 17 17 17 16 16 16 16 15 15 13 13 13 12 12 12 12 12 13
15 12 2 1 1 0 1 2 2 2 3 16 12 8 4 3 3 10 14 29 29 28 26 25 21 19 17 17 16 16 16 16 16 15 15 16 15 14 15 14 13 12 11 11 11 11 11 12 12
18 7 1 1 1 2 1 3 9 8 7 9 6 6 3 3 11 17 23 32 29 27 26 26 22 20 17 16 16 15 14 14 14 13 13 13 14 14 14 12 12 12 11 10 11 10 10 11 11
10 2 2 1 1 2 3 4 7 10 2 9 9 9 4 3 20 12 35 31 30 27 27 24 23 19 16 16 16 15 13 14 13 12 12 12 13 13 12 11 11 10 9 10 10 10 9 11 12
3 0 1 1 0 2 5 5 1 7 3 2 3 5 7 4 11 34 30 30 32 29 26 24 22 19 16 16 15 13 13 13 11 13 11 12 12 12 11 10 11 10 9 8 8 9 9 10 9
2 1 1 1 2 2 6 11 2 6 3 8 11 12 5 15 31 23 26 31 30 29 24 23 21 19 17 16 15 13 12 12 10 11 13 11 12 12 11 11 11 10 9 9 9 9 9 9 9
2 2 1 2 3 4 3 9 8 6 5 5 15 6 4 20 23 24 29 30 29 28 26 23 21 18 16 16 14 12 12 11 10 11 11 11 11 11 9 9 8 8 7 7 9 9 10 10 8
2 1 2 3 2 4 2 4 12 7 4 9 12 7 9 24 28 26 29 29 27 27 25 25 22 20 18 16 14 12 12 11 11 10 11 10 10 10 9 8 7 6 6 7 8 9 11 10 9
2 1 3 3 3 3 1 4 6 5 11 4 4 6 23 34 29 27 27 24 25 26 26 25 23 20 18 16 14 12 12 11 10 9 9 9 9 8 7 6 5 5 4 6 7 8 10 10 10
3 2 5 6 4 2 2 11 9 5 9 5 12 19 35 33 25 25 24 23 23 24 27 24 23 21 19 17 15 13 12 11 11 10 9 7 7 6 6 5 4 2 3 4 6 7 9 9 8
5 5 6 4 4 3 4 4 2 14 4 6 26 29 27 26 27 25 24 25 25 29 27 25 23 21 20 18 16 14 13 13 12 10 8 6 5 5 4 5 4 3 3 1 3 3 9 9 6
4 11 11 6 6 6 3 7 6 14 4 13 28 30 26 23 21 25 25 26 26 29 30 27 25 22 20 17 16 15 16 14 12 10 9 7 6 6 4 4 5 3 2 1 3 6 8 8 5
12 9 7 11 6 6 5 7 7 10 8 19 26 23 23 20 24 24 24 25 29 28 30 29 26 24 21 19 17 17 17 15 12 10 8 6 5 6 7 6 6 4 2 1 3 5 5 4 4
4 12 14 12 8 4 8 3 7 6 16 20 25 23 19 20 26 25 25 25 28 31 33 31 28 25 23 21 20 20 18 15 13 12 9 7 6 5 6 8 6 1 4 4 1 3 4 4 3
9 8 8 8 9 5 8 5 2 13 18 21 22 20 19 18 27 27 30 29 33 33 35 33 29 27 25 22 21 20 17 15 16 14 11 8 8 10 7 6 7 4 2 4 2 4 5 4 2
3 4 2 7 5 6 5 3 9 14 18 19 19 17 18 17 23 26 28 30 33 32 33 34 32 30 28 25 21 18 16 17 20 16 14 13 10 9 7 5 6 6 3 2 2 2 4 2 3
2 4 7 3 10 5 5 4 11 13 16 18 18 18 18 16 19 26 27 32 36 34 35 36 35 33 31 27 23 19 14 15 15 19 18 16 13 10 6 6 5 6 6 4 3 1 2 2 1
5 4 4 6 9 9 12 4 16 18 18 20 19 19 19 19 21 25 28 30 34 35 36 38 37 35 33 30 27 24 16 12 17 15 21 20 16 12 8 6 7 6 7 6 5 3 3 3 1
2 4 5 4 7 15 18 12 20 21 16 17 19 18 19 20 23 28 27 29 30 36 36 40 39 38 35 33 31 28 23 17 14 15 19 20 17 15 11 10 7 9 6 5 4 4 4 0 3
7 8 7 5 4 6 14 16 16 21 25 22 22 20 21 18 18 24 28 32 29 34 37 41 41 41 39 38 37 32 28 22 17 13 13 20 18 17 15 13 12 11 8 7 7 6 3 2 4
11 14 10 4 4 8 10 7 10 14 13 15 20 20 19 22 22 21 25 32 34 33 38 40 43 42 44 42 38 30 27 26 23 18 16 13 20 19 17 14 13 12 12 9 8 7 6 5 4
12 10 15 9 6 6 7 5 7 20 20 19 20 24 22 22 21 21 25 29 36 32 38 41 43 42 43 45 41 36 28 26 30 27 21 17 16 21 19 17 15 13 13 13 10 9 9 7 7
11 6 10 5 7 6 8 2 6 12 19 22 23 23 24 24 24 23 24 35 36 36 35 40 42 41 40 45 42 39 33 32 27 30 24 21 20 22 23 21 19 15 14 13 13 12 11 10 8
4 5 5 2 4 10 10 10 6 7 18 23 23 22 22 23 24 24 33 35 35 37 35 36 40 41 42 44 45 42 37 32 29 26 29 24 23 24 27 25 24 18 17 16 14 13 13 13 11
12 5 4 3 6 10 9 8 18 11 20 24 23 25 24 22 22 23 24 26 34 37 37 36 38 38 41 44 43 44 42 37 32 31 28 29 28 27 28 30 27 24 20 18 17 14 16 15 14
12 13 6 6 4 9 7 7 11 13 16 20 24 24 23 25 23 24 24 31 36 38 39 39 39 40 40 45 44 45 43 39 36 33 33 30 28 29 27 28 29 27 24 21 20 18 19 17 18
8 15 10 2 1 2 3 6 10 7 10 13 19 16 21 22 24 26 24 30 34 38 43 42 40 41 42 44 43 42 44 41 39 36 32 34 31 29 27 28 28 30 28 26 24 23 22 22 22
16 6 5 1 15 10 4 4 8 9 10 10 12 20 20 22 24 21 22 27 34 39 41 42 42 43 42 42 42 44 45 45 41 38 36 34 33 29 30 30 27 28 30 30 29 28 25 25 26
1 12 4 6 6 12 4 7 6 9 11 14 14 18 21 23 22 23 23 30 35 33 36 40 40 40 38 40 41 38 39 41 41 40 40 38 36 34 33 28 27 27 29 33 31 32 30 28 29
9 7 11 8 9 4 3 16 6 10 9 9 11 16 17 21 23 23 23 28 31 33 35 40 40 39 41 40 39 39 40 39 41 42 42 41 39 37 34 31 30 29 29 31 33 35 35 34 33

GFSSGP_925_spd_066.txt.gz
Wind_Speed
12 13 10 3 1 1 2 1 1 3 7 6 13 5 6 4 4 2 12 19 30 28 24 20 20 18 17 17 17 17 17 16 16 16 15 14 15 15 14 14 14 15 13 12 12 12 11 10 11
15 13 3 1 2 0 1 2 2 3 4 15 8 8 4 3 3 9 14 28 32 29 24 22 20 18 17 16 16 16 16 16 15 15 15 14 15 14 14 14 14 13 12 11 12 13 12 11 11
16 5 2 2 1 2 1 2 4 5 9 11 4 6 3 4 7 19 14 30 32 29 25 22 20 17 16 16 15 15 14 14 13 14 14 13 13 13 13 13 13 12 12 12 12 12 12 11 11
8 3 3 1 5 2 2 2 6 10 7 9 7 6 3 4 16 12 35 32 32 29 25 21 18 16 14 14 14 13 14 14 13 12 12 12 12 12 12 12 12 11 11 11 11 11 13 13 13
2 2 1 1 2 2 5 1 3 7 5 6 3 4 4 3 10 30 29 31 31 28 25 21 18 15 14 13 13 13 14 12 13 11 12 11 11 10 10 10 10 9 9 10 10 10 11 12 12
2 0 0 1 1 2 1 5 1 1 6 7 7 9 4 14 26 24 27 31 29 29 25 22 18 16 15 14 13 13 13 12 13 12 11 10 11 10 10 10 9 9 9 9 9 10 10 11 10
2 2 1 1 2 2 4 4 8 5 8 5 15 5 4 14 21 25 28 28 28 27 25 23 19 16 15 14 13 12 13 11 13 11 12 10 10 10 10 9 9 8 9 9 10 10 10 10 10
2 1 1 2 3 3 3 6 9 6 5 15 13 7 11 16 24 28 28 28 27 25 24 23 20 18 16 14 12 12 12 10 11 11 11 10 9 8 7 9 7 8 7 8 10 10 11 11 9
2 1 2 3 4 4 6 3 5 6 12 5 7 6 18 28 30 27 25 24 26 24 23 23 21 19 18 15 13 11 11 10 10 9 8 8 8 8 6 6 6 6 7 7 10 9 11 10 8
3 2 6 4 2 2 4 5 7 5 11 4 8 19 34 28 28 27 24 23 23 22 25 23 22 20 18 16 14 13 12 11 10 9 8 7 6 6 5 4 3 6 7 7 8 8 9 10 8
5 5 4 2 2 0 3 6 5 11 4 6 19 24 26 28 27 26 25 25 25 23 27 26 23 20 19 17 15 14 13 11 11 10 8 6 5 3 3 3 3 4 4 4 4 6 9 8 6
3 7 7 3 3 5 4 8 5 10 6 14 22 29 26 21 24 27 27 26 24 24 26 27 23 21 19 16 14 14 14 13 11 8 7 6 4 3 3 1 2 1 2 2 3 6 8 6 4
6 4 3 8 10 6 5 9 6 11 7 18 22 24 22 18 24 24 23 24 24 25 30 28 25 23 20 17 15 15 15 13 10 9 7 6 4 3 3 1 1 1 1 4 4 5 5 3 2
6 10 12 8 11 6 7 2 7 5 16 20 25 23 19 19 24 24 24 25 29 30 31 29 27 24 21 18 17 17 16 13 11 9 7 5 4 3 2 4 1 1 1 3 6 6 4 3 2
4 4 5 6 3 5 9 2 0 13 18 22 22 19 17 15 23 24 26 27 33 35 33 30 28 25 23 20 18 17 15 13 12 10 8 6 5 6 3 3 3 0 2 2 6 5 3 4 3
6 4 1 4 8 5 5 5 5 13 18 21 21 19 18 16 23 22 24 24 28 31 34 31 29 27 24 22 19 18 15 13 12 12 10 8 7 6 6 5 3 4 3 4 5 5 3 2 4
4 4 6 5 7 5 7 3 8 13 15 18 19 19 17 15 19 24 25 26 30 33 35 33 31 28 26 23 20 17 14 13 15 16 14 11 10 8 6 5 4 6 4 3 4 3 3 1 1
5 3 3 6 5 7 6 3 11 13 15 16 17 17 18 18 19 25 25 28 30 32 34 34 33 30 28 25 22 18 15 13 12 12 14 14 14 10 8 5 5 5 4 4 2 2 4 1 1
4 4 5 4 6 6 9 7 15 15 13 16 17 17 18 19 20 24 26 28 28 31 33 34 35 34 31 29 25 22 19 14 11 12 12 14 15 12 10 7 4 6 3 3 2 0 1 3 3
7 2 3 5 7 8 7 13 9 16 19 19 19 19 19 17 17 21 27 28 29 32 35 35 37 36 34 33 29 25 24 20 13 13 14 15 16 13 12 9 6 4 5 5 3 2 0 1 3
9 10 4 2 4 2 4 3 6 9 12 12 14 16 16 20 20 19 23 30 30 31 37 37 39 38 37 34 31 25 22 22 19 15 14 14 17 16 14 12 9 7 8 4 4 4 4 2 3
9 10 12 5 4 4 6 4 6 10 18 18 17 18 18 19 18 18 23 26 31 34 36 40 41 41 39 37 34 31 27 25 25 23 17 15 12 15 16 14 10 9 8 7 6 6 5 5 4
7 12 12 8 6 4 3 1 6 12 14 19 21 21 20 20 20 21 24 34 35 31 34 37 40 40 41 40 38 36 32 26 25 25 22 19 17 15 16 16 14 12 10 9 9 8 8 8 7
6 3 4 2 5 10 12 8 6 7 15 19 20 21 22 22 21 21 31 32 32 33 33 36 38 41 41 41 42 41 36 34 29 26 28 25 21 19 18 19 18 16 13 12 11 9 10 9 11
7 6 2 3 5 12 8 6 15 4 12 17 23 23 24 23 22 21 21 25 31 34 33 35 38 38 41 43 41 43 41 39 35 30 31 29 27 23 22 22 21 20 19 15 13 12 12 13 14
9 11 6 7 4 9 5 9 13 14 13 12 16 20 20 21 20 22 23 29 33 35 37 36 37 38 41 44 43 42 43 42 38 33 30 29 28 28 23 22 23 23 22 21 18 16 16 15 16
4 14 9 3 1 1 4 8 9 5 7 6 9 13 21 23 23 24 22 31 33 35 38 38 38 40 41 47 45 42 42 43 42 39 33 29 27 26 25 24 23 24 25 24 23 21 20 18 18
7 4 3 1 10 8 4 6 7 9 15 9 7 15 19 22 22 20 21 30 35 38 40 40 42 43 44 44 42 43 43 45 45 42 37 34 29 27 26 23 22 25 25 26 26 26 24 22 21
5 4 3 4 7 10 3 8 6 7 9 12 13 15 17 19 22 23 23 33 38 37 37 41 41 40 39 38 40 39 40 41 42 44 42 37 33 28 29 27 25 28 27 25 25 27 28 27 26
4 3 2 3 6 4 5 11 4 9 8 7 7 11 16 20 22 21 23 28 31 36 37 41 40 39 39 41 40 42 42 40 42 43 43 40 36 32 30 30 29 27 26 26 26 26 29 30 30

GFSSGP_925_spd_069.txt.gz
Wind_Speed
11 10 6 2 2 1 1 2 2 6 8 8 16 6 7 5 0 3 17 15 26 24 20 19 20 18 17 16 16 16 14 14 13 13 14 14 14 14 14 12 13 12 11 11 11 11 10 12 11
12 10 2 1 1 2 3 6 5 2 10 16 8 8 4 4 3 11 15 25 27 24 21 19 20 19 17 16 15 14 14 14 13 12 13 14 14 14 14 14 13 11 11 11 11 11 11 11 12
13 5 2 1 1 2 3 5 3 2 13 13 5 5 2 4 6 24 18 28 27 23 21 19 20 18 17 15 15 14 14 13 14 11 13 13 13 12 15 14 12 11 11 12 11 11 10 11 11
8 3 2 2 3 3 2 4 5 12 10 5 9 7 5 3 16 11 30 28 26 23 20 19 19 17 17 16 14 12 12 12 12 12 13 13 12 12 13 13 11 10 10 11 10 10 9 10 10
4 2 2 2 0 1 1 1 3 14 7 7 3 5 5 2 8 26 29 28 26 24 20 19 19 18 16 13 12 13 13 12 12 12 12 12 12 12 12 11 10 9 9 10 9 11 11 10 9
3 2 2 1 2 2 2 4 7 8 7 8 6 8 4 9 22 28 28 27 24 24 21 18 18 17 15 13 12 12 13 12 11 12 11 13 12 12 12 11 9 9 9 10 9 9 10 9 8
2 2 2 1 1 3 4 9 7 9 9 7 11 6 5 14 26 26 27 25 24 22 20 17 15 15 14 12 12 12 10 11 12 12 12 13 12 12 11 11 10 9 9 9 9 9 10 9 9
3 2 2 3 1 2 6 6 7 8 6 14 11 6 9 18 24 26 25 24 23 21 19 17 15 14 13 11 12 12 11 11 11 13 13 13 12 11 10 11 9 9 9 9 8 9 9 9 8
3 2 4 2 2 2 5 4 6 8 15 4 9 7 20 30 26 27 25 23 22 20 19 17 16 15 13 12 10 11 10 10 11 11 11 10 9 9 8 8 7 9 8 9 8 9 9 8 7
5 3 5 2 2 1 7 7 10 8 14 6 7 14 30 32 29 28 26 24 23 22 20 18 17 16 14 12 11 11 10 9 9 9 9 8 8 7 7 7 7 8 7 7 8 7 8 8 7
6 4 4 3 3 4 6 6 7 11 10 11 19 24 28 32 29 26 25 25 25 23 21 19 18 16 14 12 11 10 9 8 9 10 10 9 7 5 5 5 7 6 6 4 4 5 4 4 4
6 10 7 2 3 5 5 7 7 14 1 12 20 28 29 24 28 28 28 26 24 22 22 20 18 17 15 12 10 9 9 9 8 8 8 7 5 5 5 5 5 5 3 3 4 5 5 4 3
13 7 5 8 10 7 4 9 4 11 4 16 21 27 27 25 28 27 27 25 23 21 22 22 19 17 16 14 11 10 10 9 8 7 7 6 5 3 2 4 4 4 4 5 5 5 4 2 1
4 16 10 8 9 7 8 6 8 4 13 19 23 27 26 25 30 27 27 26 26 23 23 23 20 18 17 15 15 12 11 9 8 6 6 4 3 3 2 3 4 5 5 7 7 4 3 2 2
9 2 5 10 7 5 6 6 8 12 16 20 22 23 25 24 28 27 28 27 25 24 23 23 22 20 20 17 15 13 11 9 8 6 5 3 2 2 2 4 4 5 7 6 6 6 6 3 4
6 6 4 3 11 5 10 5 6 15 17 19 21 22 23 24 29 27 26 25 24 23 23 22 21 21 20 17 16 14 12 10 8 7 5 5 2 1 0 1 4 6 7 7 6 5 3 3 5
5 9 15 5 10 6 11 4 10 14 16 18 20 21 21 22 25 28 27 26 24 24 22 22 22 21 22 20 16 15 14 12 9 9 9 7 5 3 2 2 4 6 7 6 5 4 3 2 2
11 13 7 14 9 12 13 9 12 16 17 18 19 20 21 22 25 29 28 26 24 24 22 22 21 20 22 18 17 14 12 11 10 11 12 11 7 5 4 4 3 6 6 6 5 4 2 2 2
7 5 12 7 8 13 16 15 13 16 15 18 19 21 22 24 25 28 27 27 25 25 24 24 23 22 20 18 16 14 13 11 9 9 9 9 9 8 7 5 4 4 4 5 6 5 4 3 5
12 6 8 9 5 9 12 17 12 18 21 21 21 21 22 21 22 27 29 29 29 28 27 25 26 25 24 20 19 13 14 11 8 9 10 9 10 9 8 7 5 5 5 6 5 4 3 2 3
18 18 9 6 4 9 5 11 12 15 14 17 19 19 19 22 23 23 29 31 30 32 31 29 30 30 29 24 18 17 13 12 11 8 11 12 12 12 11 9 7 5 6 4 4 4 4 3 2
19 15 14 11 5 9 10 11 10 15 19 20 20 21 22 23 23 22 28 31 33 33 31 30 32 32 31 30 21 20 19 16 16 13 12 12 12 12 13 11 8 6 6 4 4 5 5 4 2
13 8 16 18 13 11 12 7 14 13 16 21 22 23 23 23 24 25 29 36 37 33 32 31 31 33 32 30 28 24 21 18 14 15 16 16 15 12 11 12 11 8 6 5 6 5 5 4 3
11 5 11 12 13 17 19 12 14 13 18 18 20 23 24 25 25 24 33 32 33 33 32 31 31 36 37 33 34 31 25 21 18 17 17 17 15 14 14 13 14 12 9 7 7 7 7 5 5
16 13 5 8 11 17 16 15 17 8 17 18 19 22 25 25 25 25 25 30 33 35 34 34 32 34 37 37 33 34 33 28 26 24 21 19 19 16 17 17 16 14 14 11 9 9 8 7 7
21 18 8 12 12 15 16 12 15 23 14 10 14 18 22 24 24 25 26 32 35 37 37 35 34 34 35 36 36 38 37 28 28 27 24 21 19 19 19 21 19 18 16 14 13 11 10 9 8
11 21 19 9 2 9 14 17 16 7 17 18 17 14 19 23 25 28 28 36 36 36 38 37 37 36 36 38 37 36 37 35 29 31 31 23 22 17 20 21 19 18 18 17 16 14 15 12 12
9 7 16 13 19 13 8 17 13 20 20 14 11 16 18 20 23 23 24 33 36 39 39 39 39 38 39 38 38 36 37 39 38 30 33 29 27 22 18 21 23 20 19 18 17 15 15 16 14
8 10 8 9 17 15 10 9 5 17 15 20 23 20 17 18 21 24 24 34 37 37 37 39 38 37 36 36 36 36 35 34 33 32 33 32 32 28 24 23 23 21 19 19 17 17 16 15 16
6 5 10 11 13 15 16 17 2 8 7 6 9 13 16 17 19 22 25 30 33 35 38 41 40 39 39 38 37 35 36 34 32 33 31 31 32 31 28 27 27 25 23 21 20 17 15 15 17

GFSSGP_925_spd_072.txt.gz
Wind_Speed
12 11 7 3 3 2 2 1 3 6 9 6 12 3 10 8 5 6 30 21 27 24 21 18 19 16 16 16 15 14 13 12 12 12 11 12 11 11 10 9 11 10 10 10 10 9 10 10 10
13 10 2 3 4 3 5 5 5 4 11 14 10 14 6 10 9 19 22 28 26 24 22 18 19 16 16 16 17 14 12 12 11 12 12 12 11 11 10 11 10 9 10 10 10 10 10 12 12
12 6 2 2 3 2 6 8 6 7 15 10 7 7 2 5 11 26 25 30 25 23 21 18 18 17 15 15 15 14 12 12 11 11 10 12 11 13 12 11 10 10 9 10 11 10 11 10 11
11 4 3 3 4 3 3 10 10 12 11 13 10 10 7 6 24 17 32 29 25 23 20 20 17 16 15 15 14 14 13 13 12 12 14 14 14 13 12 11 12 10 9 9 9 9 9 9 9
6 2 4 6 4 2 4 5 11 13 11 11 8 8 7 11 12 31 31 28 25 23 21 18 17 16 15 14 13 13 13 12 12 13 14 14 14 14 12 12 10 10 9 8 8 10 11 10 10
3 4 5 2 4 5 6 4 14 10 8 10 8 10 5 13 22 32 29 27 25 23 22 18 17 16 14 13 14 13 14 13 12 12 13 13 13 13 12 11 10 9 8 8 7 8 9 10 9
3 4 3 6 5 5 9 10 11 11 10 9 7 5 9 18 29 29 28 26 24 22 21 18 16 14 13 12 12 13 13 13 12 13 13 13 13 13 13 12 11 10 8 8 9 9 8 8 8
4 4 4 5 4 9 8 9 6 11 8 8 8 6 11 25 29 30 27 26 23 21 19 18 16 14 13 11 12 13 13 13 14 13 13 14 14 13 13 11 9 9 8 8 10 10 10 8 10
8 5 4 5 7 8 9 6 9 5 10 4 8 3 24 33 30 30 28 25 22 20 19 17 17 14 13 12 11 13 12 13 13 12 14 12 11 10 10 9 9 8 8 8 9 9 9 9 11
9 7 3 4 3 4 12 11 12 9 12 9 8 15 34 33 30 30 29 27 24 22 20 18 17 15 14 12 12 11 11 11 11 10 9 9 10 9 9 8 8 8 8 8 8 9 8 6 10
11 4 6 4 4 5 11 8 9 9 10 12 16 25 30 33 31 30 28 27 26 23 20 18 16 15 14 12 12 12 11 10 9 9 8 9 8 7 7 8 6 6 7 7 7 6 4 6 6
10 12 7 4 5 4 3 9 8 10 10 12 18 26 30 28 28 30 29 28 26 24 21 19 17 16 13 13 12 12 11 10 10 9 7 7 7 7 6 6 6 4 4 6 5 6 5 5 5
16 8 9 10 8 1 5 8 3 8 5 14 20 26 28 25 28 28 28 26 25 24 21 20 18 16 14 13 11 12 11 11 9 8 7 6 5 6 5 5 4 4 5 6 6 5 4 4 4
5 17 11 7 9 5 7 8 8 6 9 15 21 26 27 26 29 28 28 27 25 24 22 21 19 17 15 13 12 11 12 10 9 8 6 4 4 6 6 5 5 5 6 6 7 5 4 4 4
13 9 13 18 15 8 14 11 12 13 13 16 19 22 25 24 30 28 28 27 26 24 23 22 20 18 15 13 12 11 11 10 10 8 6 3 3 5 6 6 5 5 5 6 6 6 5 5 5
14 16 14 17 16 9 13 15 12 13 15 16 19 20 23 25 28 28 27 26 25 24 24 22 20 19 17 14 13 12 11 10 9 8 6 4 3 4 5 4 4 5 5 5 6 7 8 6 6
10 13 19 14 16 12 14 8 11 14 14 16 18 20 21 22 25 28 27 27 26 25 24 23 21 19 18 14 13 12 11 10 9 7 6 4 2 1 6 5 5 6 5 6 7 7 4 6 5
15 19 17 18 15 19 16 7 12 14 15 17 17 19 21 23 24 28 28 27 26 25 24 23 22 19 18 14 13 13 12 11 9 7 6 5 3 3 4 5 4 6 6 7 7 6 4 2 2
9 11 17 16 11 17 18 16 16 14 14 16 17 19 21 22 26 29 28 29 28 27 25 25 23 21 19 18 17 16 15 12 10 8 7 7 7 6 4 6 6 5 6 3 5 6 5 5 4
14 12 14 11 15 14 17 17 13 18 16 16 18 19 20 21 23 27 29 30 31 29 28 27 26 23 21 20 18 16 15 13 10 7 8 8 8 8 5 4 5 7 6 6 6 4 5 5 5
19 18 13 15 15 13 15 17 17 17 15 15 16 17 18 21 23 24 29 31 31 32 31 30 29 26 23 20 18 15 13 10 12 9 10 8 9 9 7 5 3 3 6 5 5 5 5 6 4
19 18 15 12 11 14 19 15 20 18 19 18 19 20 21 22 22 22 28 32 34 34 32 30 29 28 26 24 21 20 18 17 15 12 10 10 10 9 8 8 6 4 5 5 5 4 3 4 6
18 11 15 18 16 17 15 13 13 22 18 21 21 22 22 23 24 25 29 35 36 34 34 32 30 28 28 28 25 22 20 18 14 14 12 11 9 9 9 9 9 7 4 4 6 5 4 4 2
10 12 14 15 16 18 23 16 17 16 20 21 21 22 23 24 25 24 32 33 33 34 33 33 32 31 30 30 29 25 22 20 18 16 15 13 13 11 11 10 9 8 6 5 6 7 6 4 4
16 16 10 11 14 17 22 21 17 8 21 19 20 22 23 23 23 24 24 30 34 36 36 36 34 32 32 30 30 31 27 24 20 17 16 14 14 13 13 13 12 10 10 8 6 6 6 6 5
22 19 13 18 14 16 22 17 22 24 2 14 18 19 21 22 22 24 25 31 34 37 39 37 37 36 35 33 31 30 29 27 25 21 19 17 15 13 13 14 14 12 11 10 9 8 7 7 7
16 22 21 22 10 11 17 21 15 18 23 17 13 12 18 20 23 25 26 33 35 37 39 39 36 36 36 37 32 30 30 30 27 24 21 22 17 13 12 15 15 15 13 13 11 10 9 8 8
19 12 19 16 20 19 14 18 17 23 18 20 22 18 16 18 21 22 23 33 36 38 39 40 39 38 39 38 35 34 32 31 31 25 24 21 19 18 14 14 15 15 14 14 14 12 12 10 10
15 16 16 18 17 14 15 12 11 16 22 21 16 16 17 17 17 20 22 33 38 36 36 39 39 39 38 38 37 35 34 32 30 28 26 23 20 19 18 16 15 16 16 15 15 14 13 12 12
12 14 26 14 24 17 17 14 6 6 17 14 18 17 17 19 15 16 19 26 32 37 37 39 40 39 39 38 37 37 35 33 31 29 28 24 22 21 21 19 17 17 17 16 16 16 15 14 15

GFSSGP_925_spd_075.txt.gz
Wind_Speed
11 11 8 3 3 5 4 5 2 9 8 12 8 9 15 13 6 11 31 26 28 24 21 17 16 14 13 13 12 12 12 12 11 10 9 10 10 10 8 10 11 11 11 11 10 11 11 11 12
13 10 7 3 4 2 6 8 7 7 8 13 10 13 11 15 14 23 24 30 27 24 21 18 15 15 13 14 13 12 11 11 10 9 10 10 10 9 10 10 10 11 12 11 11 10 11 12 12
8 11 3 3 4 1 10 10 10 12 15 9 8 7 9 11 22 26 30 31 26 25 22 18 16 16 14 14 14 13 11 11 10 11 10 10 11 11 10 9 10 11 12 12 11 10 11 11 12
9 3 4 5 2 3 14 5 9 16 12 4 10 12 10 15 26 29 33 28 25 25 21 18 18 15 14 13 13 12 13 12 13 12 12 11 12 11 10 10 10 10 11 11 10 9 10 9 11
4 4 5 6 3 6 7 10 14 14 12 12 9 10 11 20 17 33 33 27 26 25 21 18 18 16 14 14 12 12 13 13 14 13 13 13 12 10 10 9 9 9 10 10 10 12 12 11 10
2 4 4 3 4 5 7 11 13 10 10 13 18 17 10 14 24 29 31 27 25 25 22 18 17 16 14 13 12 13 13 13 14 13 14 13 12 11 10 9 8 9 8 9 9 10 10 10 10
10 5 5 5 8 10 11 5 10 16 14 12 14 11 13 18 31 29 28 25 25 23 21 18 16 15 14 13 13 12 12 13 14 14 14 13 12 11 10 9 8 8 8 8 10 10 9 10 11
10 5 2 4 7 6 16 13 10 9 9 9 19 6 17 22 33 29 27 25 23 24 20 19 17 15 14 12 13 12 13 14 14 14 14 14 13 12 10 10 9 8 8 7 9 10 9 11 11
10 10 7 5 8 8 11 5 1 15 10 5 5 11 27 35 34 30 28 26 24 22 20 20 19 14 17 13 11 12 14 14 14 14 14 14 10 11 10 8 9 8 8 8 8 9 10 13 13
14 12 0 6 13 13 15 14 10 8 11 8 9 20 33 36 34 30 28 26 25 23 21 19 19 19 15 18 13 12 13 12 12 11 8 11 7 9 10 8 8 8 9 9 9 8 6 10 11
17 15 11 24 9 8 5 16 18 9 13 15 17 25 28 33 32 29 28 26 25 23 21 19 17 16 18 16 16 13 14 12 10 8 4 8 7 7 12 8 8 7 9 10 8 6 5 7 3
17 13 14 13 2 5 8 4 11 10 5 14 22 25 27 28 25 29 28 27 26 24 20 19 17 15 11 14 14 12 12 12 11 10 6 6 5 5 6 4 7 6 5 7 6 8 6 5 10
18 17 10 12 5 6 6 15 0 14 11 18 23 26 27 25 27 29 28 27 26 23 20 19 18 15 11 12 9 10 12 12 14 9 7 4 7 4 1 3 1 6 8 7 6 7 5 6 5
10 18 14 10 10 8 10 12 7 15 12 18 22 25 26 26 28 28 28 28 26 24 22 20 19 17 14 10 9 9 12 10 10 10 9 1 3 4 5 4 4 3 5 5 6 4 4 3 3
16 11 16 17 12 8 11 12 15 17 14 19 20 22 25 25 28 28 28 26 26 24 23 22 20 18 15 11 12 11 10 12 9 5 7 4 5 5 4 3 2 5 4 4 5 2 2 8 13
16 18 16 20 19 17 15 18 17 18 17 19 20 21 23 24 27 26 28 26 26 25 24 22 21 19 17 14 14 12 11 9 10 11 8 6 4 4 2 3 5 3 3 7 3 5 4 7 13
14 16 21 18 22 18 17 10 12 18 16 18 19 21 21 22 24 27 28 27 27 25 24 23 20 20 18 15 14 12 9 8 11 10 10 8 5 4 3 4 5 3 2 6 8 11 12 7 9
18 19 19 20 19 21 19 10 21 29 18 18 19 20 22 23 25 29 29 28 27 26 25 23 22 20 19 16 14 13 12 10 11 10 12 8 6 5 4 4 5 6 3 7 2 8 6 4 5
15 17 21 18 16 17 22 16 17 15 18 19 19 20 21 24 25 31 29 29 28 27 26 26 24 20 21 18 18 17 16 13 9 9 6 7 6 7 5 5 6 3 4 2 5 5 2 3 1
20 14 16 20 17 16 19 17 20 17 17 19 19 19 21 22 24 28 30 31 30 29 28 27 25 23 23 20 18 16 16 15 13 11 11 10 9 8 6 7 7 7 5 5 5 2 9 6 5
18 18 15 16 15 18 16 20 19 8 15 18 18 20 20 23 26 25 30 32 32 32 31 29 27 25 25 21 19 15 15 12 13 11 11 12 11 9 5 5 7 6 6 9 6 5 6 4 5
18 17 18 16 17 16 20 16 22 27 27 19 17 21 21 23 23 25 28 32 35 34 32 29 29 27 26 23 22 21 19 17 16 14 15 14 12 11 10 7 6 6 6 4 6 7 7 5 9
18 16 17 18 16 16 19 18 17 24 20 22 21 21 23 23 25 27 28 36 35 35 34 32 30 28 27 28 22 23 20 18 16 15 16 10 14 11 10 9 8 7 9 7 3 3 4 5 2
18 17 16 16 15 17 23 20 19 17 22 22 23 23 23 24 25 25 34 35 34 35 34 33 32 31 30 29 29 25 24 19 18 17 15 16 14 13 12 11 10 10 6 6 7 6 6 6 4
16 19 13 14 14 18 23 23 17 18 21 19 27 24 24 24 22 24 25 30 36 37 38 36 36 34 34 31 31 25 24 24 14 18 18 17 16 16 19 15 12 12 11 8 7 8 6 7 6
21 21 13 21 16 17 23 25 21 20 11 8 19 24 23 24 23 23 24 31 36 38 37 36 37 36 36 35 33 32 27 24 24 19 18 18 15 15 16 14 14 13 12 10 10 10 10 10 8
24 22 23 23 21 18 18 26 20 27 21 15 14 20 23 24 23 25 24 32 35 37 37 38 36 38 36 37 34 32 31 30 26 23 25 16 15 13 11 13 14 15 14 13 14 11 11 6 8
21 16 22 17 23 23 18 19 19 23 22 23 14 15 19 25 24 22 23 31 35 37 39 38 37 39 40 38 37 36 34 33 28 25 22 21 19 17 8 14 15 15 16 15 16 14 15 10 11
17 19 16 17 21 18 15 13 13 23 19 17 22 17 17 18 21 21 22 31 35 35 36 39 38 37 37 38 37 36 34 34 34 28 25 25 19 17 18 15 14 16 17 16 17 17 12 16 14
24 19 27 15 21 20 16 13 8 14 19 20 19 21 20 19 19 19 22 27 32 35 36 38 40 41 40 39 38 38 36 36 34 33 31 26 24 22 21 20 19 18 19 19 19 18 17 16 15

GFSSGP_925_spd_078.txt.gz
Wind_Speed
11 10 8 2 3 4 1 3 4 6 9 17 10 16 11 5 3 9 32 24 26 22 19 16 15 13 13 12 12 13 13 13 12 10 10 11 10 10 12 12 13 12 13 13 13 13 12 12 11
13 12 4 4 3 2 3 8 10 11 13 14 19 12 18 17 18 22 24 29 26 23 20 17 16 15 14 13 13 12 12 12 11 11 10 11 10 11 11 12 12 12 13 13 13 14 14 13 11
12 12 1 3 1 3 4 11 12 17 15 12 17 13 10 16 22 23 32 30 28 24 22 18 17 17 14 13 13 12 12 12 12 11 11 11 11 12 11 11 12 12 13 13 13 14 13 13 11
8 2 4 5 5 7 2 9 15 17 12 10 17 14 20 29 24 36 32 29 28 27 20 19 17 16 15 14 12 12 11 13 12 12 11 13 12 11 11 12 12 12 12 12 12 11 11 11 10
10 3 5 7 4 8 9 9 16 15 9 15 18 20 22 23 35 33 31 28 28 26 21 18 16 16 14 14 13 13 13 13 13 13 13 13 12 12 11 11 11 11 11 12 14 12 11 10 10
4 3 6 7 7 11 11 10 12 14 18 15 23 24 12 30 38 31 30 30 31 26 22 18 17 15 15 13 13 12 13 13 13 13 14 14 12 12 11 10 10 10 10 10 11 11 10 9 11
10 5 8 12 9 9 9 12 10 14 15 17 21 16 13 22 35 29 29 32 29 27 23 18 15 14 14 14 13 12 12 13 12 13 15 14 13 13 13 11 11 10 10 10 11 11 10 10 10
8 6 7 7 5 6 9 12 17 5 9 16 21 11 21 26 34 29 29 33 30 28 23 22 17 15 14 14 13 12 11 12 12 12 13 11 12 14 14 13 12 11 10 10 10 10 9 12 16
14 11 10 9 8 4 2 14 7 3 10 11 4 21 29 38 34 29 29 32 33 25 25 20 18 16 17 13 12 13 12 11 12 12 13 12 7 11 13 10 12 11 11 11 10 8 9 5 5
14 13 10 8 10 2 16 4 11 6 9 14 14 24 39 38 32 28 24 28 27 26 28 26 19 22 19 16 14 12 12 11 11 9 14 19 8 7 8 8 11 11 13 13 12 8 7 12 4
17 14 7 8 17 18 16 14 17 5 17 19 22 25 30 32 29 27 27 26 27 24 24 29 29 20 20 16 19 14 13 11 11 5 4 7 9 12 7 4 9 11 12 13 13 4 9 11 6
18 18 10 14 20 16 11 9 7 22 9 3 24 25 29 28 22 28 28 26 28 24 22 35 22 22 18 16 21 19 17 17 7 5 5 6 3 11 6 9 9 7 5 13 16 8 6 7 7
17 16 15 15 19 15 13 9 3 2 15 11 24 25 27 26 28 29 28 28 27 20 24 27 22 15 18 12 11 20 17 16 14 8 5 5 7 9 4 8 3 11 7 2 7 5 11 5 3
16 15 17 15 18 12 17 12 8 21 21 19 23 24 24 26 27 27 27 27 27 23 25 24 20 16 13 4 5 12 9 17 9 11 8 6 1 3 1 1 10 4 8 7 10 6 11 6 8
15 18 12 16 15 11 10 13 12 20 23 25 23 23 23 20 26 26 27 26 26 24 24 24 21 16 15 6 7 8 6 9 14 13 7 2 4 3 1 1 6 9 10 11 7 2 4 9 10
13 17 16 16 18 14 9 14 15 16 14 23 24 24 22 21 22 27 27 29 29 24 25 25 22 20 16 12 14 9 7 10 6 7 7 0 5 5 2 1 4 9 5 8 5 7 9 5 9
13 14 19 19 20 18 15 8 9 18 10 22 21 23 21 19 19 27 29 29 29 24 28 25 23 23 18 16 15 10 11 8 12 8 3 4 6 2 2 0 2 5 1 6 9 7 10 2 5
16 17 18 17 18 19 18 12 13 20 17 11 22 21 22 21 22 27 30 29 29 25 29 25 21 26 21 19 15 11 11 10 9 14 12 10 8 3 5 5 4 3 3 7 11 8 5 3 2
20 20 17 17 18 19 16 16 15 9 3 11 15 20 25 23 20 27 28 29 29 26 29 23 24 31 25 21 16 13 13 12 11 17 15 10 7 4 4 4 4 3 1 4 3 5 3 8 5
21 21 19 17 18 17 18 19 20 12 10 28 29 21 21 25 23 22 26 29 30 30 30 27 25 31 28 21 19 16 15 13 12 13 13 9 7 7 6 7 5 4 5 4 1 1 7 11 2
18 19 18 17 17 16 16 15 15 9 3 13 25 24 22 23 26 22 24 28 29 31 31 32 27 28 27 20 21 17 17 16 15 16 16 12 11 8 5 7 7 5 5 5 6 4 4 7 2
19 16 19 18 16 13 17 15 26 20 14 17 10 10 24 22 25 24 25 28 30 31 31 32 29 28 30 24 22 19 16 13 17 12 18 18 14 13 9 5 4 4 4 6 6 5 3 4 10
18 16 14 16 18 18 22 14 9 26 25 13 15 23 21 25 26 27 25 31 32 32 33 32 32 28 29 31 23 24 19 19 17 17 19 21 17 12 15 9 9 6 6 6 5 4 6 6 10
16 17 18 17 15 16 20 18 17 17 19 14 22 26 21 26 24 25 33 34 31 33 34 34 36 32 31 35 26 26 26 19 15 16 23 20 19 16 12 14 12 9 8 9 7 7 5 3 3
18 15 12 14 14 16 19 19 14 15 28 26 25 25 25 23 24 22 24 27 33 36 37 37 39 36 36 34 33 24 31 28 18 22 20 21 20 23 21 16 15 12 11 9 8 9 7 6 3
18 19 14 18 13 16 20 19 18 23 21 29 31 24 28 26 22 24 24 28 34 34 38 37 40 38 38 35 38 31 29 30 25 16 20 15 19 21 27 25 19 15 12 11 11 9 10 8 8
20 21 21 23 20 17 17 17 23 21 18 8 9 6 10 16 26 26 24 31 35 36 37 40 40 40 39 38 34 36 30 28 25 20 22 23 20 11 23 24 21 16 14 14 14 12 11 8 11
21 18 20 15 21 22 19 19 15 19 19 19 16 7 5 16 31 24 24 30 35 38 36 37 37 41 41 41 38 36 39 36 28 30 23 22 17 18 21 22 19 18 17 16 15 14 15 15 13
13 19 21 14 17 16 15 15 15 23 21 18 21 21 21 24 20 9 23 31 35 37 37 37 37 39 39 38 38 36 35 35 38 26 31 28 25 19 14 14 15 17 18 18 18 20 17 19 19
14 18 19 12 15 14 16 16 17 13 22 19 13 21 22 19 17 33 21 30 34 35 38 38 39 37 40 39 37 38 36 37 36 38 29 31 25 23 19 20 16 19 19 20 21 21 20 16 19

GFSSGP_925_spd_081.txt.gz
Wind_Speed
8 9 7 2 2 2 3 4 3 12 11 12 10 12 9 5 3 4 30 29 28 24 21 17 16 16 14 14 15 14 12 11 11 12 13 14 13 14 15 14 15 15 14 14 14 14 14 13 14
11 9 6 3 1 2 3 4 3 11 13 20 20 18 13 6 8 19 24 33 29 25 22 19 17 16 15 14 14 14 13 11 10 12 13 13 13 13 14 14 15 15 14 15 15 14 13 12 14
12 7 1 2 2 3 3 6 9 15 18 15 16 13 9 11 19 19 34 36 27 27 22 21 18 17 16 15 13 12 11 11 11 11 12 12 13 13 13 13 15 15 15 16 15 14 13 13 13
9 3 2 2 8 6 5 10 17 13 19 18 16 13 12 15 13 29 38 34 32 28 23 21 20 16 16 15 14 13 12 12 12 12 12 13 13 13 13 13 14 14 15 14 13 12 13 13 13
5 1 2 4 6 7 13 15 15 11 14 20 26 15 16 25 34 37 38 36 34 27 24 21 19 18 16 14 14 13 14 13 13 13 13 13 13 12 12 12 13 14 14 14 14 12 12 12 14
3 1 3 4 4 7 4 10 12 16 17 19 22 16 9 35 30 32 35 36 30 30 24 21 19 17 16 15 14 14 14 14 14 13 13 12 13 12 11 12 12 12 12 13 13 12 13 14 15
8 2 4 8 6 11 4 5 9 16 22 17 18 17 15 23 30 34 33 35 30 29 24 22 19 17 15 15 13 14 14 14 13 13 13 12 12 12 11 10 11 11 11 10 10 12 13 14 17
7 2 2 6 8 11 9 21 12 10 8 20 23 9 21 25 37 36 34 36 33 28 25 22 19 18 18 16 14 13 14 13 13 13 13 13 12 11 12 11 11 11 11 11 10 10 10 10 9
15 4 4 5 7 6 11 7 5 6 7 16 7 20 32 35 37 32 36 34 33 28 27 21 20 18 17 15 14 14 13 13 13 12 13 14 13 11 10 9 12 12 11 11 11 11 11 12 11
10 5 6 7 6 4 5 7 14 7 6 9 16 24 36 32 29 32 31 30 30 31 28 23 23 22 17 16 16 15 15 14 13 12 12 12 13 11 8 10 13 12 12 9 9 8 12 7 9
11 10 10 6 8 4 8 18 14 6 12 13 27 30 24 27 23 24 33 32 34 35 31 29 28 24 23 19 20 20 18 15 12 6 6 11 10 13 8 9 13 14 13 14 8 9 8 14 11
12 17 12 15 7 5 3 3 4 8 10 21 30 31 25 21 19 25 31 31 32 33 30 32 30 26 21 24 22 19 19 16 14 9 7 11 11 3 7 9 12 9 8 6 2 7 8 6 6
14 13 13 18 17 12 13 10 5 10 17 15 25 25 23 19 21 24 31 35 32 25 36 32 32 29 21 20 17 19 20 18 15 13 10 11 7 7 9 7 11 13 11 2 5 6 8 5 3
12 14 13 21 15 7 8 8 13 17 5 13 26 25 19 16 20 25 33 29 29 34 36 30 31 29 22 6 20 22 20 17 18 10 7 8 10 9 20 11 12 14 15 8 6 7 12 6 6
9 9 8 8 16 14 21 15 10 12 2 10 18 21 21 18 22 24 31 30 32 32 36 31 28 25 14 15 17 22 23 15 19 14 7 5 4 11 9 10 10 17 18 12 12 12 9 11 10
8 7 6 9 8 12 21 9 14 12 15 12 14 17 21 22 22 26 32 34 33 32 36 31 27 25 18 18 14 12 19 17 19 11 7 6 6 9 7 8 10 12 15 17 11 11 7 6 9
7 6 8 11 13 10 10 13 15 18 14 12 17 17 18 17 18 27 33 34 36 35 34 29 26 24 20 15 16 10 12 16 15 10 9 10 8 7 6 11 10 7 11 11 11 9 8 6 7
8 6 8 9 12 13 10 15 17 19 20 18 14 18 14 10 13 26 33 35 36 36 34 29 30 25 22 18 19 11 19 17 12 12 11 10 8 10 5 8 12 9 11 8 8 10 7 4 7
14 13 10 9 13 8 15 15 20 20 14 12 10 5 15 12 9 24 34 34 34 38 35 30 34 31 26 21 21 14 16 15 15 13 13 11 10 8 8 7 9 7 10 10 8 5 1 3 3
16 14 14 12 10 9 15 16 16 15 7 14 15 13 9 17 15 13 31 35 34 38 37 33 34 34 30 23 24 17 17 16 17 15 16 14 12 6 7 9 6 5 9 9 3 4 4 6 4
13 10 10 10 17 9 13 6 5 5 4 7 11 13 8 12 21 16 23 33 32 37 39 36 32 37 32 26 24 17 15 17 16 21 21 17 12 7 8 8 7 7 6 4 2 3 3 3 1
8 9 10 11 8 4 4 5 11 14 10 11 9 6 7 14 20 18 19 29 34 36 42 36 33 38 33 28 28 24 18 17 13 29 22 17 14 12 9 8 7 7 5 5 5 2 2 1 3
11 10 8 6 8 6 17 2 6 9 12 18 18 20 21 27 27 23 25 31 35 36 40 42 37 38 37 29 29 26 21 20 19 22 19 20 17 14 14 9 8 7 7 6 5 3 5 2 4
5 8 9 6 2 4 11 3 2 12 20 18 23 26 26 29 29 25 34 32 33 36 39 42 40 41 39 36 29 29 25 22 19 25 24 24 20 16 16 11 11 8 7 8 8 7 7 4 2
4 3 4 4 4 6 9 8 9 22 17 19 25 26 26 19 29 26 24 28 32 38 38 40 40 39 42 39 34 32 30 27 18 22 26 30 24 22 18 17 16 11 9 9 6 8 8 7 4
7 6 5 6 4 8 9 6 10 12 19 19 22 28 19 22 28 28 27 33 34 38 39 40 41 38 41 43 42 34 33 32 26 14 27 28 26 25 24 21 20 16 11 10 11 9 8 7 7
8 7 11 6 9 8 7 8 11 15 7 21 18 14 19 20 21 26 27 35 37 37 42 41 41 39 42 43 44 41 35 36 33 25 22 28 26 26 23 27 24 20 16 14 13 11 8 9 9
4 6 3 4 4 7 7 10 5 10 19 17 19 17 10 3 9 6 6 26 40 40 40 40 44 44 42 40 43 44 39 38 35 30 22 23 24 20 15 33 29 23 20 16 15 14 12 12 11
15 7 5 2 4 9 4 8 6 20 11 17 21 19 20 11 16 14 4 8 15 34 40 42 41 42 40 42 38 38 39 40 37 29 30 26 23 13 16 29 29 25 22 18 17 17 15 16 16
14 15 2 2 7 3 2 8 16 21 21 19 21 20 20 28 18 10 7 2 19 22 34 44 41 43 43 42 39 39 41 41 42 36 34 31 28 25 18 25 26 27 24 22 21 21 21 21 16

GFSSGP_925_spd_084.txt.gz
Wind_Speed
7 9 8 2 2 1 2 7 4 8 9 8 17 7 10 5 2 3 25 21 30 26 21 20 18 16 14 15 16 16 14 15 15 16 15 14 15 15 14 14 13 12 12 12 11 12 12 12 13
13 11 2 2 1 1 3 5 8 6 7 16 9 14 4 4 5 13 18 32 31 26 23 21 19 16 16 16 16 15 14 14 15 15 15 15 15 15 14 14 13 13 14 13 13 13 12 12 13
15 7 0 2 2 3 3 8 13 16 19 12 6 8 4 4 14 22 27 35 30 27 23 21 19 17 16 16 16 15 14 14 13 14 13 15 14 15 15 14 14 14 16 14 14 13 13 13 15
9 2 3 2 2 6 5 7 21 17 7 9 14 11 6 15 18 21 36 34 31 26 24 22 19 18 16 15 15 14 14 14 14 14 14 13 13 15 15 14 13 13 14 13 13 14 14 16 15
2 1 2 3 4 6 7 5 15 11 4 13 8 8 5 9 28 38 36 34 31 28 25 21 19 18 17 16 16 15 14 15 15 14 14 14 14 14 15 14 13 12 11 11 12 12 14 17 15
2 1 1 5 15 8 6 7 9 14 14 14 13 13 3 28 33 31 34 33 29 29 26 21 19 18 16 16 16 16 16 16 15 14 14 15 13 13 14 14 14 13 11 11 11 14 17 16 17
2 1 0 2 7 7 6 15 7 15 14 11 16 10 12 22 29 32 35 31 29 28 25 22 20 18 16 17 17 16 16 16 16 15 14 13 13 12 11 11 10 10 10 8 10 13 16 15 14
3 1 2 3 1 5 3 11 8 12 8 17 13 8 19 21 32 33 35 32 31 27 24 22 20 19 17 17 17 15 16 15 16 14 13 13 13 12 12 12 10 8 8 8 8 11 13 14 16
1 2 3 3 2 3 2 5 8 6 10 7 10 12 27 34 34 31 27 27 27 25 24 22 20 20 19 18 16 16 15 15 15 14 14 15 15 14 13 13 11 9 7 8 10 10 12 14 14
5 4 4 1 4 4 2 6 11 1 11 2 6 22 29 32 31 28 26 23 24 27 24 22 21 21 19 18 18 18 17 17 16 16 15 12 12 10 11 12 10 9 8 7 7 10 10 10 10
4 6 6 5 6 9 6 6 2 4 5 8 19 24 25 26 28 26 28 30 32 31 26 25 24 22 20 19 20 19 20 19 16 14 13 11 10 12 12 12 11 10 9 6 5 10 7 11 9
3 8 9 11 12 11 8 4 7 5 2 4 20 24 26 20 24 27 27 25 27 29 29 28 25 24 21 22 24 24 22 19 16 14 12 11 13 14 15 14 12 11 10 5 3 6 6 7 6
9 14 10 12 11 9 14 7 4 6 3 5 20 22 22 19 25 31 31 29 30 27 30 28 26 24 21 23 23 22 20 18 15 12 12 14 10 12 12 11 7 10 9 8 6 5 7 8 6
4 7 10 17 12 13 12 7 6 4 3 15 20 21 18 19 25 30 28 27 29 29 32 30 28 26 23 20 20 19 19 17 16 14 12 12 12 10 10 11 11 9 5 10 8 8 8 5 6
9 6 4 13 16 8 16 6 2 4 6 20 18 16 16 15 24 27 30 28 32 32 34 34 31 27 22 17 21 17 19 19 17 13 12 14 9 11 12 7 10 15 9 12 11 10 6 5 7
4 3 3 5 18 11 5 4 8 4 9 18 18 16 16 13 20 32 31 32 35 36 37 36 32 27 18 12 18 23 22 19 21 14 10 13 13 11 13 9 7 14 14 10 11 8 5 4 7
7 2 4 7 20 10 9 5 11 17 14 22 17 17 15 13 13 30 31 35 36 40 36 35 32 29 22 16 19 20 21 19 20 13 13 15 17 12 10 15 10 12 13 9 7 8 8 7 6
4 3 5 4 3 7 11 6 21 16 11 16 21 18 13 16 10 32 31 34 38 43 39 35 33 28 24 19 16 14 20 19 17 15 15 15 15 13 13 15 11 11 14 10 9 8 7 7 6
4 4 8 14 10 6 16 14 23 18 10 11 12 18 19 13 15 30 34 33 37 41 40 37 32 28 27 22 18 14 22 20 19 14 15 13 14 13 15 17 12 12 14 12 11 7 5 1 6
6 7 12 11 5 2 9 13 15 16 14 13 15 13 18 21 16 26 32 29 36 39 41 38 32 29 29 24 23 18 22 22 20 16 15 13 14 13 13 16 12 13 13 13 10 7 5 5 6
6 6 11 10 6 8 12 8 12 11 10 11 14 18 17 20 18 22 28 31 36 37 39 41 38 32 30 27 25 19 17 19 18 20 19 17 16 13 13 14 12 12 14 11 9 6 5 5 3
7 7 10 6 3 1 4 3 8 14 13 13 19 18 14 14 13 17 28 31 34 39 43 42 41 37 31 28 29 25 20 18 20 24 23 21 19 15 13 13 11 12 11 11 9 7 3 5 2
11 10 7 2 3 5 3 5 4 14 12 14 23 21 19 22 18 15 25 36 37 36 40 43 42 40 36 31 32 30 23 20 18 24 25 23 22 16 13 14 13 13 11 10 10 7 5 4 2
7 4 7 5 3 4 7 4 2 13 26 20 20 18 20 19 19 15 22 35 36 37 36 40 42 43 40 36 32 34 29 21 18 28 29 26 22 20 17 14 13 13 11 10 9 7 6 6 3
3 6 3 4 4 5 2 4 8 19 18 25 24 19 23 20 20 16 14 28 33 36 36 38 42 39 43 40 36 35 33 26 22 30 30 26 24 22 22 18 15 13 12 13 11 9 8 8 6
3 7 5 5 3 4 6 4 5 11 16 22 23 22 21 14 17 20 20 28 35 38 38 37 38 38 43 44 40 35 36 31 27 25 29 29 28 27 23 22 18 15 13 14 12 11 9 10 9
8 2 7 6 1 4 3 8 9 17 15 10 23 20 24 17 16 22 24 30 33 37 40 40 38 37 42 46 45 40 37 36 34 22 23 30 32 30 26 24 22 19 16 16 14 12 11 12 10
7 6 3 3 5 3 4 5 3 16 20 21 12 22 24 16 15 17 17 25 27 34 39 41 44 43 44 42 44 45 41 38 36 32 22 28 33 29 28 27 25 24 21 18 16 13 11 11 11
7 8 6 1 4 6 2 3 6 12 16 20 20 21 20 19 19 21 15 23 30 30 32 34 33 37 39 43 43 42 45 42 38 36 32 25 30 30 26 23 31 28 25 21 19 17 13 13 13
6 8 6 4 7 3 3 1 4 12 21 24 20 4 7 13 14 17 16 14 19 27 35 39 35 34 35 41 39 41 44 47 42 39 38 33 25 29 28 26 24 33 28 24 22 20 18 17 14

GFSSGP_925_spd_087.txt.gz
Wind_Speed
6 7 5 1 2 1 1 5 2 5 5 9 17 5 6 5 2 3 16 21 29 24 19 18 16 13 13 15 16 16 15 13 13 13 13 14 13 12 11 11 10 11 11 10 11 12 12 13 14
9 8 2 1 1 2 4 2 2 2 9 17 12 12 4 3 4 9 14 29 28 23 21 19 16 14 16 16 16 15 14 13 12 14 13 12 12 12 12 12 12 10 10 10 11 12 11 13 13
13 5 1 1 1 1 4 2 4 9 17 14 5 8 4 3 10 19 25 34 28 23 21 19 17 16 16 16 15 14 13 13 13 12 13 12 12 11 12 12 11 13 11 10 11 11 12 15 14
8 3 2 1 2 3 4 9 13 15 6 9 8 7 5 7 21 13 35 33 27 22 20 18 16 15 15 16 15 13 13 12 13 13 12 12 11 13 12 12 12 13 12 12 12 11 13 13 12
1 1 2 2 1 2 8 11 9 10 3 6 3 6 10 5 16 34 34 31 27 23 20 17 16 15 14 15 14 14 14 13 13 14 12 13 12 11 12 12 12 12 11 11 11 11 12 11 9
1 1 1 2 4 6 8 8 8 2 7 9 9 10 4 24 29 28 31 29 25 25 19 17 15 15 14 13 14 14 14 14 14 13 12 12 13 12 12 12 12 12 11 10 9 12 12 12 14
1 1 2 2 3 5 4 9 10 6 9 4 7 5 10 19 25 29 29 28 26 24 19 16 16 14 12 14 15 14 14 14 13 12 12 11 11 12 12 12 12 12 11 10 10 13 13 12 12
2 1 3 3 2 3 2 5 12 4 5 12 7 5 11 20 29 29 29 27 26 24 21 19 17 15 15 14 15 14 15 14 13 12 11 10 10 10 11 13 12 12 11 11 11 13 13 11 12
3 2 3 3 5 6 6 1 6 11 12 4 2 9 21 30 30 27 24 22 24 22 20 19 18 16 15 16 14 14 14 14 14 12 11 12 12 10 10 13 11 12 12 12 12 14 12 12 10
4 3 5 2 5 10 12 5 5 5 4 7 13 23 28 29 28 23 22 20 20 23 22 20 18 18 16 16 16 16 14 15 15 13 12 12 12 10 11 11 10 11 11 13 15 14 12 11 9
5 4 5 2 7 16 15 11 4 2 4 4 21 24 24 27 24 23 23 29 29 27 23 21 20 19 18 17 17 17 16 15 15 14 13 11 10 10 10 11 12 12 12 12 12 11 9 8 5
3 6 5 6 9 9 11 13 10 9 2 3 16 19 23 22 21 22 19 21 25 27 25 22 21 20 18 18 18 17 18 16 14 13 12 10 11 11 12 11 11 11 10 9 8 9 9 6 6
4 5 8 8 11 6 9 6 5 6 4 2 18 18 18 16 21 23 25 22 26 26 25 25 22 21 18 19 21 20 18 17 15 12 12 11 10 13 13 12 11 10 8 8 8 8 7 6 4
4 6 8 11 10 7 8 7 6 7 7 9 17 19 17 16 22 22 21 22 26 26 25 26 23 21 18 20 21 20 18 15 13 12 12 14 9 14 12 13 10 9 7 7 8 7 6 7 3
8 7 4 8 10 7 9 2 5 11 11 14 18 16 17 16 24 24 24 26 33 31 27 27 25 22 19 20 18 17 16 15 14 12 12 12 13 8 9 10 11 10 7 8 7 6 7 6 2
2 4 3 3 10 8 6 4 11 13 16 14 17 18 17 17 26 27 27 28 33 31 31 29 26 24 20 18 18 17 16 16 14 13 12 11 9 9 11 7 10 11 9 11 9 8 5 5 5
6 1 1 2 9 5 9 4 6 7 15 15 16 19 18 16 23 28 28 32 35 35 34 31 28 26 22 18 20 23 16 19 13 13 10 11 10 7 8 7 9 13 10 9 6 6 7 5 5
1 2 2 2 7 3 8 8 4 6 8 17 17 16 19 19 21 32 32 33 36 38 37 35 31 28 22 13 14 16 19 19 18 15 11 12 11 7 9 9 10 12 12 10 8 6 3 3 6
3 3 2 4 7 6 15 9 11 11 4 15 15 18 17 21 19 32 33 34 33 33 38 37 35 31 25 20 16 16 16 16 20 15 11 12 12 9 11 11 7 10 11 9 8 3 3 3 6
2 1 5 6 4 6 3 4 6 11 9 15 18 18 19 18 14 24 29 33 33 37 42 39 38 37 30 26 22 16 20 18 17 14 13 11 12 10 10 12 9 9 9 10 9 6 5 4 6
3 3 4 6 2 5 8 3 2 2 3 3 6 14 16 14 16 19 27 32 33 34 38 41 40 40 36 29 23 16 19 17 17 16 15 13 13 12 13 14 10 12 11 13 10 6 4 6 5
5 7 7 4 3 2 3 2 5 8 10 11 10 13 13 15 13 18 25 30 34 38 44 45 43 40 36 33 26 24 20 17 19 19 18 16 14 12 13 15 12 11 14 11 9 8 5 5 4
9 5 7 5 3 3 3 4 3 8 11 18 20 13 13 13 13 18 26 33 36 35 39 42 43 40 36 32 30 28 22 18 17 20 21 19 16 16 15 15 14 13 13 12 11 10 8 7 5
7 4 6 4 4 2 4 5 4 6 20 17 16 16 16 15 10 14 28 31 32 33 32 38 41 42 37 33 30 32 28 22 18 18 22 22 21 20 17 15 14 15 14 14 14 11 9 7 5
5 6 2 2 2 5 5 3 2 9 11 16 19 20 20 17 14 14 17 26 31 33 34 34 38 39 41 36 33 33 33 28 21 18 21 26 24 23 20 17 15 14 16 14 14 12 11 9 6
3 6 5 5 4 4 6 5 1 6 8 10 13 14 13 16 16 18 15 29 33 35 35 36 37 37 42 41 37 32 35 33 28 21 22 29 28 26 22 21 18 15 15 14 15 13 12 11 11
3 5 0 6 4 4 2 3 5 22 15 15 14 12 17 20 20 22 21 27 32 35 37 38 39 37 41 45 41 37 33 33 33 26 21 26 27 28 24 22 23 20 17 16 16 14 14 14 13
7 2 4 4 4 3 4 4 3 17 20 20 19 15 11 16 19 18 17 25 33 35 35 35 38 42 45 43 43 42 39 34 35 31 26 23 26 29 28 25 25 23 21 17 17 16 14 14 15
7 6 5 3 3 5 3 2 5 10 11 15 19 24 7 15 8 9 11 23 27 31 34 35 34 35 35 40 42 39 41 38 34 34 32 30 20 25 30 29 27 26 25 22 20 18 16 16 14
16 5 3 4 5 2 3 1 7 8 9 14 19 21 22 18 12 11 11 14 9 12 25 32 31 33 38 42 39 40 41 40 39 37 36 33 31 23 26 28 26 27 28 27 25 22 20 19 17

GFSSGP_925_spd_090.txt.gz
Wind_Speed
6 6 5 0 2 1 1 2 1 4 5 6 15 4 7 4 2 3 14 18 31 26 21 19 16 15 15 14 13 12 10 11 10 9 11 9 9 9 9 11 11 11 11 11 12 13 13 14 13
8 7 1 1 1 2 2 2 1 3 8 18 7 9 2 3 4 8 13 31 30 25 21 18 15 14 15 14 13 11 10 10 10 8 8 10 8 9 9 9 10 11 11 11 12 12 13 13 13
9 2 1 2 2 1 3 6 7 8 17 17 5 7 3 2 5 17 21 33 29 24 21 17 14 14 15 14 12 11 11 10 10 8 9 10 10 9 8 9 11 11 12 13 12 12 13 12 11
6 1 1 1 2 0 2 10 3 13 10 7 8 7 4 0 14 12 36 32 28 24 21 17 15 15 14 13 12 11 10 10 10 9 8 9 11 10 8 11 12 12 13 12 12 13 13 11 9
1 1 1 1 3 2 4 4 7 10 5 7 2 4 6 1 10 33 34 30 27 24 20 16 14 14 14 13 12 11 10 11 9 9 8 8 10 11 9 10 13 12 12 13 12 12 11 9 8
1 0 1 2 1 2 2 9 7 3 6 8 7 6 4 16 25 25 31 28 25 24 19 16 14 12 12 12 12 12 11 12 11 10 9 9 10 10 10 9 11 12 12 12 12 12 10 10 11
1 1 1 1 3 3 1 5 6 7 6 4 6 5 6 11 24 25 29 27 24 21 19 16 14 13 11 11 12 12 11 11 11 10 9 9 9 10 11 10 11 12 11 11 12 12 12 12 13
1 2 3 1 2 1 4 2 5 6 3 6 10 6 8 13 25 26 25 24 24 21 18 16 15 13 12 12 12 12 12 11 9 9 9 9 8 8 8 10 10 11 11 11 12 12 10 11 10
2 1 2 1 5 2 5 4 6 10 7 2 2 6 17 26 28 26 23 22 22 19 18 17 16 14 13 13 11 12 11 11 10 8 8 9 9 8 8 9 9 10 10 11 13 11 10 9 7
1 2 3 0 6 9 9 7 6 1 6 8 14 21 27 27 26 23 20 19 18 18 19 17 16 14 15 13 12 13 12 11 11 10 8 10 9 8 9 8 9 9 10 13 12 10 9 6 7
4 3 3 4 7 12 11 7 3 4 0 4 18 20 21 24 22 20 18 21 22 18 20 18 16 15 15 15 13 13 12 12 10 9 9 9 9 9 9 9 9 9 10 12 11 8 7 4 2
2 7 3 6 11 11 10 12 6 6 4 12 16 19 18 15 17 19 17 20 22 21 21 19 17 17 15 14 14 14 12 12 10 9 7 7 8 9 10 9 9 9 8 9 10 6 6 3 2
3 5 5 8 15 10 10 8 6 10 6 12 18 17 16 13 16 17 18 20 24 24 23 21 19 18 16 15 15 15 14 12 10 9 8 7 8 9 9 9 9 8 6 7 7 6 4 2 1
3 6 5 7 9 10 13 6 8 7 9 16 19 17 16 14 17 14 17 20 25 24 24 22 21 18 16 16 16 16 14 11 10 9 8 7 6 8 8 8 8 6 5 6 7 7 5 2 2
2 3 1 3 9 5 6 6 6 12 10 19 17 16 16 16 19 18 22 25 28 26 24 23 21 19 17 17 17 15 13 11 9 6 6 7 8 7 10 8 6 7 7 7 8 7 4 2 3
3 4 2 2 6 2 4 2 8 9 14 17 19 18 15 15 20 22 23 23 25 25 25 24 23 21 18 17 16 14 13 11 8 6 5 8 8 8 9 9 10 6 7 8 6 7 4 1 3
6 3 3 2 7 3 6 1 5 7 10 15 18 18 16 14 19 24 25 28 28 28 26 26 26 24 21 18 16 15 14 12 9 7 6 8 5 7 8 7 10 10 8 7 7 4 3 2 1
2 4 2 3 7 4 5 7 4 6 9 13 17 18 17 17 15 25 27 31 30 31 30 29 27 24 21 17 16 18 19 14 13 10 7 6 8 4 5 7 9 12 9 6 4 4 2 2 3
4 4 1 2 4 4 9 7 8 7 7 11 13 17 16 17 18 22 26 30 30 30 30 31 30 26 22 18 13 14 17 16 14 12 8 6 8 7 7 7 7 8 8 6 6 4 4 2 4
2 3 2 3 1 7 3 3 4 9 2 9 12 13 16 14 12 19 23 24 28 35 35 34 33 30 27 21 18 17 15 12 11 13 9 7 8 5 9 9 7 8 8 7 7 4 4 3 4
2 4 3 4 3 2 2 3 3 2 3 4 6 8 7 14 16 12 20 24 27 29 34 38 38 34 31 26 20 16 15 11 11 11 10 10 8 8 7 9 7 8 7 8 9 6 3 4 3
2 7 5 2 2 2 2 3 1 3 5 5 4 6 9 9 11 12 19 23 27 33 36 39 39 38 34 31 25 22 20 16 14 13 11 9 8 8 7 9 7 8 8 9 7 5 4 3 1
8 6 6 4 3 2 2 4 5 1 7 11 10 7 9 8 10 16 23 28 31 29 34 38 40 39 38 34 30 25 20 18 14 14 11 11 9 9 8 9 8 8 12 9 7 7 5 3 1
4 5 7 5 3 2 2 4 5 4 7 7 3 8 10 13 11 15 25 27 28 30 31 31 37 40 39 37 34 29 26 20 18 14 13 14 12 12 10 11 12 11 11 11 11 10 8 5 4
5 6 3 3 2 5 5 4 1 7 6 6 8 8 15 14 14 10 17 25 28 30 32 33 37 39 39 38 36 33 29 25 21 19 16 16 16 15 15 14 12 12 12 11 10 10 10 8 6
2 6 5 6 5 4 2 5 5 5 6 10 8 9 11 17 16 17 17 27 30 32 33 35 36 37 40 38 37 35 30 30 26 21 18 16 17 19 17 17 14 11 11 12 12 11 11 10 9
1 5 2 7 3 4 1 4 2 15 16 19 17 15 16 12 18 19 20 27 29 32 34 37 38 39 39 42 38 35 31 33 31 26 21 19 17 20 20 18 16 14 13 12 12 13 12 12 11
7 1 3 3 4 3 3 3 3 17 20 20 22 22 21 8 11 13 14 22 27 32 33 33 36 41 46 44 43 38 36 32 34 30 26 22 19 19 21 20 20 16 17 15 13 13 13 12 11
6 5 5 4 3 5 4 2 6 9 13 15 16 17 19 18 15 1 4 16 16 25 27 30 33 36 35 40 41 41 38 36 32 32 32 28 21 20 22 23 23 21 19 18 17 15 14 14 12
5 2 2 4 3 2 3 1 6 10 12 13 15 15 17 19 18 17 19 17 9 21 23 24 26 28 34 38 39 42 41 39 36 33 32 32 29 25 19 18 20 22 21 21 22 21 19 17 16

GFSSGP_925_spd_093.txt.gz
Wind_Speed
8 9 7 2 1 2 2 2 1 8 9 7 16 6 12 5 2 1 13 15 26 21 16 15 15 13 12 12 11 11 11 12 9 10 10 10 9 9 8 8 10 10 11 12 12 13 13 13 13
10 8 2 1 1 0 2 6 9 3 12 20 9 13 4 4 3 9 16 25 26 22 17 15 15 14 12 12 10 10 10 10 9 10 11 9 10 10 8 8 9 10 11 11 12 12 13 12 14
10 1 1 1 2 1 3 8 6 10 20 14 6 5 3 3 4 21 17 28 25 20 17 15 15 14 12 11 10 9 9 10 9 9 9 8 10 9 10 8 9 10 10 10 12 12 12 11 12
5 2 1 1 2 2 2 6 10 16 13 7 11 7 4 2 18 10 26 26 23 20 17 14 14 14 13 11 9 9 8 10 8 9 9 10 10 10 9 10 11 10 10 10 11 12 10 10 11
3 1 1 1 4 3 3 6 8 15 6 7 3 5 6 3 9 26 26 24 23 20 16 14 14 14 13 11 10 8 9 10 10 10 10 11 11 12 13 12 12 12 12 11 11 10 8 9 11
2 1 1 2 6 4 4 7 1 5 3 4 8 9 4 10 23 22 22 22 20 20 16 13 13 13 11 9 9 9 9 9 10 10 10 10 12 12 12 12 12 12 11 11 10 10 10 10 12
0 1 2 1 3 5 4 3 6 4 6 5 10 7 7 14 24 21 21 19 19 17 15 13 11 10 10 10 10 10 10 10 10 10 10 11 11 12 13 12 12 12 11 11 12 12 12 13 11
1 2 1 1 1 3 8 5 0 5 3 7 12 7 10 19 23 21 20 18 17 16 14 12 12 11 10 10 10 11 10 10 9 9 9 10 11 11 12 13 12 11 10 11 12 12 11 11 9
2 1 2 1 2 6 6 5 2 4 3 2 6 9 18 28 27 23 20 17 15 15 14 13 12 11 11 10 10 11 10 10 9 8 9 9 9 10 11 11 12 11 10 11 11 10 11 11 9
2 0 1 3 4 9 7 8 4 1 7 5 12 17 28 28 27 24 21 20 17 15 16 14 13 12 12 10 11 10 10 8 8 8 7 8 9 9 10 10 11 10 9 10 9 9 9 10 7
4 1 2 3 8 12 7 9 5 5 6 7 17 24 27 27 26 23 21 21 19 15 15 15 13 12 12 10 10 10 9 8 8 7 7 7 8 8 8 9 9 8 9 7 6 6 5 6 5
3 5 2 2 8 6 7 11 8 6 3 6 21 25 28 22 23 22 20 20 19 16 15 14 13 12 12 10 9 10 10 8 7 7 6 6 6 7 7 7 7 7 7 8 6 4 3 5 6
7 2 2 8 12 9 10 5 6 6 7 15 23 23 22 21 22 20 19 17 16 15 15 14 13 12 12 10 10 9 10 8 6 5 4 4 5 7 7 7 7 6 6 6 4 4 2 4 5
3 8 6 9 13 10 10 5 7 8 14 16 21 22 20 20 23 20 19 19 18 15 15 15 14 12 13 11 11 9 8 9 6 4 4 6 6 7 6 7 6 5 4 4 4 3 2 3 5
2 4 6 6 11 5 7 4 4 11 17 18 19 19 18 18 20 21 21 19 19 17 15 14 14 13 13 12 12 9 8 7 6 3 3 3 4 6 6 6 4 5 4 4 5 4 1 4 5
3 2 3 3 12 3 9 2 9 13 16 18 19 18 18 18 21 20 19 17 17 17 17 15 14 14 13 12 14 10 8 7 6 3 2 4 4 4 6 6 5 5 5 6 6 3 2 3 6
1 4 3 4 10 3 10 2 9 15 15 18 17 19 18 18 20 20 19 18 18 18 18 17 16 15 14 14 13 10 9 7 5 3 2 4 2 4 5 5 7 6 8 6 5 3 3 3 4
7 5 4 4 10 5 10 4 7 12 14 16 18 18 18 18 19 21 19 17 16 17 16 17 17 16 16 12 12 9 10 7 8 6 4 4 5 4 5 5 9 9 6 6 4 3 2 3 2
7 6 5 2 4 6 6 6 7 11 13 15 18 18 18 18 22 22 19 17 15 16 17 18 19 18 17 13 10 9 11 10 8 6 6 4 7 4 5 7 9 10 6 5 5 4 3 2 2
4 5 4 2 3 6 3 3 4 10 11 14 17 17 18 18 17 20 20 18 19 20 20 19 19 20 20 14 11 7 9 8 6 7 7 6 7 5 5 9 8 10 7 6 6 4 1 1 2
5 5 4 3 1 1 1 0 4 1 4 9 12 15 17 17 18 17 20 21 21 20 22 23 24 22 20 16 13 10 11 8 7 8 6 9 9 5 6 7 6 7 7 6 6 4 2 2 1
9 7 4 3 2 3 3 3 7 6 4 2 8 13 15 18 17 18 22 22 23 25 24 22 24 25 22 20 14 15 13 12 10 9 7 6 7 9 6 7 4 5 4 8 7 4 2 2 2
3 5 6 3 4 2 4 2 6 5 7 7 7 8 13 15 17 19 24 26 26 24 25 25 23 24 26 24 21 16 13 10 10 9 10 8 7 5 5 7 7 5 6 7 6 4 3 1 1
10 6 5 3 2 6 3 2 5 6 9 11 9 6 11 15 14 19 24 25 25 24 24 24 24 27 28 28 27 22 17 14 11 12 11 9 9 7 6 6 7 5 5 7 7 6 4 2 2
7 8 5 6 5 5 3 5 5 7 11 10 12 11 10 10 18 19 20 25 26 25 26 26 25 26 30 29 27 28 22 19 17 15 13 11 11 9 10 9 8 8 7 8 7 7 6 4 2
11 10 5 11 9 7 0 8 5 7 9 12 12 14 13 12 15 20 24 29 28 29 28 28 28 28 26 29 32 32 29 21 19 17 13 11 11 11 11 11 10 8 8 8 8 6 5 5 4
5 6 2 5 1 9 5 6 4 11 14 16 17 16 16 17 9 18 23 26 28 29 30 30 28 28 27 30 31 30 30 28 21 20 19 13 12 9 12 12 11 10 8 6 8 7 7 7 6
3 3 5 2 9 10 4 4 5 12 16 18 19 20 19 19 12 7 14 21 24 24 26 27 29 30 33 30 33 30 29 29 27 24 22 18 16 13 11 13 14 12 11 10 10 8 9 9 7
2 2 3 1 2 6 7 5 5 8 10 14 16 17 17 19 18 16 19 6 16 22 24 25 25 26 27 26 28 28 29 29 26 24 24 22 20 17 15 15 14 14 15 13 13 12 9 10 8
7 4 1 5 5 2 0 5 4 9 11 12 15 16 17 17 17 17 23 23 17 1 16 21 23 25 25 26 25 25 25 27 25 26 26 26 25 21 18 18 16 15 16 17 17 15 12 12 11

GFSSGP_925_spd_096.txt.gz
Wind_Speed
8 8 5 3 2 2 1 5 2 10 11 4 13 6 9 5 5 6 21 19 24 21 18 15 15 13 12 11 11 11 11 10 11 11 10 10 11 10 10 11 11 12 12 12 13 13 14 15 15
9 8 4 2 2 3 5 4 12 5 10 17 10 12 6 10 9 15 22 25 24 21 19 16 15 13 11 10 9 11 9 10 12 11 11 11 10 10 11 11 11 12 11 12 12 13 13 14 15
9 5 2 3 2 4 5 5 9 14 19 12 8 7 4 5 11 22 23 27 23 19 17 16 15 13 12 11 10 10 9 10 10 11 10 11 11 11 10 11 11 11 11 11 12 12 12 12 14
8 4 3 2 5 8 4 5 15 22 12 4 12 8 7 2 22 15 27 25 21 18 15 15 14 12 11 11 10 9 9 9 11 11 11 11 11 10 13 12 11 12 11 11 11 10 11 11 11
4 4 3 2 8 7 6 9 16 17 9 9 4 5 9 11 12 28 27 23 20 18 15 12 14 13 11 10 9 9 10 11 11 11 12 12 12 14 14 13 13 12 11 11 9 9 10 12 12
3 3 2 4 9 9 8 4 16 6 8 7 9 11 8 14 25 26 25 21 19 17 16 13 14 13 11 11 9 10 10 11 12 12 12 13 13 13 13 13 12 12 11 10 11 11 12 13 11
4 4 3 6 9 8 3 2 6 6 9 5 9 9 11 20 25 24 22 19 16 16 15 13 12 11 10 9 9 11 10 11 12 12 12 13 13 13 13 13 13 12 11 11 13 14 15 13 11
3 4 2 2 7 5 8 3 2 5 5 8 10 6 18 24 25 23 20 19 16 15 13 12 11 11 10 9 10 11 10 11 12 11 12 13 15 14 14 14 12 12 12 12 12 13 12 12 10
4 5 4 5 1 8 14 7 2 1 9 1 5 5 25 29 26 23 21 19 16 13 13 12 11 10 10 11 10 11 10 10 11 11 10 11 11 12 12 12 12 11 11 11 12 12 12 11 11
6 2 6 5 2 11 14 10 8 7 10 4 9 21 28 28 26 24 21 20 18 14 13 12 11 12 11 11 11 10 9 8 9 9 9 9 10 11 12 11 11 11 10 10 11 11 11 7 7
4 2 5 8 10 13 12 9 3 8 6 10 15 22 27 28 24 22 19 19 17 15 13 12 11 11 11 11 11 10 9 9 9 9 9 9 10 10 10 10 10 9 8 9 8 6 7 8 7
6 2 2 7 10 6 9 11 6 4 2 7 14 25 29 23 23 22 20 19 18 16 13 12 11 10 9 10 9 9 9 9 9 9 9 9 9 9 8 9 9 8 6 6 5 6 7 7 7
7 4 3 6 9 8 11 9 5 6 6 11 19 25 24 22 23 21 19 17 17 17 15 13 11 10 9 10 9 8 8 8 9 8 8 7 8 9 8 8 8 8 7 5 4 5 6 6 7
7 5 1 7 8 12 8 6 11 10 9 16 21 23 21 21 22 19 19 17 16 15 15 14 12 11 10 9 10 8 7 7 8 7 7 7 7 8 8 9 8 7 6 4 3 3 4 5 5
6 7 5 7 9 7 10 9 6 15 12 17 21 21 20 19 20 19 18 17 16 15 15 15 14 13 12 10 11 9 7 6 6 6 6 6 6 7 8 7 6 6 4 3 3 3 4 5 5
10 8 10 8 10 7 9 9 10 16 14 17 19 19 18 17 20 18 18 16 16 15 15 14 13 13 13 11 11 9 8 5 5 5 5 5 6 5 6 5 6 5 4 4 4 4 4 5 6
10 12 6 8 11 7 8 9 12 18 14 15 17 18 17 17 18 18 18 16 17 15 15 15 14 14 12 12 11 9 8 6 4 3 6 6 5 5 5 6 7 6 6 6 4 3 2 5 4
16 8 7 9 11 8 10 10 13 13 13 13 16 17 17 17 17 20 18 16 16 16 15 14 14 14 13 11 10 9 9 7 5 3 5 5 5 6 6 7 7 7 7 6 4 3 3 3 3
11 9 10 6 14 9 10 10 12 12 13 13 13 16 18 19 20 21 18 16 16 16 16 16 16 15 14 12 12 10 9 7 4 4 2 5 6 6 7 7 9 8 7 4 4 5 4 5 3
12 12 12 9 7 6 5 7 4 13 11 12 14 14 14 18 19 21 19 17 16 17 17 17 17 16 16 12 9 7 8 7 6 6 4 5 6 5 5 6 8 9 7 5 6 3 5 3 3
13 13 10 10 7 5 6 11 12 6 7 6 11 15 16 17 20 19 21 19 17 17 17 18 18 16 15 11 9 7 8 7 8 9 5 6 7 5 7 7 6 7 7 8 6 4 1 6 3
14 5 4 8 8 9 13 3 9 10 11 7 7 8 12 12 16 19 23 23 21 19 19 18 18 17 15 13 10 9 10 8 6 9 8 7 7 7 7 8 7 8 5 7 6 4 3 1 6
5 9 10 8 10 3 15 11 8 10 9 5 10 9 10 14 14 17 23 25 23 21 20 21 19 19 17 15 12 9 10 8 7 7 10 9 7 7 8 9 8 9 7 8 6 4 2 2 1
5 10 9 8 10 11 11 12 8 5 6 5 4 1 9 14 13 17 21 24 23 21 21 20 21 20 20 19 16 14 10 8 6 8 8 10 9 8 7 8 8 6 6 8 6 4 4 1 0
13 15 10 11 9 9 11 8 9 7 7 7 9 6 4 7 15 14 17 23 24 23 22 20 21 21 21 21 20 19 17 13 11 10 10 8 9 8 9 9 7 7 6 6 6 5 5 4 3
18 18 9 12 13 12 6 7 7 8 9 13 11 10 9 8 10 14 22 23 26 26 24 22 23 23 23 23 23 20 19 17 15 14 12 11 10 9 9 10 7 6 6 7 7 6 7 6 5
19 13 7 6 6 9 12 11 11 7 11 13 14 14 14 15 6 18 22 25 23 23 25 24 22 22 23 23 21 22 21 20 16 14 12 13 10 9 10 11 11 8 6 6 8 8 7 7 7
6 3 10 8 13 14 11 14 9 6 8 11 14 15 15 16 18 5 11 19 20 21 21 22 22 22 22 22 22 22 21 20 19 16 16 15 12 12 9 12 12 11 10 9 8 7 8 8 8
7 9 10 8 5 14 10 8 6 8 8 11 12 14 15 15 15 15 20 21 4 14 15 17 19 19 18 20 21 20 22 20 18 19 18 18 16 13 13 12 12 12 12 12 11 8 6 9 8
2 4 9 10 13 9 7 7 8 9 8 9 11 13 15 16 16 17 22 20 20 19 6 11 12 15 16 16 18 20 20 19 19 19 19 17 19 16 15 14 15 14 13 13 14 12 10 10 9

GFSSGP_925_spd_099.txt.gz
Wind_Speed
8 7 7 3 2 5 4 4 3 13 13 12 10 11 16 21 9 12 31 26 25 23 20 18 16 15 14 13 12 12 11 10 10 10 9 11 11 11 12 13 14 15 16 16 16 17 18 18 18
12 7 4 4 4 6 5 10 10 11 11 16 9 12 15 17 12 23 24 27 25 23 20 18 17 14 13 13 11 10 11 11 11 11 11 10 10 11 11 12 13 14 15 15 16 16 17 17 18
12 7 3 3 2 4 6 7 8 16 16 12 13 15 12 9 24 21 31 28 25 22 20 17 17 13 12 12 11 10 11 10 12 11 11 12 11 10 11 11 11 13 14 14 15 14 16 16 16
5 2 4 4 7 9 9 10 17 20 14 10 13 12 9 19 21 30 30 25 23 21 19 17 15 13 12 10 11 10 11 10 11 12 12 11 10 12 12 11 11 12 13 13 13 14 13 14 14
11 4 4 3 10 9 9 15 18 13 13 14 7 11 19 18 24 30 28 24 21 24 17 14 14 12 11 10 10 11 11 10 11 12 13 13 13 13 13 12 12 12 13 12 12 12 13 14 13
3 5 2 2 12 10 9 16 11 15 13 9 17 18 11 16 29 28 25 23 20 20 20 14 12 12 10 10 11 11 11 12 12 12 13 14 14 13 13 13 13 13 13 14 13 15 14 12 12
4 6 4 5 11 11 8 5 10 7 9 9 13 16 13 23 27 26 23 23 18 26 18 14 12 11 11 10 11 11 11 11 12 12 12 13 13 13 14 13 13 14 14 14 16 15 14 12 12
9 6 3 5 9 7 6 5 2 6 10 5 13 10 21 25 27 24 21 21 20 18 15 14 12 13 12 11 12 11 11 12 12 13 13 14 14 15 14 15 13 13 14 14 14 13 13 14 15
12 4 7 6 3 11 12 6 3 7 9 1 4 21 26 29 27 23 20 18 16 14 14 18 14 12 13 14 12 11 12 12 13 13 12 9 11 14 14 13 12 12 12 13 14 12 12 16 20
10 3 7 9 5 14 18 12 10 7 10 7 8 26 30 28 25 23 21 19 18 16 14 12 23 14 15 15 10 11 10 9 8 9 12 10 13 15 13 11 12 12 13 13 12 9 6 7 7
9 2 10 11 8 11 14 14 2 9 7 8 19 25 26 27 23 21 20 18 17 14 20 20 15 14 11 13 11 13 12 13 11 8 11 11 11 13 14 13 11 9 9 7 6 3 2 3 7
8 4 9 12 9 11 11 9 4 5 5 10 14 22 23 23 21 21 21 19 18 14 17 18 14 12 11 11 12 14 10 10 12 11 9 8 10 6 7 12 9 5 11 6 3 9 6 10 7
12 5 5 12 9 14 16 11 6 2 6 11 18 23 22 20 22 20 20 20 17 14 13 14 13 10 9 5 12 15 9 12 10 10 7 4 10 9 10 8 9 8 8 7 6 7 3 6 9
10 7 7 10 13 14 11 15 10 6 6 11 21 24 21 20 21 20 19 20 18 14 15 14 13 12 10 8 6 9 9 10 7 11 8 7 8 6 9 7 9 7 6 6 5 6 4 5 10
4 10 9 8 14 14 10 12 12 6 9 17 23 22 20 18 20 19 19 18 18 16 15 14 14 13 10 10 10 6 8 14 9 10 8 7 7 5 7 5 5 7 6 4 5 2 4 3 5
14 16 13 17 10 10 11 13 14 11 11 18 21 20 18 18 19 18 19 18 17 16 15 15 14 14 12 11 8 8 7 5 11 6 8 7 6 7 3 5 5 6 4 4 4 1 5 4 5
14 14 12 11 14 12 10 12 13 7 9 16 19 19 17 17 18 19 19 18 18 16 16 15 13 15 13 11 8 7 7 4 6 7 6 8 7 6 6 6 6 5 6 5 3 5 3 2 4
18 19 15 14 13 8 12 10 14 16 13 12 18 18 18 18 18 20 19 19 18 17 16 15 14 15 13 13 8 7 8 5 4 5 7 7 8 5 5 9 5 6 7 5 7 7 1 4 4
15 15 10 14 15 13 5 13 12 22 18 18 12 13 16 16 19 21 20 17 18 18 17 16 15 16 16 14 12 10 12 7 5 4 4 6 6 6 6 8 6 6 4 7 4 6 3 1 1
19 17 13 12 15 15 18 16 9 10 11 14 20 15 14 10 18 22 20 20 19 18 18 17 16 16 14 14 12 2 8 7 4 6 6 7 6 5 3 8 9 8 7 4 3 2 5 6 3
15 13 15 13 10 14 10 14 19 18 14 14 9 16 14 13 11 19 21 21 19 19 19 19 18 17 15 12 6 4 3 6 7 8 7 9 7 6 5 4 4 6 5 9 5 3 4 6 2
16 16 15 13 14 12 9 3 7 16 9 7 10 10 10 13 12 19 24 22 21 20 19 20 20 18 15 11 12 10 13 9 11 11 9 8 7 8 7 7 5 7 3 11 6 3 4 1 5
11 9 6 12 15 18 16 6 9 15 14 11 12 13 12 14 15 18 22 23 22 22 21 20 20 18 16 14 8 11 12 9 13 15 10 6 8 7 9 9 7 7 6 7 4 3 3 3 6
4 9 14 13 13 12 22 8 5 7 3 18 14 13 16 15 17 17 14 22 22 23 24 23 22 20 17 16 13 9 7 7 10 14 10 9 9 9 8 10 8 7 5 8 6 4 4 6 6
9 13 10 11 12 12 25 14 8 9 11 12 11 11 2 10 18 17 13 16 22 26 24 25 24 22 21 19 16 14 10 6 1 5 9 11 13 14 14 10 10 9 6 8 6 7 4 3 4
16 19 12 12 14 14 19 11 10 18 17 13 12 12 10 7 9 13 14 23 21 21 25 22 26 23 22 21 20 17 15 13 11 11 12 10 13 10 16 12 10 8 7 8 8 8 8 8 6
18 20 23 12 15 14 11 15 13 15 18 13 9 9 8 9 12 13 11 18 19 29 27 25 23 24 22 22 21 20 18 17 15 10 10 10 8 14 14 11 10 10 9 9 9 9 8 4 7
13 13 18 9 16 15 16 18 15 14 10 8 11 11 10 11 15 12 9 6 20 14 27 26 23 22 20 20 20 19 19 18 16 13 12 12 9 10 9 12 11 11 10 9 10 12 9 9 10
12 10 11 15 16 13 11 10 15 14 11 9 9 10 11 13 12 12 13 18 17 7 24 30 24 20 17 16 18 19 19 19 18 18 16 14 13 9 9 8 11 12 11 11 11 12 6 10 10
12 10 14 11 16 14 11 4 9 12 13 12 10 10 11 12 13 13 18 22 22 23 24 21 19 16 22 17 17 19 18 17 19 19 18 16 16 16 13 13 14 13 13 13 12 12 12 11 11

GFSSGP_925_spd_102.txt.gz
Wind_Speed
7 9 9 4 1 4 1 2 4 16 19 18 16 17 18 12 3 15 32 31 28 24 20 18 18 15 14 13 13 12 12 12 11 11 13 13 13 13 16 16 17 18 19 18 18 18 18 18 18
8 12 2 1 3 4 6 7 11 14 17 19 19 21 20 23 27 27 26 32 26 23 21 18 17 15 14 13 12 13 13 12 11 11 12 13 12 13 14 15 16 17 17 18 17 18 18 16 18
13 14 0 2 2 4 6 8 15 18 14 15 11 14 16 23 26 26 34 32 26 25 22 20 18 15 14 14 13 12 11 13 11 12 13 12 12 13 13 14 15 16 17 16 16 16 16 16 19
7 3 4 3 8 14 8 10 19 14 16 19 16 15 24 25 34 34 33 30 30 24 20 19 18 15 14 14 13 12 12 13 12 12 12 11 11 13 13 14 15 15 15 14 14 14 16 17 18
3 4 3 1 16 12 5 19 11 17 12 19 22 23 20 30 33 31 30 29 30 25 21 17 17 16 14 13 14 13 12 13 13 13 13 14 14 13 13 14 15 15 13 13 14 15 14 14 16
3 3 1 6 13 9 12 17 11 16 18 21 26 22 20 31 29 29 30 32 26 25 20 16 15 14 14 13 14 14 14 14 15 14 15 15 14 14 14 15 15 14 15 14 15 15 13 14 16
9 4 5 7 12 8 11 13 9 13 14 22 20 23 19 23 25 28 32 26 27 25 21 16 14 13 14 14 14 15 14 14 15 15 15 15 14 14 15 14 15 15 15 15 15 14 15 17 17
9 5 3 1 10 7 4 6 5 10 3 16 19 20 22 26 25 33 28 31 24 23 22 19 15 14 14 14 14 14 15 15 14 15 15 17 17 15 15 16 15 14 13 14 14 15 17 21 20
14 1 3 3 8 13 6 4 4 4 9 8 5 23 27 30 26 30 35 28 25 26 23 19 17 16 16 13 12 14 14 15 16 17 13 13 16 15 14 14 14 13 13 12 12 13 16 18 17
5 4 5 6 8 16 12 10 6 3 10 9 20 26 31 29 24 28 27 19 21 23 19 17 17 17 19 15 14 13 13 12 10 13 16 15 15 16 14 14 13 14 13 12 7 8 9 9 6
11 5 2 8 12 18 17 13 4 6 4 14 23 26 25 26 22 21 24 26 21 27 22 20 13 18 15 16 14 14 16 13 14 12 11 12 13 16 16 16 14 13 8 5 7 7 6 5 6
5 8 4 16 11 15 16 14 10 7 1 15 21 24 22 20 19 21 22 28 21 25 23 21 20 15 15 8 19 13 14 13 15 12 14 15 11 7 13 11 10 6 6 2 3 15 7 9 11
6 4 15 14 18 15 11 12 11 5 6 9 20 21 21 18 21 22 25 22 30 28 22 17 16 8 10 25 11 14 15 11 14 13 9 8 10 11 14 11 7 9 8 3 8 4 3 12 11
7 15 13 17 16 17 15 9 5 5 6 13 16 21 20 18 21 22 26 22 15 21 19 16 12 7 3 19 19 15 15 6 14 13 7 12 14 9 13 10 10 6 11 8 6 2 9 12 11
8 12 13 21 14 20 18 11 7 4 9 20 22 21 20 18 22 21 25 22 12 17 19 14 11 10 7 9 17 9 8 11 14 13 7 10 13 7 7 7 7 6 4 7 4 6 6 2 10
18 13 10 25 19 13 14 11 2 6 11 19 24 21 19 18 22 21 24 22 18 19 19 14 14 13 10 10 9 13 10 8 11 16 11 8 9 9 7 4 6 9 6 3 2 6 7 2 9
13 15 14 15 19 17 1 13 7 10 14 16 22 21 19 16 20 21 22 20 17 22 19 15 17 14 13 10 9 15 11 14 11 15 13 10 9 8 4 2 6 9 1 8 4 3 6 9 5
18 21 17 16 17 17 15 12 11 11 10 14 20 19 18 14 18 21 22 22 19 20 18 13 15 18 11 10 4 15 12 9 12 8 11 10 11 7 6 8 4 8 2 6 4 3 7 2 2
21 18 11 7 23 18 13 15 15 12 14 12 17 19 18 16 18 23 23 24 21 20 18 15 16 18 13 10 9 11 8 8 11 13 13 11 12 8 8 6 9 5 5 6 2 1 3 7 4
23 13 10 13 23 20 16 11 8 8 8 13 16 17 14 9 15 22 23 25 23 23 18 18 19 20 16 12 4 9 5 8 7 14 11 11 9 9 7 10 7 5 9 7 2 3 7 5 6
21 17 12 12 17 19 16 6 10 7 17 19 12 16 17 17 11 18 21 24 25 24 21 19 19 21 18 15 7 9 8 8 9 11 13 12 9 7 7 5 5 9 7 6 4 1 3 7 4
17 17 19 22 18 8 13 5 15 19 26 15 16 16 15 17 16 17 22 25 28 27 24 22 18 19 17 8 10 10 5 6 7 6 17 13 11 10 6 6 3 6 2 6 3 2 3 3 10
18 11 14 19 13 20 19 6 5 3 13 19 20 17 15 18 13 13 24 23 32 29 27 25 21 21 17 13 14 13 9 10 11 8 13 12 13 10 10 8 5 4 2 9 4 3 3 9 9
21 12 9 6 9 11 21 14 8 3 7 9 20 18 16 15 18 13 20 21 31 30 29 28 24 22 20 15 13 13 18 14 17 15 12 13 12 12 12 11 7 6 8 10 5 4 2 5 8
15 13 8 10 9 12 20 11 6 14 10 10 12 9 5 2 15 16 16 23 18 32 31 31 29 24 21 19 15 14 10 11 9 14 15 12 12 13 17 17 12 9 8 8 6 4 2 3 6
13 18 10 14 12 12 18 11 10 19 14 13 6 5 5 10 13 14 15 15 14 24 32 32 31 27 25 22 20 17 13 15 17 18 11 8 12 11 11 19 15 10 9 9 8 4 5 3 7
16 17 18 15 20 13 9 14 13 18 17 13 7 7 8 10 6 16 22 22 28 13 13 34 34 30 28 25 22 19 16 13 11 10 10 10 11 15 13 14 14 13 10 9 10 9 11 6 10
14 9 17 14 14 14 11 13 13 16 14 12 11 10 10 11 15 16 20 20 10 4 12 13 34 31 28 25 24 21 19 17 15 8 9 7 13 14 19 14 11 10 9 10 9 10 10 12 9
11 11 12 17 15 10 11 4 6 17 13 14 12 9 8 10 11 11 16 19 19 6 7 21 12 25 24 23 24 23 21 19 16 13 11 16 8 13 10 13 11 12 11 10 11 12 6 12 10
16 13 16 12 17 10 7 3 5 11 14 14 12 9 8 8 9 11 18 20 18 17 19 14 18 35 3 18 24 22 20 20 20 17 16 14 14 10 6 6 10 13 14 15 15 11 11 10 11

GFSSGP_925_spd_105.txt.gz
Wind_Speed
9 11 9 2 2 2 3 4 18 19 13 14 11 13 9 11 4 5 31 30 26 25 23 20 18 17 16 15 14 13 14 15 15 16 17 17 18 19 20 20 19 21 21 20 19 19 17 18 20
9 8 6 1 1 4 2 2 16 22 20 15 21 23 22 15 18 21 26 32 29 26 22 21 18 17 16 15 15 15 14 14 14 14 15 16 17 18 18 18 19 20 20 19 19 17 19 20 20
10 8 2 1 1 2 3 3 14 19 20 18 16 14 8 21 20 13 37 33 29 25 23 21 18 18 16 16 14 14 15 14 14 15 15 16 16 16 17 18 19 18 18 18 16 17 18 18 19
7 2 3 2 9 2 7 11 16 24 24 26 24 19 18 31 21 39 38 34 33 26 23 21 17 17 15 16 14 15 15 14 14 15 15 15 15 16 16 17 17 16 16 16 17 18 18 18 17
8 1 3 2 7 5 8 9 18 22 19 23 25 24 23 29 40 41 38 38 33 26 23 20 18 17 16 16 14 14 15 15 15 14 16 16 16 16 17 16 16 15 15 16 15 17 18 18 18
1 2 0 5 8 8 7 15 21 20 20 20 26 24 17 34 38 40 37 36 29 29 23 20 17 16 17 16 15 14 15 15 17 16 17 17 17 16 18 16 15 14 15 15 14 16 18 17 16
1 2 3 6 9 15 7 11 10 20 22 16 23 26 12 20 31 39 37 30 32 26 25 20 18 15 16 15 16 15 15 15 15 16 17 17 17 17 17 16 15 17 16 16 15 17 19 19 19
2 4 3 0 5 4 6 6 10 14 9 21 24 16 16 17 36 37 37 36 31 26 24 19 18 17 18 14 14 14 15 16 16 15 16 17 17 17 17 17 16 15 14 12 13 15 17 17 17
4 3 7 2 9 2 4 10 4 8 20 17 10 16 21 39 37 30 33 32 29 27 24 20 19 18 17 16 13 13 14 16 18 18 19 20 20 19 14 17 16 15 14 14 13 15 15 15 12
4 3 4 7 2 9 6 9 9 6 11 12 22 19 26 29 35 22 24 23 25 28 26 24 21 20 16 14 16 16 16 15 15 16 16 17 17 15 16 16 16 16 15 13 11 11 10 7 3
7 6 15 20 8 11 12 9 4 8 12 24 25 22 18 33 27 30 24 31 32 28 25 25 20 22 16 17 13 12 14 13 14 17 18 14 18 16 17 18 16 12 10 5 5 2 3 0 2
9 15 7 10 12 13 9 6 6 11 2 9 22 19 14 24 23 26 21 26 31 26 21 23 22 18 17 14 16 12 14 15 14 14 16 18 17 13 17 14 12 9 6 7 4 9 8 6 9
8 11 13 16 18 9 14 9 8 10 5 16 19 17 11 9 24 30 29 36 36 30 25 21 23 19 13 14 14 14 13 14 15 14 16 14 13 16 11 11 12 13 8 8 7 5 11 11 14
7 16 5 18 16 14 16 11 4 9 11 16 19 15 11 9 19 28 34 32 29 32 28 24 23 12 17 16 11 12 17 17 17 13 8 9 14 16 14 13 12 9 6 8 8 14 8 11 9
11 7 8 16 17 16 18 6 6 7 4 9 17 15 11 8 24 27 30 30 36 32 30 27 23 20 20 14 15 16 16 15 14 14 11 15 12 15 11 9 20 15 8 7 6 3 5 3 10
7 10 7 7 17 13 6 6 5 2 7 4 13 15 12 8 27 27 29 28 32 35 30 22 27 24 25 23 15 15 16 17 15 17 14 15 10 10 10 8 13 12 9 4 1 3 4 2 9
7 8 10 15 15 11 7 7 8 4 6 11 18 15 11 10 22 27 28 22 30 30 24 23 27 20 21 17 13 15 14 16 13 14 14 13 10 8 8 7 10 10 3 7 2 5 5 7 9
7 7 7 15 14 11 9 6 13 7 9 22 17 13 10 13 16 27 29 25 28 25 21 22 23 20 17 15 13 15 18 16 16 15 11 13 9 10 9 10 6 6 8 4 2 4 5 5 2
12 10 10 11 10 10 6 8 12 5 6 13 12 9 9 12 17 27 29 28 29 24 21 19 28 21 15 14 21 17 15 16 15 14 12 13 9 9 11 10 7 8 8 6 3 5 7 6 5
15 3 7 10 7 12 13 6 4 8 6 11 9 11 12 9 11 18 26 27 29 25 20 26 25 22 16 13 15 14 15 13 10 16 12 13 11 9 13 8 10 7 6 6 3 3 7 5 7
12 7 16 8 8 8 10 4 2 2 5 9 14 11 16 12 12 12 22 28 30 29 23 22 24 20 18 11 11 14 12 10 14 13 14 12 11 10 9 8 10 9 5 5 5 2 6 6 5
9 1 24 23 12 6 14 4 4 6 2 5 13 11 5 13 15 11 17 25 29 32 28 22 22 19 20 9 10 15 11 11 10 15 15 14 13 8 11 9 11 8 8 7 3 3 7 9 13
10 22 24 12 6 6 15 4 3 9 8 8 12 15 14 13 14 8 18 28 32 35 32 27 21 17 18 8 13 13 13 13 12 12 15 13 13 12 10 9 8 9 6 5 3 4 3 7 13
9 5 13 5 5 3 14 6 4 9 8 6 15 16 18 14 17 11 23 28 30 30 31 30 25 20 19 13 11 9 11 12 11 13 14 13 11 12 11 9 9 10 7 8 3 1 2 3 8
7 3 2 2 3 11 17 6 1 15 16 12 14 23 13 8 17 8 11 19 29 29 31 33 29 24 21 16 13 10 8 6 12 15 14 15 14 12 13 12 12 10 10 10 5 2 2 1 4
5 7 5 4 6 6 10 6 6 17 16 18 16 6 8 1 8 5 12 6 22 29 31 31 33 29 24 20 16 16 13 10 16 17 16 13 15 11 12 14 12 12 14 11 8 5 5 1 4
6 4 9 3 6 3 4 8 8 11 10 9 6 12 11 10 8 4 13 14 8 25 26 29 34 32 29 24 20 18 17 13 12 13 14 14 14 10 6 13 11 11 10 10 9 8 4 4 6
3 5 5 3 2 2 4 6 7 12 10 9 8 10 12 5 11 11 13 12 5 20 23 19 18 13 21 28 23 21 19 19 16 13 15 12 14 16 19 14 12 13 11 10 9 7 5 6 4
1 4 2 1 1 4 5 2 3 9 8 11 10 8 8 9 10 9 12 6 6 16 27 22 18 13 9 13 10 23 21 19 20 15 11 12 12 9 13 17 16 16 13 11 10 10 8 8 11
5 7 4 4 8 3 5 3 3 10 10 10 9 9 6 11 12 9 12 15 14 15 14 18 14 8 12 15 19 21 22 21 21 23 17 15 14 11 10 17 20 17 15 13 12 11 12 8 12

GFSSGP_925_spd_108.txt.gz
Wind_Speed
9 11 6 3 3 2 3 4 6 8 12 9 18 7 8 8 4 4 25 18 27 25 22 19 18 17 17 16 16 16 16 16 16 16 17 18 18 20 20 19 19 19 19 18 19 20 20 20 20
12 11 4 1 1 2 1 10 13 13 12 20 9 15 7 4 9 16 17 29 28 27 22 20 18 16 16 15 16 15 14 15 15 15 16 17 18 20 20 19 19 19 19 18 19 19 19 18 17
12 7 1 1 1 1 8 10 19 17 15 16 7 10 5 7 16 16 26 33 30 25 22 19 18 16 15 15 16 16 15 15 16 15 16 18 18 18 18 18 17 19 18 17 17 18 19 17 18
3 4 1 2 2 4 4 14 18 17 13 13 16 12 9 11 13 21 34 32 29 26 22 19 18 16 17 14 15 14 15 15 14 15 16 15 18 17 18 16 16 16 17 16 18 18 18 17 17
1 1 2 3 6 6 3 16 22 17 6 13 21 11 7 11 32 37 36 31 32 27 23 19 17 15 16 15 14 14 14 13 14 14 15 15 17 16 15 14 14 15 16 17 18 20 18 17 15
1 1 1 4 9 11 9 11 17 20 17 18 20 15 6 32 34 33 35 32 29 29 23 20 17 16 15 15 15 14 14 14 14 15 16 16 17 16 16 13 13 14 15 16 17 18 19 18 21
3 2 4 0 16 14 8 10 17 18 20 15 18 16 14 26 32 36 36 32 29 27 24 20 17 16 14 14 15 15 14 14 13 14 16 17 16 15 15 14 14 13 12 12 15 16 16 17 20
5 2 8 7 8 10 6 11 13 16 12 17 22 11 20 27 31 31 33 32 28 26 24 21 18 18 16 16 15 15 15 14 13 13 14 16 16 15 14 16 14 13 12 13 15 17 15 16 17
4 3 1 5 5 4 3 19 4 3 17 13 3 20 25 37 34 30 27 25 26 23 22 21 19 18 16 16 14 15 15 14 14 13 14 16 17 16 16 16 15 14 14 15 15 16 15 16 14
4 2 5 6 3 6 10 8 11 12 17 10 18 22 33 37 33 28 24 23 21 25 22 22 20 18 17 16 16 17 17 16 15 16 16 17 15 15 16 16 15 14 14 14 12 10 9 8 6
7 6 7 7 11 9 10 11 7 16 6 21 24 26 26 31 30 27 22 26 29 28 25 22 20 19 16 17 19 17 17 16 14 14 13 13 13 14 16 17 14 12 10 9 6 5 2 1 4
3 3 5 1 5 8 5 7 6 6 13 19 22 21 27 21 22 25 23 23 25 27 26 25 22 20 18 17 15 14 14 15 16 14 12 12 13 16 16 13 10 7 5 6 9 6 7 7 10
5 8 5 5 6 10 8 8 7 7 10 14 20 24 20 16 23 23 26 26 29 27 28 26 25 20 20 19 16 13 12 14 14 14 15 16 15 15 12 11 10 10 7 4 4 6 7 13 17
8 11 10 7 5 8 11 11 4 9 7 12 18 18 18 20 24 23 25 26 24 30 26 26 22 22 17 21 15 16 16 15 16 15 16 11 11 12 9 9 8 8 6 8 9 9 7 9 14
14 6 4 8 3 4 14 3 11 7 2 20 16 11 17 22 27 29 28 30 32 28 24 20 21 22 19 18 17 18 14 16 14 14 15 12 13 11 9 7 12 9 8 6 4 6 4 4 6
6 4 5 2 3 8 1 4 8 5 8 13 16 9 9 22 29 28 29 31 31 29 23 19 17 17 18 17 15 15 14 18 14 11 19 12 12 9 7 12 12 9 8 3 3 5 3 5 6
1 6 6 5 11 4 2 3 3 5 7 9 8 6 10 17 27 29 28 33 32 29 26 24 17 18 16 12 14 15 17 17 15 15 17 13 11 10 8 11 8 8 5 3 1 4 4 3 7
4 4 3 8 16 11 4 4 10 4 9 10 7 4 14 18 15 27 30 32 33 29 28 23 19 17 14 9 11 19 17 14 13 13 15 14 12 11 8 7 6 4 4 4 2 5 7 4 2
2 8 3 7 9 9 4 6 9 5 11 15 13 8 12 18 26 30 35 36 35 32 28 25 23 21 17 15 15 13 16 14 16 14 12 14 13 12 9 8 7 5 3 3 4 6 8 3 0
5 7 4 11 8 3 5 7 5 6 11 16 14 6 12 15 14 22 31 32 34 32 27 30 24 22 19 12 18 15 15 14 14 14 13 13 11 11 12 10 10 7 3 2 3 6 6 4 5
9 6 6 7 10 12 6 3 2 1 13 11 11 7 7 21 18 16 27 29 32 31 28 33 28 23 20 13 17 14 14 12 11 16 12 13 11 10 12 11 10 7 3 5 2 4 7 8 6
9 6 12 18 6 4 6 3 5 7 9 17 16 9 5 14 18 19 25 26 30 33 30 35 28 22 19 13 17 17 16 17 15 15 15 12 12 10 10 12 10 8 7 6 2 1 5 9 14
11 7 14 15 4 7 5 3 3 13 10 13 15 11 3 6 13 19 26 31 31 35 35 34 28 22 20 13 12 15 17 13 14 15 16 14 16 12 11 11 11 9 6 8 4 3 2 8 12
11 14 10 5 4 1 9 4 4 10 13 13 12 12 5 5 9 8 31 32 30 31 35 34 29 25 23 15 14 16 14 16 14 19 17 15 16 13 13 11 11 10 9 7 5 2 1 4 7
7 6 2 4 3 6 10 5 5 8 10 12 16 17 4 4 8 7 15 26 26 29 33 35 32 26 25 19 16 15 15 18 17 20 17 15 14 13 12 12 10 11 9 10 7 4 2 1 2
4 7 6 4 4 5 5 6 1 3 4 9 6 9 8 4 4 5 4 24 29 31 32 31 33 28 28 22 17 16 14 13 20 19 16 16 15 13 14 13 11 8 9 10 9 6 5 3 3
5 2 3 5 2 4 5 3 5 5 6 5 4 5 7 7 4 7 9 14 18 21 27 33 33 28 27 24 20 17 16 11 16 17 17 17 16 17 14 16 14 10 12 10 10 9 6 6 5
8 4 4 3 4 4 2 8 7 10 9 7 7 6 8 5 2 3 7 16 16 7 20 22 25 24 20 20 18 18 17 14 13 15 18 16 16 20 14 18 16 13 13 13 11 10 9 8 6
3 3 5 3 4 5 4 0 5 13 12 10 6 6 7 9 3 5 6 13 19 12 14 23 23 22 14 9 10 15 19 19 18 15 10 14 16 16 16 18 16 15 15 15 14 12 9 8 9
4 4 5 4 4 3 4 3 7 13 11 11 6 2 5 5 8 7 9 12 18 15 11 19 23 20 11 3 5 9 18 19 21 20 15 15 14 14 10 16 16 17 16 15 15 14 14 12 11

GFSSGP_925_spd_111.txt.gz
Wind_Speed
4 5 1 2 1 1 1 3 3 11 9 6 15 4 4 5 2 3 16 13 24 21 19 18 17 16 15 15 16 16 14 14 14 14 14 14 15 15 17 16 16 17 17 18 19 19 19 17 17
9 4 5 2 2 2 2 4 6 8 12 20 6 8 6 4 5 13 12 24 25 23 21 19 17 16 15 13 14 14 14 15 14 13 14 14 15 16 15 15 15 16 17 17 18 17 16 16 15
9 8 2 2 1 1 3 4 10 7 18 18 5 8 4 3 11 11 21 29 27 24 21 18 16 14 14 13 12 12 14 13 14 13 13 14 15 16 15 15 15 16 17 17 17 15 13 11 12
4 4 1 2 2 3 7 11 16 16 12 5 13 10 5 13 6 13 30 30 27 23 19 17 15 14 13 14 13 13 13 14 14 14 13 13 13 14 13 14 14 14 15 15 15 14 12 12 11
6 1 2 2 3 1 2 13 12 8 9 10 6 7 6 4 20 30 32 29 27 23 19 17 15 14 13 13 13 13 15 13 13 14 13 13 12 13 11 13 13 13 14 14 14 14 11 10 12
1 2 2 4 4 5 5 10 5 11 14 14 14 10 4 23 28 26 28 28 25 23 19 16 15 14 13 12 13 14 13 14 13 14 13 13 12 11 10 9 10 11 12 13 15 13 11 9 11
2 3 5 3 9 10 7 6 10 14 13 9 12 7 6 14 25 26 28 27 24 22 21 17 15 14 12 13 12 13 14 14 13 14 14 14 12 11 9 9 10 9 10 12 15 13 11 14 12
3 2 6 6 8 5 6 3 7 14 10 14 11 5 9 13 23 24 25 25 23 21 19 18 16 14 14 14 12 12 13 14 14 13 14 13 11 9 9 11 10 9 9 11 14 13 12 12 8
4 4 1 3 8 3 5 10 1 5 19 5 1 8 19 28 26 25 22 22 22 19 18 17 18 15 15 14 13 12 12 13 13 13 13 13 13 11 11 11 9 9 9 11 12 11 10 10 8
3 3 9 7 5 11 8 0 6 10 13 14 16 18 29 28 27 23 21 19 22 21 20 18 18 17 15 14 14 14 14 14 15 14 12 13 12 12 12 10 10 11 11 10 9 8 8 7 4
4 4 6 7 8 14 12 8 4 17 12 21 23 22 23 25 21 22 19 21 25 24 21 19 18 17 15 15 15 14 14 14 15 15 14 12 11 12 12 13 12 10 7 6 5 4 5 6 6
2 7 3 1 10 7 14 14 7 10 4 15 21 24 23 18 19 19 20 19 24 24 22 21 19 18 16 16 15 15 14 13 13 13 12 11 12 12 11 10 8 6 3 4 5 4 2 3 7
5 3 4 2 13 11 10 10 8 12 15 16 22 22 20 17 17 18 19 20 24 24 24 22 20 17 18 16 14 14 12 13 11 11 10 11 13 12 9 6 4 5 4 3 5 10 7 7 6
3 5 7 3 5 6 9 9 8 9 18 22 22 20 18 17 20 19 21 22 24 25 26 24 21 19 17 15 13 12 12 12 11 10 12 12 10 8 8 5 3 4 3 5 6 7 6 4 8
8 5 7 4 2 4 9 5 13 8 19 23 21 19 16 17 21 24 27 26 28 27 26 27 22 20 18 17 13 13 11 13 12 11 12 9 7 8 5 5 4 2 5 4 5 5 3 3 4
4 5 3 4 6 6 4 4 7 7 12 21 21 17 15 16 21 21 24 28 28 29 28 26 21 22 13 15 15 13 12 12 12 11 12 8 9 7 6 5 5 4 2 2 4 4 2 3 1
6 1 2 3 6 9 3 2 4 6 13 10 17 16 15 11 15 18 23 27 30 29 28 23 20 20 19 18 15 15 12 14 12 10 14 11 11 8 6 9 6 4 2 1 3 4 4 3 4
3 2 4 4 5 4 7 2 4 6 15 16 5 15 18 16 17 22 23 27 29 27 25 23 19 20 18 17 15 15 13 13 14 10 15 12 11 10 6 11 7 2 1 1 4 6 5 2 3
1 2 3 4 4 4 6 4 9 4 12 11 7 5 14 16 16 21 23 23 28 26 24 23 22 19 17 14 14 16 16 13 13 14 14 12 11 10 7 7 5 3 1 2 5 7 6 4 5
4 2 3 4 3 4 3 4 1 2 4 15 15 2 10 13 15 18 22 25 28 30 27 26 22 20 17 13 14 14 14 13 15 14 13 14 12 12 9 7 6 4 2 1 3 8 7 6 6
3 4 5 5 8 9 11 1 4 2 5 12 11 6 4 12 15 15 21 26 27 31 30 27 23 22 18 13 15 12 12 9 12 13 12 13 11 13 11 9 8 5 4 3 1 5 8 10 5
3 8 9 12 4 5 1 1 5 4 5 16 21 11 2 5 12 16 22 22 26 33 32 30 25 24 21 14 17 15 18 14 13 16 13 13 11 10 12 10 9 5 5 5 1 3 7 9 11
8 5 7 6 4 6 0 4 4 10 9 15 17 17 7 4 11 18 26 29 30 31 32 33 28 25 23 19 17 17 16 16 14 14 13 12 12 12 10 12 10 7 5 7 4 2 4 8 11
8 9 10 6 3 1 8 6 4 13 14 17 17 15 9 5 5 11 17 26 26 27 29 35 32 27 23 19 15 18 15 16 16 15 15 13 14 12 11 10 11 9 7 8 5 2 1 4 7
5 5 3 3 2 5 5 4 2 9 11 17 21 22 15 2 2 3 9 17 17 27 30 32 33 28 25 21 16 16 16 15 16 18 18 16 16 13 13 14 12 12 9 9 7 4 2 2 2
9 9 6 6 5 3 1 4 3 5 8 9 9 15 11 4 1 3 4 13 18 24 31 32 33 30 25 21 16 16 16 16 14 15 18 17 17 16 15 15 12 10 11 9 10 7 5 3 2
5 4 6 7 1 3 3 3 5 9 11 11 12 12 9 5 5 6 9 5 19 20 25 35 34 29 23 21 17 16 14 15 17 18 16 15 16 15 16 15 13 12 10 10 10 8 5 5 5
8 6 2 3 5 3 1 3 5 9 11 12 10 9 7 5 3 7 8 4 15 23 20 21 28 28 24 21 18 16 16 13 8 18 17 16 16 15 16 15 16 14 11 11 10 9 8 8 6
4 2 6 6 2 5 3 3 3 5 10 10 10 10 6 5 6 4 8 15 9 13 18 20 24 24 19 18 14 14 16 15 12 13 14 16 14 14 18 15 19 17 14 12 11 10 9 9 7
1 1 3 5 3 3 4 1 9 11 7 9 9 9 8 4 5 4 5 11 10 15 18 17 22 23 16 11 11 11 15 17 17 15 13 11 13 15 16 16 16 17 16 14 13 13 11 11 11

GFSSGP_925_spd_117.txt.gz
Wind_Speed
6 5 2 1 1 1 3 5 7 17 11 7 14 4 7 7 2 6 11 7 16 16 14 12 13 12 12 12 12 12 12 12 12 12 14 13 14 14 15 16 17 18 18 18 18 18 18 19 17
7 2 0 1 2 3 3 6 16 14 14 19 8 13 5 4 4 11 9 15 16 16 14 13 13 13 12 13 10 10 11 12 12 12 12 13 13 15 14 16 18 18 18 17 17 16 16 16 16
6 2 0 1 1 3 5 7 17 15 18 9 5 8 4 3 10 11 13 17 16 14 13 13 14 13 12 12 10 9 10 10 10 11 12 14 14 14 14 15 17 17 16 15 14 14 14 14 15
3 3 2 1 5 3 3 14 19 21 15 4 12 9 5 6 11 8 19 17 16 14 13 12 12 11 10 10 10 9 8 8 9 10 12 12 14 15 15 16 16 15 15 15 14 12 8 9 9
2 0 0 3 6 5 9 14 15 20 12 8 1 6 10 3 9 21 18 17 17 14 12 10 10 12 10 9 8 9 8 8 9 10 10 11 13 14 15 14 13 13 13 13 14 12 12 12 11
1 1 2 4 11 11 11 9 14 10 9 10 12 12 5 9 21 18 18 17 14 13 11 10 10 11 11 9 9 8 8 8 8 10 11 11 13 14 14 14 12 12 12 12 13 11 10 10 11
1 1 2 5 12 8 6 8 6 9 11 6 13 9 6 15 17 18 18 16 13 12 9 10 9 9 11 9 9 9 8 7 8 9 10 10 12 13 14 14 13 11 11 10 12 13 13 12 11
2 2 3 6 6 4 2 4 4 8 8 9 10 6 10 14 18 19 16 15 13 11 10 9 9 9 10 9 9 10 9 9 8 9 10 10 12 14 14 14 11 10 9 9 10 10 10 10 8
3 4 2 1 3 3 6 5 3 8 14 6 2 13 19 22 22 19 17 14 13 11 10 9 9 10 10 10 10 11 10 10 9 9 9 10 11 13 12 11 11 9 8 7 8 7 6 7 8
1 3 6 9 3 3 6 9 9 8 7 8 15 19 24 23 21 20 18 16 14 12 10 9 10 10 10 9 11 11 10 9 9 9 9 9 11 11 12 12 12 11 8 6 4 3 3 5 5
2 2 8 13 7 6 9 10 4 13 3 9 23 23 22 22 19 17 16 16 14 12 10 9 9 9 9 9 10 9 8 9 8 9 10 10 10 10 11 11 10 9 7 4 3 4 5 6 5
2 3 10 6 11 8 9 7 8 7 3 14 19 23 23 19 19 18 16 15 14 14 11 9 9 9 8 11 9 10 9 9 8 9 10 11 10 10 10 9 9 8 6 5 5 6 6 5 4
4 2 8 7 11 10 7 10 6 4 7 17 19 19 17 17 17 15 14 13 14 14 12 11 10 9 11 11 11 10 10 10 9 8 9 11 9 10 9 9 8 9 7 8 9 9 10 11 8
3 4 7 2 13 10 13 7 6 5 8 16 17 17 15 16 17 15 14 15 15 14 13 13 11 10 13 11 11 10 10 9 8 8 8 11 8 8 9 7 7 8 8 8 8 8 8 8 8
9 10 10 11 12 6 16 7 9 8 9 16 17 14 14 14 14 15 15 15 16 15 14 14 12 12 14 12 10 9 9 7 7 9 10 9 7 6 5 6 6 6 6 8 8 6 5 5 5
4 5 7 6 9 9 6 15 14 7 11 14 16 14 14 13 15 13 14 13 14 14 15 15 13 13 13 12 11 9 7 7 8 10 8 5 3 3 3 3 3 3 5 8 8 8 5 4 3
2 4 4 8 4 10 4 6 16 13 12 15 14 15 13 12 13 13 14 14 15 15 15 15 13 13 12 12 11 10 7 7 7 8 7 5 5 4 2 5 4 4 5 7 8 6 6 5 5
7 5 3 5 9 13 8 4 15 17 14 14 12 13 14 14 16 17 16 15 15 14 15 15 12 15 13 12 11 11 8 8 7 6 8 5 6 3 3 4 5 5 5 6 8 8 7 6 7
7 6 5 4 9 9 5 9 16 18 19 13 12 12 14 15 15 16 16 17 16 15 15 16 15 17 15 11 10 9 8 10 8 5 9 6 7 4 2 4 3 4 4 6 9 6 7 6 8
4 5 4 6 5 2 8 12 14 17 19 17 12 11 10 11 11 16 18 17 18 17 17 16 17 17 19 15 14 10 12 12 8 8 11 8 7 5 3 3 2 2 3 4 7 9 5 5 7
4 4 6 3 6 3 12 9 12 13 10 12 9 6 7 9 14 14 19 21 19 19 18 18 18 18 17 15 14 12 12 11 9 11 11 12 9 8 6 5 3 2 1 2 5 7 8 5 5
8 7 7 10 7 3 2 4 8 14 15 17 13 10 10 6 12 16 18 22 22 19 18 17 19 18 16 15 14 14 14 12 12 12 12 11 12 11 9 7 5 4 2 1 2 4 7 6 4
1 3 10 7 3 3 6 3 5 13 15 20 21 17 10 11 7 14 21 20 19 17 18 17 17 19 16 16 14 13 14 12 9 12 13 12 11 10 10 10 7 6 4 3 3 3 6 8 9
9 10 9 6 2 4 6 7 6 11 20 20 22 21 16 11 5 9 14 15 17 17 16 16 17 19 18 18 15 15 12 13 9 9 11 10 8 8 10 10 9 7 4 6 4 3 3 6 7
4 11 4 3 4 3 2 6 4 11 8 18 23 25 20 10 7 8 14 16 16 17 17 16 16 16 18 16 14 15 12 12 9 9 12 11 9 10 10 9 13 8 6 6 5 3 1 2 4
15 12 7 13 6 6 5 6 2 4 6 9 19 22 18 16 8 6 14 16 16 16 18 18 17 17 16 16 15 13 10 9 9 11 10 10 11 10 10 9 11 8 7 7 7 4 2 1 1
7 9 4 3 1 5 3 3 5 3 5 9 17 19 19 17 10 9 11 13 14 16 18 19 17 17 17 17 16 14 12 10 10 10 11 10 11 11 9 9 11 9 8 9 9 7 5 4 2
7 6 7 3 8 7 4 4 4 6 7 11 16 20 21 18 13 10 11 12 10 13 14 17 18 20 21 19 17 15 12 11 10 11 9 12 13 12 11 11 11 11 10 9 10 8 8 6 4
4 5 2 3 3 9 4 4 2 7 10 11 14 16 19 19 17 11 9 10 9 10 12 15 16 17 19 22 18 16 12 9 8 7 8 14 12 12 12 12 11 12 12 12 12 11 9 8 7
1 1 4 7 7 1 4 4 3 5 9 9 10 10 13 14 13 11 10 7 6 6 8 14 13 15 16 18 18 14 13 11 9 7 4 12 13 11 12 12 12 12 12 13 12 11 10 10 8

GFSSGP_925_spd_120.txt.gz
Wind_Speed
5 5 3 4 3 4 10 8 17 17 17 8 11 2 11 12 8 8 21 13 17 16 15 12 11 10 12 13 13 13 14 15 15 15 15 16 16 17 17 19 19 20 19 19 19 20 20 18 17
5 4 3 4 4 8 10 13 17 14 14 18 9 8 5 10 10 17 15 17 16 15 14 12 11 11 12 12 12 13 14 15 15 15 15 15 15 17 18 18 18 19 19 18 18 18 17 18 16
2 4 4 3 2 8 12 17 15 16 20 10 6 10 6 6 15 9 20 18 15 13 14 12 12 11 11 11 12 13 13 13 15 16 15 15 15 16 17 18 18 17 16 16 16 15 15 16 17
1 2 4 3 13 8 15 18 20 23 11 4 12 10 7 14 8 15 19 17 16 14 14 11 10 11 10 10 11 11 12 13 15 15 15 15 15 16 16 17 17 17 16 15 14 11 12 10 9
2 3 2 7 12 12 13 17 20 18 12 12 2 10 14 9 15 21 19 16 15 14 12 10 9 9 8 8 9 12 11 12 14 15 14 14 15 15 16 15 15 15 16 15 15 16 15 15 14
3 3 4 11 17 15 12 12 16 10 13 13 17 19 9 12 20 18 18 16 14 13 12 11 9 10 8 9 8 10 11 10 12 15 14 14 14 14 14 14 14 14 14 15 15 15 13 14 15
4 1 6 15 16 15 10 11 9 10 9 11 16 13 8 17 17 18 17 15 13 12 11 10 11 9 9 9 10 10 11 11 11 15 14 15 14 14 15 13 13 12 13 14 16 15 14 13 14
1 1 6 5 12 13 10 9 8 9 11 11 16 7 13 19 18 18 16 15 13 11 11 10 10 10 9 8 8 9 10 10 12 13 13 14 15 15 15 13 12 11 13 13 12 12 13 12 12
4 2 5 5 9 8 12 7 4 6 12 7 4 14 25 22 20 18 16 15 13 11 9 10 10 10 10 9 8 10 11 11 11 11 13 11 12 12 12 11 10 10 10 10 9 9 10 9 14
4 4 5 2 3 10 8 9 11 10 12 13 16 23 25 23 20 18 15 16 14 13 12 9 10 11 9 9 9 10 9 10 9 10 9 11 10 11 12 11 11 9 9 10 10 11 11 11 8
3 5 6 5 5 5 8 5 6 10 9 14 19 23 22 22 18 17 14 14 14 13 11 11 9 9 9 9 8 8 8 9 8 10 9 10 11 11 11 10 9 8 9 7 9 9 8 7 7
8 9 13 14 6 5 9 7 15 9 3 11 20 22 23 18 17 16 15 13 14 13 12 10 9 7 9 9 8 7 8 9 10 10 10 11 11 11 10 9 8 7 7 8 9 10 9 9 7
4 9 9 7 9 5 11 7 9 9 9 18 22 20 17 16 16 14 13 13 13 13 13 11 9 8 9 7 9 8 10 10 11 10 11 10 10 10 9 8 7 6 7 8 9 10 10 8 8
8 5 5 3 16 11 12 9 6 1 11 17 18 17 16 15 15 14 12 12 13 13 13 12 10 9 9 8 9 9 9 11 10 10 10 9 9 8 8 7 7 6 7 7 8 7 8 7 7
7 9 6 7 14 7 15 4 6 4 13 17 17 15 14 14 13 13 13 12 13 13 13 13 12 10 9 9 9 9 10 10 10 10 10 8 7 6 7 6 5 5 5 6 6 5 5 6 6
9 9 8 10 13 5 4 8 11 15 16 18 18 15 13 12 14 12 13 12 13 13 14 13 12 12 10 8 9 9 9 9 10 11 9 6 5 5 4 4 5 4 5 6 6 6 6 6 5
9 8 8 10 11 10 11 7 14 14 15 16 16 16 13 12 14 12 13 12 13 13 14 14 12 12 10 9 8 7 9 9 10 9 7 6 5 4 3 4 4 3 4 6 5 6 5 5 4
12 9 13 12 13 16 17 7 23 15 11 15 13 11 14 13 13 14 13 13 13 14 15 14 12 11 10 9 8 8 8 9 8 8 7 5 5 4 3 5 4 3 4 6 7 5 5 4 3
4 5 9 9 11 14 14 10 23 15 12 8 8 14 15 14 14 14 13 13 13 14 15 14 13 11 11 10 10 10 11 9 7 7 7 6 6 3 3 4 3 3 4 5 6 3 5 5 3
9 8 10 6 10 7 8 10 20 22 22 17 13 20 14 14 11 13 14 14 14 14 14 15 13 12 11 9 9 8 8 10 8 7 9 7 7 5 4 2 2 2 3 3 6 6 5 5 5
8 7 9 7 10 4 8 7 14 15 18 18 12 4 10 11 14 13 16 16 15 15 15 15 14 13 13 10 10 9 8 5 7 9 10 8 8 7 5 2 0 1 1 2 4 5 7 5 4
11 5 4 11 13 5 14 5 13 16 17 22 21 14 16 18 13 16 17 18 17 16 14 14 14 13 12 11 11 12 12 10 10 7 9 9 9 8 6 5 3 1 1 1 1 4 6 7 4
2 3 7 7 7 5 11 8 14 17 15 19 21 19 18 16 14 13 16 18 17 15 15 14 14 12 12 12 10 12 10 11 9 9 9 10 9 10 9 7 5 4 4 1 1 3 6 6 6
1 7 6 5 5 8 8 11 12 16 21 20 21 23 20 18 16 14 18 16 17 16 15 15 15 13 12 12 10 11 11 9 8 10 11 11 10 11 10 10 8 6 4 4 3 1 3 5 6
12 12 8 9 8 9 7 7 6 13 9 21 23 23 23 17 16 12 14 18 17 17 17 16 16 15 14 13 12 11 9 9 9 9 12 10 10 12 12 11 10 9 6 6 5 2 1 2 3
14 17 11 11 11 11 8 6 2 7 5 10 18 22 22 19 15 12 17 17 19 19 18 17 17 16 15 14 13 10 9 10 12 11 9 10 11 9 10 10 11 10 7 6 7 6 4 2 1
14 16 15 14 11 8 10 8 6 8 8 11 14 20 21 19 12 15 17 18 19 19 19 19 17 17 15 15 12 11 10 8 10 9 9 8 8 11 10 10 11 9 7 8 7 8 6 4 4
12 8 15 10 13 14 7 8 4 10 10 12 14 20 22 21 16 13 14 16 18 19 18 18 17 17 17 15 13 11 10 8 8 8 9 10 10 10 11 11 11 11 9 7 8 8 8 6 6
12 12 8 15 15 12 13 8 6 5 8 12 14 18 21 21 19 15 13 14 14 14 16 18 18 17 17 17 15 12 10 9 7 7 7 9 11 12 11 11 11 10 9 9 8 8 7 8 8
9 15 16 11 14 10 14 4 5 6 6 9 12 16 18 21 18 10 12 13 11 12 14 14 16 17 17 17 17 14 12 11 9 8 7 10 12 12 12 11 10 9 10 10 9 8 9 9 9